GFSCGP_prec_precacc24_021.txt.gz
Total_Precipitation_Accumulation
0.00 0.00 0.00 0.00 0.00 0.00 0.00 0.00 0.00 0.00 0.00 0.00 0.00 0.00 0.00 0.00 0.00 0.00 0.00 0.00 0.00 0.00 0.01 0.04 0.07 0.08 0.04 0.06 0.21 0.34 0.49 0.41 0.19 0.06 0.09 0.11 0.06 0.03 0.01 0.00 0.00 0.00 0.00 0.00
0.00 0.00 0.00 0.00 0.00 0.00 0.00 0.00 0.00 0.00 0.00 0.00 0.00 0.00 0.00 0.00 0.00 0.00 0.00 0.00 0.00 0.00 0.00 0.01 0.03 0.05 0.06 0.12 0.28 0.27 0.16 0.07 0.02 0.04 0.05 0.04 0.02 0.01 0.00 0.00 0.00 0.00 0.00 0.00
0.00 0.00 0.00 0.00 0.00 0.00 0.00 0.00 0.00 0.00 0.00 0.00 0.00 0.00 0.00 0.00 0.00 0.00 0.00 0.00 0.00 0.00 0.02 0.02 0.04 0.03 0.05 0.06 0.07 0.01 0.01 0.00 0.01 0.01 0.01 0.00 0.00 0.00 0.00 0.00 0.00 0.00 0.00 0.00
0.00 0.00 0.00 0.00 0.00 0.00 0.00 0.00 0.00 0.00 0.00 0.00 0.00 0.00 0.00 0.00 0.00 0.00 0.00 0.00 0.00 0.00 0.00 0.00 0.00 0.00 0.00 0.00 0.00 0.00 0.00 0.00 0.00 0.00 0.00 0.00 0.00 0.00 0.00 0.00 0.00 0.00 0.00 0.00
0.00 0.00 0.00 0.00 0.00 0.00 0.00 0.00 0.00 0.00 0.00 0.00 0.00 0.00 0.02 0.00 0.00 0.00 0.00 0.00 0.00 0.00 0.00 0.00 0.00 0.00 0.00 0.00 0.00 0.00 0.00 0.00 0.00 0.00 0.00 0.00 0.00 0.00 0.00 0.00 0.00 0.00 0.00 0.00
0.00 0.00 0.00 0.00 0.00 0.00 0.00 0.00 0.00 0.00 0.00 0.00 0.00 0.01 0.02 0.01 0.00 0.00 0.00 0.00 0.00 0.00 0.00 0.00 0.00 0.00 0.00 0.00 0.00 0.00 0.00 0.00 0.00 0.00 0.00 0.00 0.00 0.00 0.00 0.00 0.00 0.00 0.00 0.00
0.00 0.00 0.00 0.00 0.00 0.00 0.00 0.00 0.00 0.02 0.01 0.01 0.03 0.02 0.03 0.00 0.00 0.00 0.00 0.00 0.00 0.00 0.00 0.00 0.00 0.00 0.00 0.00 0.00 0.00 0.00 0.00 0.00 0.00 0.00 0.00 0.00 0.00 0.00 0.00 0.00 0.00 0.00 0.00
0.00 0.00 0.00 0.00 0.00 0.00 0.00 0.00 0.00 0.00 0.00 0.01 0.00 0.00 0.00 0.00 0.00 0.00 0.00 0.00 0.00 0.00 0.00 0.00 0.00 0.00 0.00 0.00 0.00 0.00 0.00 0.00 0.00 0.00 0.00 0.00 0.00 0.00 0.00 0.00 0.00 0.00 0.00 0.00
0.00 0.00 0.00 0.00 0.00 0.00 0.00 0.00 0.00 0.00 0.00 0.00 0.00 0.00 0.00 0.00 0.00 0.00 0.00 0.00 0.00 0.00 0.00 0.00 0.00 0.00 0.00 0.00 0.00 0.00 0.00 0.00 0.00 0.00 0.00 0.00 0.00 0.00 0.00 0.00 0.00 0.00 0.00 0.00
0.00 0.00 0.00 0.00 0.00 0.00 0.00 0.00 0.00 0.00 0.00 0.00 0.00 0.00 0.00 0.00 0.00 0.00 0.00 0.00 0.00 0.00 0.00 0.00 0.00 0.00 0.00 0.00 0.00 0.00 0.00 0.00 0.00 0.00 0.00 0.00 0.00 0.00 0.00 0.00 0.00 0.00 0.00 0.00
0.00 0.00 0.00 0.00 0.00 0.00 0.00 0.00 0.00 0.00 0.00 0.00 0.00 0.00 0.00 0.00 0.00 0.00 0.00 0.00 0.00 0.00 0.00 0.00 0.00 0.00 0.00 0.00 0.00 0.00 0.00 0.00 0.00 0.00 0.00 0.00 0.00 0.00 0.00 0.00 0.00 0.00 0.00 0.00
0.00 0.00 0.00 0.00 0.00 0.00 0.00 0.00 0.00 0.00 0.00 0.00 0.00 0.00 0.00 0.00 0.00 0.00 0.00 0.00 0.00 0.00 0.00 0.00 0.00 0.00 0.00 0.00 0.00 0.00 0.00 0.00 0.00 0.00 0.00 0.00 0.00 0.00 0.00 0.00 0.00 0.00 0.00 0.00
0.00 0.00 0.00 0.00 0.00 0.00 0.00 0.00 0.00 0.00 0.00 0.00 0.00 0.00 0.00 0.00 0.00 0.00 0.00 0.00 0.00 0.00 0.00 0.00 0.00 0.00 0.00 0.00 0.00 0.00 0.00 0.00 0.00 0.00 0.00 0.00 0.00 0.00 0.00 0.00 0.00 0.00 0.00 0.01
0.00 0.00 0.00 0.00 0.00 0.00 0.00 0.00 0.00 0.00 0.00 0.00 0.00 0.00 0.00 0.00 0.00 0.00 0.00 0.00 0.00 0.00 0.00 0.00 0.00 0.00 0.00 0.00 0.00 0.00 0.00 0.00 0.00 0.00 0.00 0.01 0.01 0.01 0.00 0.00 0.01 0.01 0.02 0.03
0.00 0.00 0.00 0.00 0.00 0.00 0.00 0.00 0.00 0.00 0.00 0.00 0.00 0.00 0.00 0.00 0.00 0.00 0.00 0.00 0.00 0.00 0.00 0.00 0.00 0.00 0.00 0.00 0.00 0.00 0.00 0.00 0.00 0.00 0.00 0.00 0.01 0.01 0.02 0.04 0.02 0.03 0.02 0.00
0.00 0.00 0.00 0.00 0.00 0.00 0.00 0.00 0.00 0.00 0.00 0.00 0.00 0.00 0.00 0.00 0.00 0.00 0.00 0.00 0.00 0.00 0.00 0.00 0.00 0.00 0.00 0.00 0.00 0.00 0.00 0.00 0.00 0.00 0.00 0.01 0.01 0.03 0.04 0.02 0.04 0.02 0.01 0.00
0.00 0.00 0.00 0.00 0.00 0.00 0.00 0.00 0.00 0.00 0.00 0.00 0.00 0.00 0.00 0.00 0.00 0.00 0.00 0.00 0.00 0.00 0.00 0.00 0.00 0.00 0.00 0.00 0.00 0.00 0.00 0.00 0.00 0.00 0.00 0.01 0.01 0.02 0.02 0.04 0.02 0.00 0.01 0.00
0.00 0.00 0.00 0.00 0.00 0.00 0.00 0.00 0.00 0.00 0.00 0.00 0.00 0.00 0.00 0.00 0.00 0.00 0.00 0.00 0.00 0.00 0.00 0.00 0.00 0.00 0.00 0.00 0.00 0.00 0.00 0.00 0.00 0.00 0.00 0.00 0.01 0.01 0.04 0.03 0.01 0.01 0.00 0.00
0.00 0.00 0.00 0.00 0.00 0.00 0.00 0.00 0.00 0.00 0.00 0.00 0.00 0.00 0.00 0.00 0.00 0.00 0.00 0.00 0.00 0.00 0.00 0.00 0.00 0.00 0.00 0.00 0.00 0.00 0.00 0.00 0.00 0.00 0.00 0.00 0.01 0.01 0.01 0.01 0.02 0.01 0.00 0.00
0.00 0.00 0.00 0.00 0.00 0.00 0.00 0.00 0.00 0.00 0.00 0.00 0.00 0.00 0.00 0.00 0.00 0.00 0.00 0.00 0.00 0.00 0.00 0.00 0.00 0.00 0.00 0.00 0.00 0.00 0.00 0.00 0.00 0.00 0.00 0.00 0.00 0.00 0.01 0.01 0.00 0.00 0.00 0.00
0.00 0.00 0.00 0.00 0.00 0.00 0.00 0.00 0.00 0.00 0.00 0.00 0.00 0.00 0.00 0.00 0.00 0.00 0.00 0.00 0.00 0.00 0.00 0.00 0.00 0.00 0.00 0.00 0.00 0.00 0.00 0.00 0.00 0.00 0.00 0.00 0.00 0.00 0.00 0.00 0.00 0.00 0.00 0.00
0.00 0.00 0.00 0.00 0.00 0.00 0.00 0.00 0.00 0.00 0.00 0.00 0.00 0.00 0.00 0.00 0.00 0.00 0.00 0.00 0.00 0.00 0.00 0.00 0.00 0.00 0.00 0.00 0.01 0.02 0.01 0.00 0.00 0.00 0.00 0.00 0.00 0.00 0.00 0.00 0.00 0.00 0.00 0.00
0.00 0.00 0.00 0.00 0.00 0.00 0.00 0.00 0.00 0.00 0.00 0.00 0.00 0.00 0.00 0.00 0.00 0.00 0.00 0.00 0.00 0.00 0.00 0.00 0.00 0.00 0.01 0.04 0.04 0.01 0.00 0.00 0.00 0.00 0.00 0.00 0.00 0.00 0.00 0.00 0.00 0.00 0.00 0.00
0.00 0.00 0.00 0.00 0.00 0.00 0.00 0.00 0.00 0.00 0.00 0.00 0.00 0.00 0.00 0.00 0.00 0.00 0.00 0.00 0.00 0.00 0.00 0.00 0.04 0.08 0.09 0.04 0.00 0.00 0.00 0.00 0.00 0.00 0.00 0.00 0.00 0.00 0.00 0.00 0.00 0.00 0.00 0.00
0.00 0.00 0.00 0.00 0.00 0.00 0.00 0.00 0.00 0.00 0.00 0.00 0.00 0.00 0.00 0.00 0.00 0.00 0.00 0.00 0.00 0.01 0.03 0.08 0.07 0.04 0.01 0.00 0.01 0.00 0.00 0.00 0.00 0.00 0.00 0.00 0.00 0.00 0.00 0.00 0.00 0.00 0.00 0.00
0.00 0.00 0.00 0.00 0.00 0.00 0.00 0.00 0.00 0.00 0.00 0.00 0.00 0.00 0.00 0.00 0.00 0.00 0.00 0.01 0.04 0.11 0.12 0.05 0.02 0.01 0.01 0.01 0.00 0.00 0.00 0.00 0.00 0.00 0.00 0.02 0.03 0.02 0.01 0.00 0.00 0.00 0.00 0.00

GFSCGP_prec_precacc24_024.txt.gz
Total_Precipitation_Accumulation
0.00 0.00 0.00 0.00 0.00 0.00 0.00 0.00 0.00 0.00 0.00 0.00 0.00 0.00 0.00 0.00 0.00 0.00 0.00 0.00 0.00 0.00 0.01 0.04 0.07 0.08 0.04 0.06 0.23 0.35 0.54 0.52 0.24 0.09 0.11 0.11 0.06 0.03 0.01 0.00 0.00 0.00 0.00 0.00
0.00 0.00 0.00 0.00 0.00 0.00 0.00 0.00 0.00 0.00 0.00 0.00 0.00 0.00 0.00 0.00 0.00 0.00 0.00 0.00 0.00 0.00 0.00 0.01 0.03 0.05 0.06 0.12 0.31 0.32 0.20 0.12 0.03 0.04 0.05 0.04 0.02 0.01 0.00 0.00 0.00 0.00 0.00 0.00
0.00 0.00 0.00 0.00 0.00 0.00 0.00 0.00 0.00 0.00 0.00 0.00 0.00 0.00 0.00 0.00 0.00 0.00 0.00 0.00 0.00 0.00 0.02 0.02 0.04 0.03 0.05 0.07 0.07 0.03 0.02 0.01 0.01 0.01 0.01 0.00 0.00 0.00 0.00 0.00 0.00 0.00 0.00 0.00
0.00 0.00 0.00 0.00 0.00 0.00 0.00 0.00 0.00 0.00 0.00 0.00 0.00 0.00 0.02 0.01 0.00 0.00 0.00 0.00 0.00 0.00 0.00 0.00 0.00 0.00 0.03 0.02 0.02 0.00 0.00 0.00 0.00 0.00 0.00 0.00 0.00 0.00 0.00 0.00 0.00 0.00 0.00 0.00
0.02 0.00 0.00 0.00 0.00 0.00 0.01 0.00 0.00 0.00 0.00 0.05 0.02 0.01 0.03 0.02 0.00 0.00 0.00 0.00 0.00 0.00 0.00 0.00 0.00 0.00 0.00 0.00 0.00 0.00 0.00 0.00 0.00 0.00 0.00 0.00 0.00 0.00 0.00 0.00 0.00 0.00 0.00 0.00
0.00 0.00 0.00 0.00 0.00 0.00 0.00 0.00 0.00 0.00 0.00 0.01 0.01 0.02 0.02 0.02 0.01 0.03 0.00 0.00 0.00 0.00 0.00 0.00 0.00 0.00 0.00 0.00 0.00 0.00 0.00 0.00 0.00 0.00 0.00 0.00 0.00 0.00 0.00 0.00 0.00 0.00 0.00 0.00
0.00 0.00 0.00 0.00 0.00 0.00 0.00 0.00 0.00 0.04 0.02 0.01 0.03 0.02 0.04 0.01 0.05 0.15 0.05 0.00 0.00 0.00 0.00 0.00 0.00 0.00 0.00 0.00 0.00 0.00 0.00 0.00 0.00 0.00 0.00 0.00 0.00 0.00 0.00 0.00 0.00 0.00 0.00 0.00
0.00 0.01 0.00 0.00 0.00 0.01 0.00 0.00 0.00 0.06 0.02 0.01 0.01 0.00 0.00 0.00 0.00 0.00 0.00 0.00 0.00 0.00 0.00 0.00 0.00 0.00 0.00 0.00 0.00 0.00 0.00 0.00 0.00 0.00 0.00 0.00 0.00 0.00 0.00 0.00 0.00 0.00 0.00 0.00
0.04 0.01 0.00 0.00 0.00 0.00 0.00 0.00 0.00 0.00 0.00 0.00 0.00 0.00 0.00 0.00 0.00 0.00 0.00 0.00 0.00 0.00 0.00 0.00 0.00 0.00 0.00 0.00 0.00 0.00 0.00 0.00 0.00 0.00 0.00 0.00 0.00 0.00 0.00 0.00 0.00 0.00 0.00 0.00
0.06 0.07 0.00 0.00 0.00 0.00 0.00 0.00 0.00 0.00 0.00 0.00 0.00 0.00 0.00 0.00 0.00 0.00 0.00 0.00 0.00 0.00 0.00 0.00 0.00 0.00 0.00 0.00 0.00 0.00 0.00 0.00 0.00 0.00 0.00 0.00 0.00 0.00 0.00 0.00 0.00 0.00 0.00 0.00
0.00 0.00 0.00 0.00 0.00 0.00 0.00 0.00 0.00 0.00 0.00 0.00 0.00 0.00 0.00 0.00 0.00 0.00 0.00 0.00 0.00 0.00 0.00 0.00 0.00 0.00 0.00 0.00 0.00 0.00 0.00 0.00 0.00 0.00 0.00 0.00 0.00 0.00 0.00 0.00 0.00 0.00 0.00 0.00
0.00 0.00 0.00 0.00 0.00 0.00 0.00 0.00 0.00 0.00 0.00 0.00 0.00 0.00 0.00 0.00 0.00 0.00 0.00 0.00 0.00 0.00 0.00 0.00 0.00 0.00 0.00 0.00 0.00 0.00 0.00 0.00 0.00 0.00 0.00 0.00 0.00 0.00 0.00 0.00 0.00 0.00 0.00 0.00
0.00 0.00 0.00 0.00 0.00 0.00 0.00 0.00 0.00 0.00 0.00 0.00 0.00 0.00 0.00 0.00 0.00 0.00 0.00 0.00 0.00 0.00 0.00 0.00 0.00 0.00 0.00 0.00 0.00 0.00 0.00 0.00 0.00 0.00 0.00 0.00 0.00 0.00 0.00 0.00 0.00 0.00 0.00 0.01
0.00 0.00 0.00 0.00 0.00 0.00 0.00 0.00 0.00 0.00 0.00 0.00 0.00 0.00 0.00 0.00 0.00 0.00 0.00 0.00 0.00 0.00 0.00 0.00 0.00 0.00 0.00 0.00 0.00 0.00 0.00 0.00 0.00 0.00 0.00 0.01 0.01 0.01 0.00 0.00 0.01 0.01 0.02 0.03
0.00 0.00 0.00 0.00 0.00 0.00 0.00 0.00 0.00 0.00 0.00 0.00 0.00 0.00 0.00 0.00 0.00 0.00 0.00 0.00 0.00 0.00 0.00 0.00 0.00 0.00 0.00 0.00 0.00 0.00 0.00 0.00 0.00 0.00 0.00 0.00 0.01 0.01 0.02 0.04 0.02 0.03 0.02 0.00
0.00 0.00 0.00 0.00 0.00 0.00 0.00 0.00 0.00 0.00 0.00 0.00 0.00 0.00 0.00 0.00 0.00 0.00 0.00 0.00 0.00 0.00 0.00 0.00 0.00 0.00 0.00 0.00 0.00 0.00 0.00 0.00 0.00 0.00 0.00 0.01 0.01 0.03 0.04 0.02 0.04 0.02 0.01 0.00
0.00 0.00 0.00 0.00 0.00 0.00 0.00 0.00 0.00 0.00 0.00 0.00 0.00 0.00 0.00 0.00 0.00 0.00 0.00 0.00 0.00 0.00 0.00 0.00 0.00 0.00 0.00 0.00 0.00 0.00 0.00 0.00 0.00 0.00 0.00 0.01 0.01 0.02 0.02 0.04 0.02 0.00 0.01 0.00
0.00 0.00 0.00 0.00 0.00 0.00 0.00 0.00 0.00 0.00 0.00 0.00 0.00 0.00 0.00 0.00 0.00 0.00 0.00 0.00 0.00 0.00 0.00 0.00 0.00 0.00 0.00 0.00 0.00 0.00 0.00 0.00 0.00 0.00 0.00 0.00 0.01 0.01 0.04 0.03 0.01 0.01 0.00 0.00
0.00 0.00 0.00 0.00 0.00 0.00 0.00 0.00 0.00 0.00 0.00 0.00 0.00 0.00 0.00 0.00 0.00 0.00 0.00 0.00 0.00 0.00 0.00 0.00 0.00 0.00 0.00 0.00 0.00 0.00 0.00 0.00 0.00 0.00 0.00 0.01 0.01 0.01 0.01 0.01 0.02 0.01 0.00 0.00
0.00 0.00 0.00 0.00 0.00 0.00 0.00 0.00 0.00 0.00 0.00 0.00 0.00 0.00 0.00 0.00 0.00 0.00 0.00 0.00 0.00 0.00 0.00 0.00 0.00 0.00 0.00 0.00 0.00 0.00 0.00 0.00 0.00 0.00 0.00 0.00 0.00 0.00 0.01 0.01 0.00 0.00 0.00 0.00
0.00 0.00 0.00 0.00 0.00 0.00 0.00 0.00 0.00 0.00 0.00 0.00 0.00 0.00 0.00 0.00 0.00 0.00 0.00 0.00 0.00 0.00 0.00 0.00 0.00 0.00 0.00 0.00 0.00 0.00 0.00 0.00 0.01 0.01 0.00 0.00 0.00 0.01 0.00 0.00 0.00 0.00 0.00 0.00
0.00 0.00 0.00 0.00 0.00 0.00 0.00 0.00 0.00 0.00 0.00 0.00 0.00 0.00 0.00 0.00 0.00 0.00 0.00 0.00 0.00 0.00 0.00 0.00 0.00 0.00 0.00 0.00 0.01 0.03 0.03 0.02 0.01 0.00 0.00 0.00 0.00 0.00 0.00 0.00 0.00 0.00 0.00 0.00
0.00 0.00 0.00 0.00 0.00 0.00 0.00 0.00 0.00 0.00 0.00 0.00 0.00 0.00 0.00 0.00 0.00 0.00 0.00 0.00 0.00 0.00 0.00 0.00 0.00 0.00 0.01 0.04 0.06 0.04 0.01 0.00 0.00 0.01 0.00 0.00 0.00 0.00 0.00 0.00 0.00 0.00 0.00 0.00
0.00 0.00 0.00 0.00 0.00 0.00 0.00 0.00 0.00 0.00 0.00 0.00 0.00 0.00 0.00 0.00 0.00 0.00 0.00 0.00 0.00 0.00 0.00 0.00 0.04 0.08 0.09 0.04 0.01 0.00 0.00 0.01 0.01 0.00 0.00 0.00 0.00 0.00 0.00 0.00 0.00 0.00 0.00 0.00
0.00 0.00 0.00 0.00 0.00 0.00 0.00 0.00 0.00 0.00 0.00 0.00 0.00 0.00 0.00 0.00 0.00 0.00 0.00 0.00 0.00 0.01 0.03 0.08 0.07 0.04 0.02 0.01 0.01 0.01 0.00 0.00 0.00 0.00 0.00 0.00 0.00 0.00 0.00 0.00 0.00 0.00 0.00 0.00
0.00 0.00 0.00 0.00 0.00 0.00 0.00 0.00 0.00 0.00 0.00 0.00 0.00 0.00 0.00 0.00 0.00 0.00 0.00 0.01 0.04 0.11 0.12 0.05 0.02 0.02 0.02 0.01 0.00 0.00 0.00 0.00 0.00 0.00 0.00 0.02 0.03 0.02 0.01 0.00 0.00 0.00 0.00 0.00

GFSCGP_prec_precacc24_027.txt.gz
Total_Precipitation_Accumulation
0.00 0.00 0.00 0.00 0.00 0.00 0.00 0.00 0.00 0.00 0.00 0.00 0.00 0.00 0.00 0.00 0.00 0.00 0.02 0.01 0.00 0.00 0.01 0.04 0.07 0.07 0.03 0.04 0.26 0.38 0.52 0.55 0.26 0.12 0.13 0.11 0.06 0.03 0.01 0.00 0.00 0.00 0.00 0.00
0.00 0.00 0.00 0.00 0.00 0.00 0.00 0.00 0.00 0.00 0.00 0.00 0.00 0.00 0.00 0.00 0.00 0.00 0.00 0.00 0.00 0.00 0.00 0.01 0.03 0.03 0.06 0.13 0.35 0.43 0.24 0.14 0.04 0.06 0.06 0.04 0.02 0.01 0.00 0.00 0.00 0.00 0.00 0.00
0.00 0.00 0.00 0.00 0.00 0.00 0.00 0.00 0.00 0.00 0.00 0.00 0.00 0.00 0.00 0.00 0.00 0.00 0.00 0.00 0.00 0.00 0.02 0.02 0.04 0.03 0.05 0.07 0.11 0.22 0.04 0.02 0.01 0.02 0.01 0.00 0.00 0.00 0.00 0.00 0.00 0.00 0.00 0.00
0.00 0.00 0.00 0.00 0.00 0.00 0.00 0.00 0.00 0.00 0.00 0.00 0.00 0.00 0.02 0.01 0.00 0.00 0.00 0.00 0.00 0.00 0.00 0.00 0.00 0.00 0.03 0.02 0.03 0.10 0.04 0.00 0.00 0.00 0.00 0.00 0.00 0.00 0.00 0.00 0.00 0.00 0.00 0.00
0.02 0.00 0.00 0.00 0.00 0.00 0.01 0.00 0.00 0.00 0.00 0.05 0.02 0.00 0.03 0.02 0.00 0.00 0.00 0.00 0.00 0.00 0.00 0.00 0.00 0.00 0.00 0.02 0.02 0.02 0.01 0.00 0.00 0.00 0.00 0.00 0.00 0.00 0.00 0.00 0.00 0.00 0.00 0.00
0.00 0.00 0.01 0.01 0.00 0.00 0.00 0.00 0.00 0.00 0.00 0.01 0.01 0.01 0.01 0.01 0.01 0.04 0.02 0.00 0.00 0.00 0.00 0.00 0.00 0.00 0.00 0.00 0.01 0.00 0.00 0.00 0.00 0.00 0.00 0.00 0.00 0.00 0.00 0.00 0.00 0.00 0.00 0.00
0.00 0.00 0.00 0.00 0.00 0.00 0.00 0.00 0.00 0.02 0.01 0.00 0.01 0.01 0.02 0.00 0.06 0.16 0.09 0.00 0.00 0.00 0.00 0.00 0.00 0.00 0.00 0.00 0.00 0.00 0.00 0.00 0.00 0.00 0.00 0.00 0.00 0.00 0.00 0.00 0.00 0.00 0.00 0.00
0.00 0.00 0.00 0.00 0.00 0.01 0.00 0.00 0.00 0.07 0.03 0.00 0.01 0.02 0.00 0.00 0.00 0.00 0.00 0.00 0.00 0.00 0.00 0.00 0.00 0.00 0.01 0.00 0.00 0.00 0.00 0.00 0.00 0.00 0.00 0.00 0.00 0.00 0.00 0.00 0.00 0.00 0.00 0.00
0.04 0.01 0.01 0.00 0.00 0.00 0.00 0.00 0.00 0.00 0.00 0.00 0.00 0.00 0.00 0.00 0.00 0.00 0.00 0.00 0.00 0.00 0.00 0.00 0.00 0.00 0.00 0.00 0.00 0.00 0.00 0.00 0.00 0.00 0.00 0.00 0.00 0.00 0.00 0.00 0.00 0.00 0.00 0.00
0.06 0.16 0.03 0.00 0.00 0.00 0.00 0.00 0.00 0.00 0.00 0.00 0.00 0.00 0.00 0.00 0.00 0.00 0.00 0.00 0.00 0.00 0.00 0.00 0.00 0.00 0.00 0.00 0.00 0.00 0.00 0.00 0.00 0.00 0.00 0.00 0.00 0.00 0.00 0.00 0.00 0.00 0.00 0.00
0.00 0.02 0.03 0.00 0.00 0.00 0.00 0.00 0.00 0.00 0.00 0.00 0.00 0.00 0.00 0.00 0.00 0.00 0.00 0.00 0.00 0.00 0.00 0.00 0.00 0.00 0.00 0.00 0.00 0.00 0.00 0.00 0.00 0.00 0.00 0.00 0.00 0.00 0.00 0.00 0.00 0.00 0.00 0.00
0.00 0.00 0.00 0.00 0.00 0.00 0.00 0.01 0.01 0.00 0.00 0.00 0.00 0.00 0.00 0.00 0.00 0.00 0.00 0.00 0.00 0.00 0.00 0.00 0.00 0.00 0.00 0.00 0.00 0.00 0.00 0.00 0.00 0.00 0.00 0.00 0.00 0.00 0.00 0.00 0.00 0.00 0.00 0.00
0.00 0.00 0.00 0.00 0.00 0.00 0.00 0.00 0.00 0.00 0.00 0.00 0.00 0.00 0.00 0.00 0.00 0.00 0.00 0.00 0.00 0.00 0.00 0.00 0.00 0.00 0.00 0.00 0.00 0.00 0.00 0.00 0.00 0.00 0.00 0.00 0.00 0.00 0.00 0.00 0.00 0.00 0.00 0.01
0.00 0.00 0.00 0.00 0.00 0.00 0.00 0.00 0.00 0.00 0.00 0.00 0.00 0.00 0.00 0.00 0.00 0.00 0.00 0.00 0.00 0.00 0.00 0.00 0.00 0.00 0.00 0.00 0.00 0.00 0.00 0.00 0.00 0.00 0.00 0.00 0.00 0.00 0.00 0.00 0.00 0.01 0.02 0.03
0.00 0.00 0.00 0.00 0.00 0.00 0.00 0.00 0.00 0.00 0.00 0.00 0.00 0.00 0.00 0.00 0.00 0.00 0.00 0.00 0.00 0.00 0.00 0.00 0.00 0.00 0.00 0.00 0.01 0.00 0.00 0.00 0.00 0.00 0.00 0.00 0.00 0.00 0.01 0.02 0.01 0.02 0.02 0.00
0.00 0.00 0.00 0.00 0.00 0.00 0.00 0.00 0.00 0.00 0.00 0.00 0.00 0.00 0.00 0.00 0.00 0.00 0.00 0.00 0.00 0.00 0.00 0.00 0.00 0.01 0.01 0.00 0.00 0.00 0.00 0.00 0.00 0.00 0.00 0.00 0.00 0.00 0.00 0.00 0.03 0.02 0.01 0.00
0.00 0.00 0.00 0.00 0.00 0.00 0.00 0.00 0.00 0.00 0.00 0.00 0.00 0.00 0.00 0.00 0.00 0.00 0.00 0.00 0.00 0.00 0.00 0.00 0.00 0.00 0.01 0.01 0.00 0.00 0.00 0.00 0.00 0.00 0.00 0.00 0.00 0.00 0.00 0.00 0.01 0.00 0.01 0.00
0.01 0.00 0.00 0.00 0.00 0.00 0.00 0.00 0.00 0.00 0.00 0.00 0.00 0.00 0.00 0.00 0.00 0.00 0.00 0.00 0.00 0.00 0.00 0.00 0.00 0.00 0.00 0.00 0.00 0.00 0.00 0.00 0.00 0.00 0.00 0.00 0.00 0.00 0.00 0.00 0.00 0.01 0.00 0.00
0.01 0.00 0.00 0.00 0.00 0.00 0.00 0.00 0.00 0.00 0.00 0.00 0.00 0.00 0.00 0.00 0.00 0.00 0.00 0.00 0.00 0.00 0.00 0.00 0.00 0.00 0.00 0.00 0.00 0.00 0.00 0.00 0.00 0.00 0.00 0.00 0.00 0.00 0.00 0.01 0.02 0.01 0.00 0.00
0.00 0.00 0.00 0.00 0.00 0.00 0.00 0.00 0.00 0.00 0.00 0.00 0.00 0.00 0.00 0.00 0.00 0.00 0.00 0.00 0.00 0.00 0.00 0.00 0.00 0.00 0.00 0.00 0.00 0.00 0.00 0.00 0.00 0.00 0.00 0.00 0.00 0.01 0.01 0.01 0.00 0.00 0.00 0.00
0.00 0.00 0.00 0.00 0.00 0.00 0.00 0.00 0.00 0.00 0.00 0.00 0.00 0.00 0.00 0.00 0.00 0.00 0.00 0.00 0.00 0.00 0.00 0.00 0.00 0.00 0.00 0.00 0.00 0.00 0.00 0.00 0.01 0.02 0.04 0.04 0.01 0.01 0.00 0.00 0.00 0.00 0.00 0.00
0.00 0.00 0.00 0.00 0.00 0.00 0.00 0.00 0.00 0.00 0.00 0.00 0.00 0.00 0.00 0.00 0.00 0.00 0.00 0.00 0.00 0.00 0.00 0.00 0.00 0.00 0.00 0.00 0.01 0.03 0.04 0.03 0.05 0.05 0.03 0.01 0.00 0.00 0.00 0.00 0.00 0.00 0.00 0.00
0.00 0.00 0.00 0.00 0.00 0.00 0.00 0.00 0.00 0.00 0.00 0.00 0.00 0.00 0.00 0.00 0.00 0.00 0.00 0.00 0.00 0.00 0.00 0.00 0.00 0.00 0.01 0.04 0.06 0.04 0.01 0.02 0.02 0.01 0.01 0.00 0.00 0.00 0.00 0.00 0.00 0.00 0.00 0.00
0.00 0.00 0.00 0.00 0.00 0.00 0.00 0.00 0.00 0.00 0.00 0.00 0.00 0.00 0.00 0.00 0.00 0.00 0.00 0.00 0.00 0.00 0.00 0.00 0.04 0.08 0.09 0.04 0.01 0.01 0.01 0.01 0.01 0.00 0.00 0.00 0.00 0.00 0.00 0.00 0.00 0.00 0.00 0.00
0.00 0.00 0.00 0.00 0.00 0.00 0.00 0.00 0.00 0.00 0.00 0.00 0.00 0.00 0.00 0.00 0.00 0.00 0.00 0.00 0.00 0.01 0.03 0.08 0.07 0.04 0.02 0.01 0.01 0.01 0.00 0.00 0.00 0.00 0.00 0.00 0.00 0.00 0.00 0.00 0.00 0.00 0.00 0.00
0.00 0.00 0.00 0.00 0.00 0.00 0.00 0.00 0.00 0.00 0.00 0.00 0.00 0.00 0.00 0.00 0.00 0.00 0.00 0.01 0.04 0.11 0.12 0.05 0.02 0.02 0.02 0.01 0.00 0.00 0.00 0.00 0.00 0.00 0.00 0.02 0.03 0.02 0.01 0.00 0.00 0.00 0.00 0.00

GFSCGP_prec_precacc24_030.txt.gz
Total_Precipitation_Accumulation
0.00 0.00 0.00 0.00 0.00 0.00 0.00 0.00 0.00 0.00 0.00 0.00 0.00 0.00 0.00 0.00 0.00 0.00 0.03 0.01 0.00 0.00 0.01 0.03 0.06 0.07 0.03 0.04 0.24 0.36 0.50 0.55 0.25 0.11 0.11 0.09 0.06 0.03 0.01 0.00 0.00 0.00 0.00 0.00
0.00 0.00 0.00 0.00 0.00 0.00 0.00 0.00 0.00 0.00 0.00 0.00 0.00 0.00 0.00 0.00 0.00 0.00 0.00 0.00 0.00 0.00 0.00 0.01 0.02 0.01 0.04 0.13 0.34 0.42 0.26 0.14 0.03 0.04 0.04 0.03 0.02 0.01 0.00 0.00 0.00 0.00 0.00 0.00
0.00 0.00 0.00 0.00 0.00 0.00 0.00 0.00 0.00 0.00 0.00 0.00 0.00 0.00 0.00 0.00 0.00 0.00 0.00 0.00 0.00 0.00 0.02 0.02 0.02 0.01 0.05 0.06 0.10 0.22 0.09 0.05 0.00 0.01 0.01 0.00 0.00 0.00 0.00 0.00 0.00 0.00 0.00 0.00
0.00 0.00 0.00 0.00 0.00 0.00 0.00 0.00 0.00 0.00 0.00 0.00 0.00 0.00 0.02 0.01 0.00 0.00 0.00 0.00 0.00 0.00 0.00 0.00 0.00 0.00 0.03 0.03 0.05 0.22 0.09 0.02 0.02 0.02 0.00 0.00 0.00 0.00 0.00 0.00 0.00 0.00 0.00 0.00
0.02 0.00 0.00 0.00 0.00 0.00 0.01 0.00 0.00 0.00 0.00 0.05 0.02 0.00 0.03 0.02 0.00 0.00 0.00 0.00 0.00 0.00 0.00 0.00 0.00 0.00 0.00 0.06 0.06 0.15 0.04 0.00 0.00 0.01 0.00 0.00 0.00 0.00 0.00 0.00 0.00 0.00 0.00 0.00
0.00 0.00 0.01 0.01 0.00 0.00 0.00 0.00 0.00 0.00 0.00 0.01 0.01 0.01 0.01 0.01 0.01 0.04 0.02 0.00 0.00 0.00 0.01 0.00 0.00 0.00 0.01 0.02 0.02 0.06 0.02 0.00 0.00 0.00 0.00 0.00 0.00 0.00 0.00 0.00 0.00 0.00 0.00 0.00
0.00 0.00 0.00 0.00 0.00 0.00 0.00 0.00 0.00 0.02 0.00 0.00 0.00 0.01 0.02 0.01 0.06 0.16 0.09 0.00 0.00 0.00 0.00 0.00 0.00 0.00 0.00 0.00 0.05 0.04 0.01 0.00 0.00 0.00 0.00 0.00 0.00 0.00 0.00 0.00 0.00 0.00 0.00 0.00
0.00 0.00 0.00 0.00 0.00 0.01 0.00 0.00 0.00 0.07 0.03 0.00 0.02 0.02 0.00 0.00 0.00 0.00 0.00 0.00 0.00 0.00 0.00 0.00 0.00 0.00 0.05 0.04 0.02 0.04 0.00 0.00 0.00 0.00 0.00 0.00 0.00 0.00 0.00 0.00 0.00 0.00 0.00 0.00
0.04 0.01 0.01 0.00 0.00 0.00 0.00 0.00 0.00 0.00 0.00 0.00 0.00 0.00 0.00 0.00 0.00 0.00 0.00 0.00 0.00 0.00 0.00 0.00 0.00 0.01 0.05 0.05 0.01 0.00 0.00 0.00 0.00 0.01 0.00 0.00 0.00 0.00 0.00 0.00 0.00 0.00 0.00 0.00
0.06 0.16 0.03 0.00 0.00 0.00 0.00 0.00 0.00 0.00 0.00 0.00 0.00 0.00 0.00 0.00 0.00 0.00 0.00 0.00 0.00 0.00 0.00 0.00 0.00 0.00 0.00 0.01 0.00 0.00 0.00 0.00 0.00 0.01 0.00 0.00 0.00 0.00 0.00 0.00 0.00 0.00 0.00 0.00
0.00 0.02 0.03 0.00 0.00 0.00 0.00 0.00 0.00 0.00 0.00 0.00 0.00 0.00 0.00 0.00 0.00 0.00 0.00 0.00 0.00 0.00 0.00 0.00 0.00 0.00 0.00 0.00 0.00 0.00 0.00 0.00 0.00 0.00 0.00 0.00 0.00 0.00 0.00 0.00 0.00 0.00 0.00 0.00
0.00 0.00 0.00 0.00 0.00 0.00 0.00 0.01 0.03 0.00 0.00 0.00 0.00 0.00 0.00 0.00 0.00 0.00 0.00 0.00 0.00 0.00 0.00 0.00 0.00 0.00 0.00 0.00 0.00 0.00 0.00 0.00 0.00 0.00 0.00 0.00 0.00 0.00 0.00 0.00 0.00 0.00 0.00 0.00
0.00 0.00 0.00 0.00 0.00 0.00 0.00 0.00 0.00 0.00 0.00 0.00 0.00 0.00 0.00 0.00 0.00 0.00 0.00 0.00 0.00 0.00 0.00 0.00 0.00 0.00 0.00 0.00 0.00 0.00 0.00 0.00 0.00 0.00 0.00 0.00 0.00 0.00 0.00 0.00 0.00 0.00 0.00 0.00
0.00 0.00 0.00 0.00 0.00 0.00 0.00 0.00 0.00 0.00 0.00 0.00 0.00 0.00 0.00 0.00 0.00 0.00 0.00 0.00 0.00 0.00 0.00 0.00 0.00 0.00 0.00 0.00 0.00 0.00 0.00 0.00 0.00 0.00 0.00 0.00 0.00 0.00 0.00 0.00 0.00 0.00 0.00 0.01
0.00 0.00 0.00 0.00 0.00 0.00 0.00 0.00 0.00 0.00 0.00 0.00 0.00 0.00 0.00 0.00 0.00 0.00 0.00 0.00 0.00 0.00 0.00 0.00 0.00 0.00 0.00 0.00 0.01 0.01 0.01 0.00 0.00 0.00 0.00 0.00 0.00 0.00 0.00 0.00 0.00 0.00 0.00 0.00
0.00 0.00 0.00 0.00 0.00 0.00 0.00 0.00 0.00 0.00 0.00 0.00 0.00 0.00 0.00 0.00 0.00 0.00 0.00 0.00 0.00 0.00 0.00 0.00 0.00 0.02 0.01 0.01 0.01 0.01 0.00 0.00 0.00 0.00 0.00 0.00 0.00 0.00 0.00 0.00 0.00 0.00 0.00 0.00
0.00 0.00 0.00 0.00 0.00 0.00 0.00 0.00 0.00 0.00 0.00 0.00 0.00 0.00 0.00 0.00 0.00 0.00 0.00 0.00 0.00 0.00 0.00 0.00 0.00 0.00 0.01 0.01 0.00 0.00 0.00 0.00 0.00 0.00 0.00 0.00 0.00 0.00 0.00 0.00 0.00 0.00 0.01 0.00
0.01 0.00 0.00 0.00 0.00 0.00 0.00 0.00 0.00 0.00 0.00 0.00 0.00 0.00 0.00 0.00 0.00 0.00 0.00 0.00 0.00 0.00 0.00 0.00 0.00 0.00 0.00 0.00 0.00 0.00 0.01 0.00 0.00 0.00 0.00 0.00 0.00 0.00 0.00 0.00 0.01 0.02 0.01 0.00
0.02 0.01 0.00 0.00 0.00 0.00 0.00 0.00 0.00 0.00 0.00 0.00 0.00 0.00 0.00 0.00 0.00 0.00 0.00 0.00 0.00 0.00 0.00 0.00 0.00 0.00 0.00 0.00 0.00 0.00 0.00 0.00 0.00 0.00 0.00 0.00 0.00 0.00 0.03 0.06 0.04 0.01 0.00 0.00
0.00 0.00 0.00 0.00 0.00 0.00 0.00 0.00 0.00 0.00 0.00 0.00 0.00 0.00 0.00 0.00 0.00 0.00 0.00 0.00 0.00 0.00 0.00 0.00 0.00 0.00 0.00 0.00 0.00 0.00 0.00 0.00 0.00 0.00 0.00 0.02 0.05 0.09 0.10 0.04 0.01 0.00 0.00 0.00
0.00 0.00 0.00 0.00 0.00 0.00 0.00 0.00 0.00 0.00 0.00 0.00 0.00 0.00 0.00 0.00 0.00 0.00 0.00 0.00 0.00 0.00 0.00 0.00 0.00 0.00 0.00 0.00 0.00 0.00 0.00 0.01 0.03 0.05 0.10 0.15 0.14 0.08 0.02 0.00 0.00 0.00 0.00 0.00
0.00 0.00 0.00 0.00 0.00 0.00 0.00 0.00 0.00 0.00 0.00 0.00 0.00 0.00 0.00 0.00 0.00 0.00 0.00 0.00 0.00 0.00 0.00 0.00 0.00 0.00 0.00 0.00 0.01 0.03 0.04 0.05 0.09 0.13 0.12 0.06 0.01 0.00 0.00 0.00 0.00 0.00 0.00 0.00
0.00 0.00 0.00 0.00 0.00 0.00 0.00 0.00 0.00 0.00 0.00 0.00 0.00 0.00 0.00 0.00 0.00 0.00 0.00 0.00 0.00 0.00 0.00 0.00 0.00 0.00 0.01 0.04 0.06 0.04 0.02 0.03 0.04 0.02 0.01 0.00 0.00 0.00 0.00 0.00 0.00 0.00 0.00 0.00
0.00 0.00 0.00 0.00 0.00 0.00 0.00 0.00 0.00 0.00 0.00 0.00 0.00 0.00 0.00 0.00 0.00 0.00 0.00 0.00 0.00 0.00 0.00 0.00 0.04 0.08 0.09 0.04 0.01 0.01 0.01 0.01 0.01 0.00 0.00 0.00 0.00 0.00 0.00 0.00 0.00 0.00 0.00 0.00
0.00 0.00 0.00 0.00 0.00 0.00 0.00 0.00 0.00 0.00 0.00 0.00 0.00 0.00 0.00 0.00 0.00 0.00 0.00 0.00 0.00 0.01 0.03 0.08 0.07 0.04 0.02 0.01 0.01 0.01 0.00 0.00 0.00 0.00 0.00 0.00 0.00 0.00 0.00 0.00 0.00 0.00 0.00 0.00
0.00 0.00 0.00 0.00 0.00 0.00 0.00 0.00 0.00 0.00 0.00 0.00 0.00 0.00 0.00 0.00 0.00 0.00 0.00 0.01 0.04 0.11 0.12 0.05 0.02 0.02 0.02 0.01 0.00 0.00 0.00 0.00 0.00 0.00 0.00 0.02 0.03 0.02 0.01 0.00 0.00 0.00 0.00 0.00

GFSCGP_prec_precacc24_033.txt.gz
Total_Precipitation_Accumulation
0.00 0.00 0.00 0.00 0.00 0.00 0.00 0.00 0.00 0.00 0.00 0.00 0.00 0.00 0.00 0.00 0.01 0.01 0.03 0.01 0.01 0.00 0.01 0.03 0.05 0.06 0.03 0.01 0.14 0.23 0.42 0.49 0.23 0.10 0.09 0.05 0.03 0.02 0.01 0.00 0.00 0.00 0.00 0.00
0.00 0.00 0.00 0.00 0.00 0.00 0.00 0.00 0.00 0.00 0.00 0.00 0.00 0.00 0.00 0.00 0.00 0.00 0.00 0.00 0.00 0.00 0.00 0.01 0.01 0.01 0.04 0.10 0.26 0.37 0.25 0.13 0.03 0.03 0.03 0.02 0.01 0.00 0.00 0.00 0.00 0.00 0.00 0.00
0.00 0.00 0.00 0.00 0.00 0.00 0.00 0.00 0.00 0.00 0.00 0.00 0.00 0.00 0.00 0.00 0.00 0.00 0.00 0.00 0.00 0.00 0.00 0.00 0.00 0.01 0.05 0.06 0.08 0.23 0.12 0.05 0.00 0.00 0.01 0.01 0.00 0.00 0.00 0.00 0.00 0.00 0.00 0.00
0.00 0.00 0.00 0.00 0.00 0.00 0.00 0.00 0.00 0.00 0.00 0.00 0.00 0.00 0.02 0.01 0.00 0.00 0.00 0.01 0.00 0.00 0.00 0.00 0.00 0.00 0.03 0.03 0.05 0.22 0.13 0.05 0.03 0.02 0.00 0.02 0.04 0.01 0.00 0.00 0.00 0.00 0.00 0.00
0.02 0.00 0.00 0.00 0.00 0.00 0.01 0.00 0.00 0.00 0.00 0.05 0.02 0.00 0.03 0.02 0.00 0.00 0.00 0.00 0.00 0.00 0.01 0.01 0.01 0.00 0.00 0.06 0.07 0.19 0.15 0.15 0.07 0.05 0.05 0.11 0.04 0.00 0.00 0.00 0.00 0.00 0.00 0.00
0.00 0.00 0.01 0.01 0.00 0.00 0.00 0.00 0.00 0.00 0.00 0.01 0.01 0.01 0.01 0.01 0.01 0.04 0.02 0.00 0.00 0.00 0.02 0.02 0.01 0.01 0.01 0.02 0.10 0.16 0.11 0.15 0.08 0.06 0.07 0.05 0.02 0.00 0.00 0.00 0.00 0.00 0.00 0.00
0.00 0.00 0.00 0.00 0.00 0.00 0.00 0.00 0.00 0.02 0.00 0.00 0.00 0.01 0.02 0.01 0.06 0.16 0.09 0.00 0.00 0.00 0.00 0.01 0.00 0.00 0.01 0.02 0.15 0.13 0.04 0.07 0.04 0.01 0.01 0.00 0.00 0.00 0.00 0.00 0.00 0.00 0.00 0.00
0.00 0.00 0.00 0.00 0.00 0.01 0.00 0.00 0.00 0.07 0.03 0.00 0.02 0.02 0.00 0.00 0.00 0.00 0.00 0.00 0.00 0.00 0.00 0.00 0.00 0.00 0.06 0.06 0.11 0.20 0.06 0.03 0.00 0.00 0.01 0.02 0.04 0.04 0.05 0.03 0.00 0.00 0.00 0.00
0.04 0.01 0.01 0.00 0.00 0.00 0.00 0.00 0.00 0.00 0.00 0.00 0.00 0.00 0.00 0.00 0.00 0.00 0.00 0.00 0.00 0.00 0.00 0.00 0.00 0.01 0.05 0.08 0.10 0.06 0.02 0.01 0.01 0.01 0.00 0.01 0.02 0.02 0.02 0.01 0.00 0.00 0.00 0.00
0.06 0.16 0.03 0.00 0.00 0.00 0.00 0.00 0.00 0.00 0.00 0.00 0.00 0.00 0.00 0.00 0.00 0.00 0.00 0.00 0.00 0.00 0.00 0.00 0.00 0.00 0.01 0.02 0.04 0.02 0.00 0.00 0.00 0.01 0.01 0.00 0.00 0.00 0.00 0.00 0.00 0.00 0.00 0.00
0.00 0.02 0.03 0.00 0.00 0.00 0.00 0.00 0.00 0.00 0.00 0.00 0.00 0.00 0.00 0.00 0.00 0.00 0.00 0.00 0.00 0.00 0.00 0.00 0.00 0.00 0.00 0.00 0.00 0.00 0.00 0.00 0.00 0.00 0.00 0.00 0.00 0.00 0.00 0.00 0.00 0.00 0.00 0.00
0.00 0.00 0.00 0.00 0.00 0.00 0.00 0.01 0.03 0.00 0.00 0.00 0.00 0.00 0.00 0.00 0.00 0.00 0.00 0.00 0.00 0.00 0.00 0.00 0.00 0.00 0.00 0.00 0.00 0.00 0.00 0.00 0.00 0.01 0.01 0.01 0.00 0.00 0.00 0.00 0.00 0.00 0.00 0.00
0.00 0.00 0.00 0.00 0.00 0.00 0.00 0.00 0.00 0.00 0.00 0.00 0.00 0.00 0.00 0.00 0.00 0.00 0.00 0.00 0.00 0.00 0.00 0.00 0.00 0.00 0.00 0.00 0.00 0.01 0.01 0.01 0.01 0.01 0.01 0.00 0.00 0.00 0.00 0.00 0.00 0.00 0.00 0.00
0.00 0.00 0.00 0.00 0.00 0.00 0.00 0.00 0.00 0.00 0.00 0.00 0.00 0.00 0.00 0.00 0.00 0.00 0.00 0.00 0.00 0.00 0.00 0.00 0.00 0.00 0.00 0.01 0.01 0.01 0.02 0.02 0.02 0.01 0.00 0.00 0.00 0.00 0.00 0.00 0.00 0.00 0.00 0.00
0.00 0.00 0.00 0.00 0.00 0.00 0.00 0.00 0.00 0.00 0.00 0.00 0.00 0.00 0.00 0.00 0.00 0.00 0.00 0.00 0.00 0.00 0.00 0.01 0.01 0.01 0.00 0.02 0.02 0.03 0.02 0.02 0.01 0.00 0.00 0.00 0.00 0.00 0.00 0.00 0.00 0.00 0.00 0.00
0.00 0.00 0.00 0.00 0.00 0.00 0.00 0.00 0.00 0.00 0.00 0.00 0.00 0.00 0.00 0.00 0.00 0.00 0.00 0.00 0.00 0.00 0.00 0.00 0.00 0.02 0.01 0.01 0.01 0.03 0.02 0.01 0.01 0.00 0.00 0.00 0.00 0.00 0.00 0.00 0.00 0.00 0.00 0.00
0.00 0.00 0.00 0.00 0.00 0.00 0.00 0.00 0.00 0.00 0.00 0.00 0.00 0.00 0.00 0.00 0.00 0.00 0.00 0.00 0.00 0.00 0.00 0.00 0.00 0.00 0.01 0.01 0.00 0.00 0.00 0.00 0.00 0.00 0.00 0.00 0.00 0.00 0.00 0.00 0.00 0.00 0.01 0.02
0.01 0.00 0.00 0.00 0.00 0.00 0.00 0.00 0.00 0.00 0.00 0.00 0.00 0.00 0.00 0.00 0.00 0.00 0.00 0.00 0.00 0.00 0.00 0.00 0.00 0.00 0.00 0.00 0.00 0.00 0.01 0.01 0.00 0.00 0.00 0.00 0.00 0.00 0.00 0.00 0.02 0.05 0.05 0.03
0.03 0.01 0.00 0.00 0.00 0.00 0.00 0.00 0.00 0.00 0.00 0.00 0.00 0.00 0.00 0.00 0.00 0.00 0.00 0.00 0.00 0.00 0.00 0.00 0.00 0.00 0.00 0.00 0.00 0.00 0.00 0.00 0.00 0.00 0.00 0.00 0.00 0.01 0.05 0.11 0.12 0.08 0.03 0.01
0.00 0.00 0.00 0.00 0.00 0.00 0.00 0.00 0.00 0.00 0.00 0.00 0.00 0.00 0.00 0.00 0.00 0.00 0.00 0.00 0.00 0.00 0.00 0.00 0.00 0.00 0.00 0.00 0.00 0.00 0.00 0.00 0.00 0.00 0.00 0.02 0.10 0.20 0.22 0.16 0.07 0.01 0.00 0.00
0.00 0.00 0.00 0.00 0.00 0.00 0.00 0.00 0.00 0.00 0.00 0.00 0.00 0.00 0.00 0.00 0.00 0.00 0.00 0.00 0.00 0.00 0.00 0.00 0.00 0.00 0.00 0.00 0.00 0.00 0.00 0.01 0.04 0.08 0.15 0.23 0.26 0.18 0.09 0.03 0.00 0.00 0.00 0.00
0.00 0.00 0.00 0.00 0.00 0.00 0.00 0.00 0.00 0.00 0.00 0.00 0.00 0.00 0.00 0.00 0.00 0.00 0.00 0.00 0.00 0.00 0.00 0.00 0.00 0.00 0.00 0.00 0.01 0.03 0.04 0.05 0.09 0.13 0.15 0.10 0.03 0.00 0.00 0.00 0.00 0.00 0.00 0.00
0.00 0.00 0.00 0.00 0.00 0.00 0.00 0.00 0.00 0.00 0.00 0.00 0.00 0.00 0.00 0.00 0.00 0.00 0.00 0.00 0.00 0.00 0.00 0.00 0.00 0.00 0.01 0.04 0.06 0.04 0.02 0.03 0.04 0.02 0.01 0.00 0.00 0.00 0.00 0.00 0.00 0.00 0.00 0.00
0.00 0.00 0.00 0.00 0.00 0.00 0.00 0.00 0.00 0.00 0.00 0.00 0.00 0.00 0.00 0.00 0.00 0.00 0.00 0.00 0.00 0.00 0.00 0.00 0.04 0.08 0.09 0.04 0.01 0.01 0.01 0.01 0.01 0.00 0.00 0.00 0.00 0.00 0.00 0.00 0.00 0.00 0.00 0.00
0.00 0.00 0.00 0.00 0.00 0.00 0.00 0.00 0.00 0.00 0.00 0.00 0.00 0.00 0.00 0.00 0.00 0.00 0.00 0.00 0.00 0.01 0.03 0.08 0.07 0.04 0.02 0.01 0.01 0.01 0.00 0.00 0.00 0.00 0.00 0.00 0.00 0.00 0.00 0.00 0.00 0.00 0.00 0.00
0.00 0.00 0.00 0.00 0.00 0.00 0.00 0.00 0.00 0.00 0.00 0.00 0.00 0.00 0.00 0.00 0.00 0.00 0.00 0.01 0.04 0.11 0.12 0.05 0.02 0.02 0.02 0.01 0.00 0.00 0.00 0.00 0.00 0.00 0.00 0.00 0.01 0.02 0.01 0.00 0.00 0.00 0.00 0.00

GFSCGP_prec_precacc24_036.txt.gz
Total_Precipitation_Accumulation
0.00 0.00 0.00 0.00 0.00 0.00 0.00 0.00 0.00 0.00 0.00 0.00 0.00 0.00 0.00 0.00 0.01 0.01 0.03 0.01 0.01 0.00 0.01 0.01 0.02 0.03 0.02 0.00 0.06 0.09 0.22 0.37 0.17 0.09 0.06 0.02 0.02 0.04 0.01 0.01 0.00 0.00 0.00 0.00
0.00 0.00 0.00 0.00 0.00 0.00 0.00 0.00 0.00 0.00 0.00 0.00 0.00 0.00 0.00 0.00 0.00 0.00 0.00 0.00 0.00 0.00 0.00 0.00 0.00 0.01 0.03 0.07 0.15 0.24 0.19 0.11 0.02 0.03 0.01 0.00 0.00 0.01 0.00 0.00 0.00 0.00 0.00 0.00
0.00 0.00 0.00 0.00 0.00 0.00 0.00 0.00 0.00 0.00 0.00 0.00 0.00 0.00 0.00 0.00 0.00 0.00 0.00 0.00 0.00 0.00 0.00 0.00 0.00 0.01 0.04 0.04 0.05 0.22 0.12 0.05 0.00 0.00 0.00 0.01 0.01 0.00 0.00 0.00 0.00 0.00 0.00 0.00
0.00 0.00 0.00 0.00 0.00 0.00 0.00 0.00 0.00 0.00 0.00 0.00 0.00 0.00 0.02 0.01 0.00 0.00 0.00 0.01 0.00 0.00 0.00 0.00 0.00 0.00 0.03 0.03 0.05 0.22 0.13 0.05 0.03 0.03 0.00 0.02 0.06 0.02 0.00 0.00 0.00 0.00 0.00 0.00
0.02 0.00 0.00 0.00 0.00 0.00 0.01 0.00 0.00 0.00 0.00 0.05 0.02 0.00 0.03 0.02 0.00 0.00 0.00 0.00 0.00 0.00 0.01 0.01 0.01 0.00 0.00 0.06 0.08 0.19 0.15 0.15 0.07 0.06 0.07 0.15 0.11 0.08 0.03 0.00 0.00 0.00 0.00 0.00
0.00 0.00 0.01 0.01 0.00 0.00 0.00 0.00 0.00 0.00 0.00 0.01 0.01 0.01 0.01 0.01 0.01 0.04 0.02 0.00 0.00 0.00 0.02 0.02 0.01 0.01 0.01 0.02 0.11 0.18 0.13 0.18 0.10 0.08 0.13 0.11 0.08 0.06 0.03 0.01 0.00 0.00 0.00 0.00
0.00 0.00 0.00 0.00 0.00 0.00 0.00 0.00 0.00 0.02 0.00 0.00 0.00 0.01 0.02 0.01 0.06 0.16 0.09 0.00 0.00 0.00 0.00 0.01 0.00 0.00 0.02 0.02 0.15 0.18 0.15 0.16 0.10 0.10 0.04 0.06 0.08 0.05 0.03 0.01 0.01 0.00 0.00 0.00
0.00 0.00 0.00 0.00 0.00 0.01 0.00 0.00 0.00 0.07 0.03 0.00 0.02 0.02 0.00 0.00 0.00 0.00 0.00 0.00 0.00 0.00 0.00 0.00 0.00 0.01 0.08 0.07 0.12 0.26 0.23 0.24 0.15 0.09 0.08 0.07 0.11 0.10 0.11 0.07 0.03 0.01 0.01 0.00
0.04 0.01 0.01 0.00 0.00 0.00 0.00 0.00 0.00 0.00 0.00 0.00 0.00 0.00 0.00 0.00 0.00 0.00 0.00 0.00 0.00 0.00 0.00 0.00 0.00 0.01 0.06 0.09 0.11 0.16 0.12 0.15 0.09 0.06 0.04 0.04 0.05 0.10 0.09 0.09 0.04 0.01 0.00 0.00
0.06 0.16 0.03 0.00 0.00 0.00 0.00 0.00 0.00 0.00 0.00 0.00 0.00 0.00 0.00 0.00 0.00 0.00 0.00 0.00 0.00 0.00 0.00 0.00 0.00 0.00 0.01 0.03 0.05 0.10 0.04 0.01 0.03 0.03 0.02 0.02 0.04 0.07 0.05 0.03 0.01 0.00 0.00 0.00
0.00 0.02 0.03 0.00 0.00 0.00 0.00 0.00 0.00 0.00 0.00 0.00 0.00 0.00 0.00 0.00 0.00 0.00 0.00 0.00 0.00 0.00 0.00 0.00 0.00 0.00 0.00 0.00 0.00 0.00 0.00 0.00 0.01 0.01 0.01 0.01 0.04 0.07 0.05 0.03 0.01 0.00 0.00 0.00
0.00 0.00 0.00 0.00 0.00 0.00 0.00 0.01 0.03 0.00 0.00 0.00 0.00 0.00 0.00 0.00 0.00 0.00 0.00 0.00 0.00 0.00 0.00 0.00 0.00 0.00 0.00 0.00 0.00 0.01 0.02 0.02 0.04 0.04 0.05 0.05 0.04 0.03 0.01 0.00 0.00 0.00 0.00 0.00
0.00 0.00 0.00 0.00 0.00 0.00 0.00 0.00 0.00 0.00 0.00 0.00 0.00 0.00 0.00 0.00 0.00 0.00 0.00 0.00 0.00 0.00 0.00 0.00 0.00 0.00 0.00 0.01 0.05 0.06 0.05 0.04 0.05 0.06 0.06 0.03 0.01 0.01 0.00 0.00 0.00 0.00 0.00 0.00
0.00 0.00 0.00 0.00 0.00 0.00 0.00 0.00 0.00 0.00 0.00 0.00 0.00 0.00 0.00 0.00 0.00 0.00 0.00 0.00 0.00 0.00 0.00 0.00 0.00 0.00 0.01 0.08 0.07 0.04 0.05 0.05 0.06 0.04 0.02 0.01 0.01 0.00 0.00 0.00 0.00 0.00 0.00 0.00
0.00 0.00 0.00 0.00 0.00 0.00 0.00 0.00 0.00 0.00 0.00 0.00 0.00 0.00 0.00 0.00 0.00 0.00 0.00 0.00 0.00 0.00 0.00 0.01 0.01 0.01 0.02 0.06 0.04 0.05 0.04 0.04 0.03 0.01 0.00 0.01 0.00 0.00 0.00 0.00 0.00 0.00 0.00 0.00
0.00 0.00 0.00 0.00 0.00 0.00 0.00 0.00 0.00 0.00 0.00 0.00 0.00 0.00 0.00 0.00 0.00 0.00 0.00 0.00 0.00 0.00 0.00 0.00 0.00 0.02 0.02 0.02 0.02 0.04 0.02 0.01 0.01 0.01 0.00 0.00 0.00 0.00 0.00 0.00 0.00 0.00 0.00 0.00
0.00 0.00 0.00 0.00 0.00 0.00 0.00 0.00 0.00 0.00 0.00 0.00 0.00 0.00 0.00 0.00 0.00 0.00 0.00 0.00 0.00 0.00 0.00 0.00 0.00 0.00 0.01 0.01 0.00 0.00 0.00 0.00 0.00 0.00 0.00 0.01 0.00 0.00 0.00 0.00 0.00 0.00 0.01 0.04
0.01 0.00 0.00 0.00 0.00 0.00 0.00 0.00 0.00 0.00 0.00 0.00 0.00 0.00 0.00 0.00 0.00 0.00 0.00 0.00 0.00 0.00 0.00 0.00 0.00 0.00 0.00 0.00 0.00 0.00 0.01 0.01 0.00 0.00 0.00 0.00 0.00 0.00 0.00 0.00 0.02 0.06 0.10 0.14
0.03 0.01 0.00 0.00 0.00 0.00 0.00 0.00 0.00 0.00 0.00 0.00 0.00 0.00 0.00 0.00 0.00 0.00 0.00 0.00 0.00 0.00 0.00 0.00 0.00 0.00 0.00 0.00 0.00 0.00 0.00 0.00 0.00 0.00 0.00 0.00 0.00 0.01 0.06 0.14 0.19 0.19 0.14 0.05
0.00 0.00 0.00 0.00 0.00 0.00 0.00 0.00 0.00 0.00 0.00 0.00 0.00 0.00 0.00 0.00 0.00 0.00 0.00 0.00 0.00 0.00 0.00 0.00 0.00 0.00 0.00 0.00 0.00 0.00 0.00 0.00 0.00 0.00 0.00 0.03 0.10 0.22 0.28 0.23 0.13 0.05 0.02 0.00
0.00 0.00 0.00 0.00 0.00 0.00 0.00 0.00 0.00 0.00 0.00 0.00 0.00 0.00 0.00 0.00 0.00 0.00 0.00 0.00 0.00 0.00 0.00 0.00 0.00 0.00 0.00 0.00 0.00 0.00 0.00 0.01 0.04 0.08 0.15 0.24 0.29 0.23 0.13 0.06 0.01 0.00 0.00 0.00
0.00 0.00 0.00 0.00 0.00 0.00 0.00 0.00 0.00 0.00 0.00 0.00 0.00 0.00 0.00 0.00 0.00 0.00 0.00 0.00 0.00 0.00 0.00 0.00 0.00 0.00 0.00 0.00 0.01 0.03 0.04 0.05 0.09 0.14 0.16 0.12 0.04 0.00 0.00 0.00 0.00 0.00 0.00 0.00
0.00 0.00 0.00 0.00 0.00 0.00 0.00 0.00 0.00 0.00 0.00 0.00 0.00 0.00 0.00 0.00 0.00 0.00 0.00 0.00 0.00 0.00 0.00 0.00 0.00 0.00 0.01 0.04 0.06 0.04 0.02 0.03 0.04 0.02 0.01 0.00 0.00 0.00 0.00 0.00 0.00 0.00 0.00 0.00
0.00 0.00 0.00 0.00 0.00 0.00 0.00 0.00 0.00 0.00 0.00 0.00 0.00 0.00 0.00 0.00 0.00 0.00 0.00 0.00 0.00 0.00 0.00 0.00 0.04 0.08 0.09 0.04 0.01 0.01 0.01 0.01 0.01 0.00 0.00 0.00 0.00 0.00 0.00 0.00 0.00 0.00 0.00 0.00
0.00 0.00 0.00 0.00 0.00 0.00 0.00 0.00 0.00 0.00 0.00 0.00 0.00 0.00 0.00 0.00 0.00 0.00 0.00 0.00 0.00 0.01 0.03 0.08 0.07 0.04 0.02 0.01 0.01 0.01 0.00 0.00 0.00 0.00 0.00 0.00 0.00 0.00 0.00 0.00 0.00 0.00 0.00 0.00
0.00 0.00 0.00 0.00 0.00 0.00 0.00 0.00 0.00 0.00 0.00 0.00 0.00 0.00 0.00 0.00 0.00 0.00 0.00 0.01 0.03 0.11 0.12 0.05 0.02 0.02 0.02 0.01 0.00 0.00 0.00 0.00 0.00 0.00 0.00 0.00 0.00 0.00 0.00 0.00 0.00 0.00 0.00 0.00

GFSCGP_prec_precacc24_039.txt.gz
Total_Precipitation_Accumulation
0.00 0.00 0.00 0.00 0.00 0.00 0.00 0.00 0.00 0.00 0.00 0.00 0.00 0.00 0.00 0.00 0.01 0.01 0.03 0.01 0.01 0.00 0.00 0.00 0.00 0.00 0.00 0.00 0.05 0.05 0.11 0.25 0.14 0.08 0.06 0.01 0.01 0.05 0.07 0.07 0.03 0.00 0.00 0.00
0.00 0.00 0.00 0.00 0.00 0.00 0.00 0.00 0.00 0.00 0.00 0.00 0.00 0.00 0.00 0.00 0.00 0.00 0.00 0.00 0.00 0.00 0.00 0.00 0.00 0.00 0.01 0.03 0.08 0.19 0.16 0.10 0.02 0.03 0.01 0.00 0.00 0.02 0.04 0.05 0.00 0.00 0.00 0.00
0.00 0.00 0.00 0.00 0.00 0.00 0.00 0.00 0.00 0.00 0.00 0.00 0.00 0.00 0.00 0.00 0.00 0.00 0.00 0.00 0.00 0.00 0.00 0.00 0.00 0.00 0.00 0.01 0.04 0.22 0.12 0.05 0.00 0.00 0.00 0.01 0.01 0.01 0.05 0.03 0.00 0.00 0.00 0.00
0.00 0.00 0.00 0.00 0.00 0.00 0.00 0.00 0.00 0.00 0.00 0.00 0.00 0.00 0.02 0.01 0.00 0.00 0.00 0.01 0.00 0.00 0.00 0.00 0.00 0.00 0.03 0.03 0.05 0.22 0.13 0.05 0.03 0.03 0.00 0.02 0.06 0.03 0.03 0.01 0.00 0.00 0.00 0.00
0.02 0.00 0.00 0.00 0.00 0.00 0.01 0.00 0.00 0.00 0.00 0.05 0.02 0.00 0.03 0.02 0.00 0.00 0.00 0.00 0.00 0.00 0.01 0.01 0.01 0.00 0.00 0.06 0.08 0.19 0.15 0.15 0.08 0.08 0.08 0.17 0.11 0.11 0.08 0.01 0.00 0.00 0.00 0.00
0.00 0.00 0.01 0.01 0.00 0.00 0.00 0.00 0.00 0.00 0.00 0.01 0.01 0.01 0.01 0.01 0.01 0.04 0.02 0.00 0.00 0.00 0.02 0.02 0.01 0.01 0.01 0.02 0.11 0.18 0.13 0.20 0.22 0.23 0.14 0.11 0.08 0.07 0.04 0.02 0.01 0.00 0.00 0.00
0.00 0.00 0.00 0.00 0.00 0.00 0.00 0.00 0.00 0.02 0.00 0.00 0.00 0.01 0.02 0.01 0.06 0.16 0.09 0.00 0.00 0.00 0.00 0.01 0.00 0.00 0.02 0.02 0.15 0.18 0.15 0.20 0.21 0.20 0.08 0.13 0.12 0.06 0.04 0.03 0.04 0.03 0.02 0.01
0.00 0.00 0.00 0.00 0.00 0.01 0.00 0.00 0.00 0.07 0.03 0.00 0.02 0.02 0.00 0.00 0.00 0.00 0.00 0.00 0.00 0.00 0.00 0.00 0.00 0.01 0.08 0.07 0.12 0.26 0.23 0.30 0.19 0.10 0.10 0.13 0.15 0.13 0.15 0.11 0.08 0.04 0.02 0.01
0.04 0.01 0.01 0.00 0.00 0.00 0.00 0.00 0.00 0.00 0.00 0.00 0.00 0.00 0.00 0.00 0.00 0.00 0.00 0.00 0.00 0.00 0.00 0.00 0.00 0.01 0.06 0.10 0.12 0.16 0.12 0.24 0.20 0.19 0.10 0.08 0.09 0.14 0.14 0.13 0.07 0.03 0.01 0.01
0.06 0.16 0.03 0.00 0.00 0.00 0.00 0.00 0.00 0.00 0.00 0.00 0.00 0.00 0.00 0.00 0.00 0.00 0.00 0.00 0.00 0.00 0.00 0.00 0.00 0.00 0.01 0.03 0.05 0.15 0.06 0.02 0.07 0.09 0.07 0.05 0.07 0.11 0.11 0.08 0.05 0.03 0.02 0.01
0.00 0.02 0.03 0.00 0.00 0.00 0.00 0.00 0.00 0.00 0.00 0.00 0.00 0.00 0.00 0.00 0.00 0.00 0.00 0.00 0.00 0.00 0.00 0.00 0.00 0.00 0.00 0.00 0.00 0.00 0.01 0.01 0.02 0.04 0.04 0.05 0.09 0.14 0.14 0.15 0.08 0.04 0.01 0.00
0.00 0.00 0.00 0.00 0.00 0.00 0.00 0.01 0.03 0.00 0.00 0.00 0.00 0.00 0.00 0.00 0.00 0.00 0.00 0.00 0.00 0.00 0.00 0.00 0.00 0.00 0.00 0.00 0.00 0.01 0.02 0.03 0.05 0.08 0.09 0.10 0.11 0.11 0.11 0.08 0.04 0.01 0.00 0.00
0.00 0.00 0.00 0.00 0.00 0.00 0.00 0.00 0.00 0.00 0.00 0.00 0.00 0.00 0.00 0.00 0.00 0.00 0.00 0.00 0.00 0.00 0.00 0.00 0.00 0.00 0.00 0.01 0.05 0.08 0.08 0.10 0.09 0.11 0.10 0.08 0.06 0.07 0.06 0.04 0.01 0.00 0.00 0.00
0.00 0.00 0.00 0.00 0.00 0.00 0.00 0.00 0.00 0.00 0.00 0.00 0.00 0.00 0.00 0.00 0.00 0.00 0.00 0.00 0.00 0.00 0.00 0.00 0.00 0.00 0.01 0.08 0.09 0.09 0.09 0.11 0.12 0.09 0.05 0.04 0.04 0.03 0.02 0.01 0.00 0.00 0.00 0.00
0.00 0.00 0.00 0.00 0.00 0.00 0.00 0.00 0.00 0.00 0.00 0.00 0.00 0.00 0.00 0.00 0.00 0.00 0.00 0.00 0.00 0.00 0.00 0.01 0.01 0.01 0.02 0.06 0.05 0.07 0.06 0.06 0.04 0.02 0.01 0.01 0.01 0.00 0.00 0.00 0.00 0.00 0.00 0.00
0.00 0.00 0.00 0.00 0.00 0.00 0.00 0.00 0.00 0.00 0.00 0.00 0.00 0.00 0.00 0.00 0.00 0.00 0.00 0.00 0.00 0.00 0.00 0.00 0.00 0.02 0.02 0.02 0.02 0.04 0.02 0.01 0.01 0.01 0.00 0.01 0.00 0.00 0.00 0.00 0.00 0.00 0.00 0.00
0.00 0.00 0.00 0.00 0.00 0.00 0.00 0.00 0.00 0.00 0.00 0.00 0.00 0.00 0.00 0.00 0.00 0.00 0.00 0.00 0.00 0.00 0.00 0.00 0.00 0.00 0.01 0.01 0.00 0.00 0.00 0.00 0.00 0.00 0.00 0.01 0.00 0.00 0.00 0.00 0.00 0.00 0.02 0.05
0.01 0.00 0.00 0.00 0.00 0.00 0.00 0.00 0.00 0.00 0.00 0.00 0.00 0.00 0.00 0.00 0.00 0.00 0.00 0.00 0.00 0.00 0.00 0.00 0.00 0.00 0.00 0.00 0.00 0.00 0.01 0.01 0.00 0.00 0.00 0.00 0.00 0.00 0.00 0.01 0.03 0.08 0.16 0.22
0.03 0.01 0.00 0.00 0.00 0.00 0.00 0.00 0.00 0.00 0.00 0.00 0.00 0.00 0.00 0.00 0.00 0.00 0.00 0.00 0.00 0.00 0.00 0.00 0.00 0.00 0.00 0.00 0.00 0.00 0.00 0.00 0.00 0.00 0.00 0.00 0.00 0.01 0.07 0.16 0.24 0.24 0.16 0.06
0.00 0.00 0.00 0.00 0.00 0.00 0.00 0.00 0.00 0.00 0.00 0.00 0.00 0.00 0.00 0.00 0.00 0.00 0.00 0.00 0.00 0.00 0.00 0.00 0.00 0.00 0.00 0.00 0.00 0.00 0.00 0.00 0.00 0.00 0.00 0.03 0.10 0.22 0.28 0.23 0.13 0.05 0.02 0.01
0.00 0.00 0.00 0.00 0.00 0.00 0.00 0.00 0.00 0.00 0.00 0.00 0.00 0.00 0.00 0.00 0.00 0.00 0.00 0.00 0.00 0.00 0.00 0.00 0.00 0.00 0.00 0.00 0.00 0.00 0.00 0.01 0.04 0.08 0.15 0.24 0.29 0.23 0.14 0.06 0.01 0.00 0.00 0.00
0.00 0.00 0.00 0.00 0.00 0.00 0.00 0.00 0.00 0.00 0.00 0.00 0.00 0.00 0.00 0.00 0.00 0.00 0.00 0.00 0.00 0.00 0.00 0.00 0.00 0.00 0.00 0.00 0.01 0.03 0.04 0.05 0.09 0.14 0.16 0.12 0.04 0.00 0.00 0.00 0.00 0.00 0.00 0.00
0.00 0.00 0.00 0.00 0.00 0.00 0.00 0.00 0.00 0.00 0.00 0.00 0.00 0.00 0.00 0.00 0.00 0.00 0.00 0.00 0.00 0.00 0.00 0.00 0.00 0.00 0.01 0.04 0.06 0.04 0.02 0.03 0.04 0.02 0.01 0.00 0.00 0.00 0.00 0.00 0.00 0.00 0.00 0.00
0.00 0.00 0.00 0.00 0.00 0.00 0.00 0.00 0.00 0.00 0.00 0.00 0.00 0.00 0.00 0.00 0.00 0.00 0.00 0.00 0.00 0.00 0.00 0.00 0.04 0.08 0.09 0.04 0.01 0.01 0.01 0.01 0.01 0.00 0.00 0.00 0.00 0.00 0.00 0.00 0.00 0.00 0.00 0.00
0.00 0.00 0.00 0.00 0.00 0.00 0.00 0.00 0.00 0.00 0.00 0.00 0.00 0.00 0.00 0.00 0.00 0.00 0.00 0.00 0.00 0.00 0.02 0.08 0.07 0.04 0.02 0.01 0.01 0.01 0.00 0.00 0.00 0.00 0.00 0.00 0.00 0.00 0.00 0.00 0.00 0.00 0.00 0.00
0.00 0.00 0.00 0.00 0.00 0.00 0.00 0.00 0.00 0.00 0.00 0.00 0.00 0.00 0.00 0.00 0.00 0.00 0.00 0.00 0.01 0.07 0.12 0.05 0.02 0.02 0.02 0.01 0.00 0.00 0.00 0.00 0.00 0.00 0.00 0.00 0.00 0.00 0.00 0.00 0.00 0.00 0.00 0.00

GFSCGP_prec_precacc24_042.txt.gz
Total_Precipitation_Accumulation
0.00 0.00 0.00 0.00 0.00 0.00 0.00 0.00 0.00 0.00 0.00 0.00 0.00 0.00 0.00 0.00 0.01 0.01 0.03 0.01 0.01 0.00 0.00 0.00 0.00 0.00 0.00 0.00 0.05 0.05 0.08 0.17 0.09 0.08 0.05 0.01 0.01 0.05 0.08 0.09 0.06 0.03 0.01 0.00
0.00 0.00 0.00 0.00 0.00 0.00 0.00 0.00 0.00 0.00 0.00 0.00 0.00 0.00 0.00 0.00 0.00 0.00 0.00 0.00 0.00 0.00 0.00 0.00 0.00 0.00 0.01 0.02 0.07 0.19 0.16 0.09 0.02 0.03 0.01 0.00 0.00 0.02 0.04 0.07 0.02 0.01 0.01 0.00
0.00 0.00 0.00 0.00 0.00 0.00 0.00 0.00 0.00 0.00 0.00 0.00 0.00 0.00 0.00 0.00 0.00 0.00 0.00 0.00 0.00 0.00 0.00 0.00 0.00 0.00 0.00 0.01 0.04 0.22 0.12 0.05 0.00 0.00 0.00 0.01 0.01 0.01 0.06 0.07 0.08 0.04 0.02 0.00
0.00 0.00 0.00 0.00 0.00 0.00 0.00 0.00 0.00 0.00 0.00 0.00 0.00 0.00 0.02 0.01 0.00 0.00 0.00 0.01 0.00 0.00 0.00 0.00 0.00 0.00 0.03 0.03 0.05 0.22 0.13 0.05 0.03 0.03 0.00 0.02 0.06 0.03 0.04 0.04 0.03 0.02 0.01 0.00
0.02 0.00 0.00 0.00 0.00 0.00 0.01 0.00 0.00 0.00 0.00 0.05 0.02 0.00 0.03 0.02 0.00 0.00 0.00 0.00 0.00 0.00 0.01 0.01 0.01 0.00 0.00 0.06 0.08 0.19 0.15 0.15 0.08 0.08 0.11 0.19 0.14 0.12 0.11 0.03 0.01 0.02 0.02 0.02
0.00 0.00 0.01 0.01 0.00 0.00 0.00 0.00 0.00 0.00 0.00 0.01 0.01 0.01 0.01 0.01 0.01 0.04 0.02 0.00 0.00 0.00 0.02 0.02 0.01 0.01 0.01 0.02 0.11 0.18 0.13 0.20 0.22 0.26 0.19 0.16 0.13 0.08 0.08 0.03 0.02 0.01 0.01 0.02
0.00 0.00 0.00 0.00 0.00 0.00 0.00 0.00 0.00 0.02 0.00 0.00 0.00 0.01 0.02 0.01 0.06 0.16 0.09 0.00 0.00 0.00 0.00 0.01 0.00 0.00 0.02 0.02 0.15 0.18 0.15 0.20 0.22 0.28 0.14 0.16 0.17 0.12 0.12 0.08 0.06 0.05 0.06 0.06
0.00 0.00 0.00 0.00 0.00 0.01 0.00 0.00 0.00 0.07 0.03 0.00 0.02 0.02 0.00 0.00 0.00 0.00 0.00 0.00 0.00 0.00 0.00 0.00 0.00 0.01 0.08 0.07 0.12 0.26 0.23 0.30 0.22 0.14 0.14 0.16 0.24 0.29 0.30 0.20 0.14 0.08 0.06 0.03
0.04 0.01 0.01 0.00 0.00 0.00 0.00 0.00 0.00 0.00 0.00 0.00 0.00 0.00 0.00 0.00 0.00 0.00 0.00 0.00 0.00 0.00 0.00 0.00 0.00 0.01 0.06 0.10 0.12 0.16 0.12 0.24 0.23 0.24 0.21 0.11 0.12 0.17 0.16 0.15 0.08 0.05 0.03 0.01
0.06 0.16 0.03 0.00 0.00 0.00 0.00 0.00 0.00 0.00 0.00 0.00 0.00 0.00 0.00 0.00 0.00 0.00 0.00 0.00 0.00 0.00 0.00 0.00 0.00 0.00 0.01 0.03 0.05 0.15 0.06 0.02 0.10 0.19 0.20 0.11 0.08 0.11 0.11 0.09 0.09 0.07 0.04 0.02
0.00 0.02 0.03 0.00 0.00 0.00 0.00 0.00 0.00 0.00 0.00 0.00 0.00 0.00 0.00 0.00 0.00 0.00 0.00 0.00 0.00 0.00 0.00 0.00 0.00 0.00 0.00 0.00 0.00 0.00 0.01 0.01 0.02 0.04 0.05 0.05 0.10 0.15 0.17 0.19 0.12 0.07 0.04 0.01
0.00 0.00 0.00 0.00 0.00 0.00 0.00 0.01 0.03 0.00 0.00 0.00 0.00 0.00 0.00 0.00 0.00 0.00 0.00 0.00 0.00 0.00 0.00 0.00 0.00 0.00 0.00 0.00 0.00 0.01 0.02 0.03 0.06 0.08 0.10 0.11 0.13 0.13 0.13 0.12 0.09 0.05 0.02 0.01
0.00 0.00 0.00 0.00 0.00 0.00 0.00 0.00 0.00 0.00 0.00 0.00 0.00 0.00 0.00 0.00 0.00 0.00 0.00 0.00 0.00 0.00 0.00 0.00 0.00 0.00 0.00 0.01 0.05 0.08 0.08 0.10 0.09 0.11 0.10 0.08 0.06 0.09 0.11 0.10 0.07 0.03 0.01 0.01
0.00 0.00 0.00 0.00 0.00 0.00 0.00 0.00 0.00 0.00 0.00 0.00 0.00 0.00 0.00 0.00 0.00 0.00 0.00 0.00 0.00 0.00 0.00 0.00 0.00 0.00 0.01 0.08 0.09 0.08 0.09 0.11 0.12 0.09 0.05 0.04 0.04 0.03 0.02 0.02 0.01 0.00 0.00 0.00
0.00 0.00 0.00 0.00 0.00 0.00 0.00 0.00 0.00 0.00 0.00 0.00 0.00 0.00 0.00 0.00 0.00 0.00 0.00 0.00 0.00 0.00 0.00 0.01 0.01 0.01 0.02 0.06 0.05 0.07 0.06 0.06 0.05 0.03 0.02 0.02 0.01 0.01 0.00 0.00 0.00 0.00 0.00 0.00
0.00 0.00 0.00 0.00 0.00 0.00 0.00 0.00 0.00 0.00 0.00 0.00 0.00 0.00 0.00 0.00 0.00 0.00 0.00 0.00 0.00 0.00 0.00 0.00 0.00 0.02 0.02 0.02 0.02 0.05 0.03 0.02 0.02 0.01 0.00 0.01 0.00 0.00 0.00 0.00 0.00 0.00 0.00 0.00
0.00 0.00 0.00 0.00 0.00 0.00 0.00 0.00 0.00 0.00 0.00 0.00 0.00 0.00 0.00 0.00 0.00 0.00 0.00 0.00 0.00 0.00 0.00 0.00 0.00 0.00 0.01 0.01 0.00 0.00 0.00 0.00 0.00 0.00 0.00 0.01 0.00 0.00 0.00 0.00 0.00 0.00 0.03 0.07
0.01 0.00 0.00 0.00 0.00 0.00 0.00 0.00 0.00 0.00 0.00 0.00 0.00 0.00 0.00 0.00 0.00 0.00 0.00 0.00 0.00 0.00 0.00 0.00 0.00 0.00 0.00 0.00 0.00 0.00 0.01 0.01 0.00 0.00 0.00 0.00 0.00 0.00 0.00 0.01 0.03 0.09 0.17 0.23
0.03 0.01 0.00 0.00 0.00 0.00 0.00 0.00 0.00 0.00 0.00 0.00 0.00 0.00 0.00 0.00 0.00 0.00 0.00 0.00 0.00 0.00 0.00 0.00 0.00 0.00 0.00 0.00 0.00 0.00 0.00 0.00 0.00 0.00 0.00 0.00 0.00 0.01 0.07 0.16 0.24 0.24 0.16 0.06
0.00 0.00 0.00 0.00 0.00 0.00 0.00 0.00 0.00 0.00 0.00 0.00 0.00 0.00 0.00 0.00 0.00 0.00 0.00 0.00 0.00 0.00 0.00 0.00 0.00 0.00 0.00 0.00 0.00 0.00 0.00 0.00 0.00 0.00 0.00 0.03 0.10 0.22 0.28 0.23 0.13 0.05 0.02 0.01
0.00 0.00 0.00 0.00 0.00 0.00 0.00 0.00 0.00 0.00 0.00 0.00 0.00 0.00 0.00 0.00 0.00 0.00 0.00 0.00 0.00 0.00 0.00 0.00 0.00 0.00 0.00 0.00 0.00 0.00 0.00 0.01 0.04 0.08 0.15 0.24 0.29 0.23 0.14 0.06 0.01 0.00 0.00 0.00
0.00 0.00 0.00 0.00 0.00 0.00 0.00 0.00 0.00 0.00 0.00 0.00 0.00 0.00 0.00 0.00 0.00 0.00 0.00 0.00 0.00 0.00 0.00 0.00 0.00 0.00 0.00 0.00 0.01 0.03 0.04 0.05 0.09 0.14 0.16 0.12 0.04 0.00 0.00 0.00 0.00 0.00 0.00 0.00
0.00 0.00 0.00 0.00 0.00 0.00 0.00 0.00 0.00 0.00 0.00 0.00 0.00 0.00 0.00 0.00 0.00 0.00 0.00 0.00 0.00 0.00 0.00 0.00 0.00 0.00 0.01 0.04 0.06 0.04 0.02 0.03 0.04 0.02 0.01 0.00 0.00 0.00 0.00 0.00 0.00 0.00 0.00 0.00
0.00 0.01 0.00 0.00 0.00 0.00 0.00 0.00 0.00 0.00 0.00 0.00 0.00 0.00 0.00 0.00 0.00 0.00 0.00 0.00 0.00 0.00 0.00 0.00 0.00 0.04 0.08 0.04 0.01 0.01 0.01 0.01 0.01 0.00 0.00 0.00 0.00 0.00 0.00 0.00 0.00 0.00 0.00 0.00
0.00 0.00 0.00 0.00 0.00 0.00 0.00 0.00 0.00 0.00 0.00 0.00 0.00 0.00 0.00 0.00 0.00 0.00 0.00 0.00 0.00 0.00 0.00 0.00 0.02 0.03 0.02 0.01 0.01 0.01 0.00 0.00 0.00 0.00 0.00 0.00 0.00 0.00 0.00 0.00 0.00 0.00 0.00 0.00
0.00 0.00 0.00 0.00 0.00 0.00 0.00 0.00 0.00 0.00 0.00 0.00 0.00 0.00 0.00 0.00 0.00 0.00 0.00 0.00 0.00 0.00 0.00 0.01 0.01 0.01 0.02 0.01 0.00 0.00 0.00 0.00 0.00 0.00 0.00 0.00 0.00 0.00 0.00 0.00 0.00 0.00 0.00 0.00

GFSCGP_prec_precacc24_048.txt.gz
Total_Precipitation_Accumulation
0.00 0.00 0.00 0.00 0.00 0.00 0.00 0.00 0.00 0.00 0.00 0.00 0.00 0.00 0.02 0.13 0.02 0.01 0.03 0.01 0.01 0.00 0.00 0.00 0.00 0.00 0.00 0.00 0.02 0.03 0.02 0.07 0.12 0.13 0.05 0.01 0.01 0.05 0.08 0.11 0.08 0.05 0.02 0.01
0.00 0.00 0.00 0.00 0.00 0.00 0.00 0.00 0.00 0.00 0.00 0.00 0.00 0.00 0.00 0.01 0.00 0.00 0.00 0.00 0.00 0.00 0.00 0.00 0.00 0.00 0.01 0.02 0.04 0.14 0.11 0.05 0.05 0.11 0.03 0.00 0.00 0.02 0.04 0.07 0.03 0.03 0.05 0.01
0.00 0.00 0.00 0.00 0.00 0.00 0.00 0.00 0.00 0.00 0.00 0.00 0.00 0.00 0.00 0.00 0.00 0.00 0.00 0.00 0.00 0.00 0.00 0.00 0.00 0.00 0.00 0.00 0.03 0.20 0.11 0.04 0.00 0.01 0.01 0.01 0.01 0.01 0.06 0.07 0.08 0.04 0.04 0.03
0.00 0.00 0.00 0.00 0.00 0.00 0.00 0.00 0.00 0.00 0.00 0.00 0.00 0.01 0.00 0.00 0.00 0.00 0.00 0.01 0.00 0.00 0.00 0.00 0.00 0.00 0.00 0.00 0.03 0.22 0.13 0.05 0.03 0.03 0.01 0.02 0.06 0.03 0.04 0.04 0.04 0.02 0.02 0.02
0.01 0.00 0.00 0.00 0.00 0.00 0.00 0.00 0.00 0.00 0.00 0.00 0.00 0.00 0.00 0.00 0.00 0.00 0.00 0.00 0.00 0.00 0.01 0.01 0.01 0.00 0.00 0.06 0.08 0.19 0.15 0.15 0.08 0.08 0.11 0.20 0.14 0.12 0.11 0.04 0.06 0.03 0.05 0.05
0.00 0.00 0.01 0.00 0.00 0.00 0.00 0.00 0.00 0.00 0.00 0.00 0.00 0.00 0.01 0.01 0.00 0.01 0.02 0.00 0.00 0.00 0.02 0.02 0.01 0.01 0.01 0.02 0.11 0.18 0.13 0.20 0.22 0.26 0.19 0.19 0.18 0.11 0.14 0.13 0.16 0.12 0.06 0.04
0.00 0.00 0.00 0.00 0.00 0.00 0.00 0.00 0.00 0.02 0.00 0.00 0.00 0.01 0.01 0.00 0.01 0.01 0.03 0.00 0.00 0.00 0.00 0.01 0.00 0.00 0.02 0.02 0.15 0.18 0.15 0.20 0.22 0.28 0.15 0.17 0.26 0.26 0.33 0.35 0.37 0.42 0.62 0.47
0.00 0.00 0.00 0.00 0.00 0.00 0.00 0.00 0.02 0.10 0.02 0.01 0.02 0.02 0.01 0.00 0.00 0.00 0.00 0.00 0.00 0.00 0.00 0.00 0.00 0.01 0.08 0.07 0.12 0.26 0.23 0.30 0.22 0.15 0.18 0.23 0.29 0.36 0.47 0.40 0.45 0.56 0.37 0.22
0.00 0.00 0.01 0.00 0.00 0.00 0.00 0.00 0.00 0.01 0.02 0.02 0.01 0.00 0.00 0.00 0.00 0.00 0.00 0.00 0.00 0.00 0.00 0.00 0.00 0.01 0.06 0.10 0.12 0.16 0.12 0.24 0.23 0.25 0.32 0.23 0.16 0.17 0.23 0.22 0.16 0.15 0.15 0.11
0.00 0.09 0.03 0.00 0.00 0.00 0.00 0.00 0.00 0.00 0.02 0.02 0.00 0.00 0.01 0.00 0.00 0.00 0.00 0.00 0.00 0.00 0.00 0.00 0.00 0.00 0.01 0.03 0.05 0.15 0.06 0.03 0.10 0.19 0.20 0.12 0.12 0.13 0.12 0.12 0.10 0.11 0.10 0.05
0.00 0.02 0.03 0.00 0.00 0.00 0.00 0.00 0.00 0.00 0.00 0.00 0.01 0.00 0.01 0.00 0.00 0.00 0.00 0.00 0.00 0.00 0.00 0.00 0.00 0.00 0.00 0.00 0.00 0.00 0.01 0.02 0.06 0.05 0.05 0.06 0.14 0.18 0.19 0.24 0.17 0.12 0.07 0.02
0.00 0.00 0.00 0.00 0.00 0.00 0.00 0.01 0.03 0.00 0.00 0.00 0.00 0.00 0.00 0.00 0.00 0.00 0.00 0.00 0.00 0.00 0.00 0.00 0.00 0.00 0.00 0.00 0.00 0.01 0.02 0.04 0.23 0.12 0.15 0.16 0.19 0.15 0.19 0.17 0.15 0.10 0.03 0.01
0.00 0.00 0.00 0.00 0.00 0.00 0.00 0.00 0.00 0.00 0.00 0.00 0.03 0.00 0.00 0.00 0.00 0.00 0.00 0.00 0.00 0.00 0.00 0.00 0.00 0.00 0.00 0.01 0.05 0.08 0.08 0.10 0.20 0.19 0.24 0.13 0.15 0.16 0.15 0.18 0.11 0.06 0.02 0.02
0.00 0.00 0.00 0.00 0.00 0.00 0.00 0.00 0.00 0.00 0.00 0.00 0.00 0.00 0.00 0.00 0.00 0.00 0.00 0.00 0.00 0.00 0.00 0.00 0.00 0.00 0.01 0.08 0.09 0.08 0.09 0.11 0.13 0.16 0.12 0.06 0.14 0.12 0.06 0.04 0.04 0.02 0.01 0.01
0.00 0.00 0.00 0.00 0.00 0.00 0.00 0.00 0.00 0.00 0.00 0.00 0.00 0.00 0.00 0.00 0.00 0.00 0.00 0.00 0.00 0.00 0.00 0.01 0.01 0.01 0.02 0.06 0.05 0.07 0.07 0.11 0.13 0.13 0.06 0.07 0.08 0.04 0.04 0.03 0.02 0.01 0.00 0.00
0.00 0.00 0.00 0.00 0.00 0.00 0.00 0.00 0.00 0.00 0.00 0.00 0.00 0.00 0.00 0.00 0.00 0.00 0.00 0.00 0.00 0.00 0.00 0.00 0.00 0.02 0.02 0.02 0.02 0.06 0.06 0.06 0.07 0.03 0.03 0.02 0.01 0.01 0.01 0.01 0.00 0.00 0.00 0.00
0.00 0.00 0.00 0.00 0.00 0.00 0.00 0.00 0.00 0.00 0.00 0.00 0.00 0.00 0.00 0.00 0.00 0.00 0.00 0.00 0.00 0.00 0.00 0.00 0.00 0.00 0.01 0.02 0.01 0.02 0.03 0.03 0.02 0.02 0.01 0.01 0.01 0.00 0.00 0.00 0.00 0.00 0.03 0.07
0.01 0.00 0.00 0.00 0.00 0.00 0.00 0.00 0.00 0.00 0.00 0.00 0.00 0.00 0.00 0.00 0.00 0.00 0.00 0.00 0.00 0.00 0.00 0.00 0.00 0.01 0.01 0.01 0.00 0.00 0.01 0.02 0.01 0.00 0.00 0.00 0.00 0.00 0.00 0.01 0.03 0.09 0.17 0.23
0.03 0.02 0.02 0.00 0.00 0.00 0.00 0.00 0.00 0.00 0.00 0.00 0.00 0.00 0.00 0.00 0.00 0.00 0.00 0.00 0.00 0.00 0.00 0.00 0.00 0.00 0.00 0.00 0.00 0.00 0.00 0.00 0.00 0.00 0.00 0.00 0.00 0.01 0.07 0.16 0.24 0.24 0.16 0.06
0.00 0.01 0.05 0.01 0.00 0.00 0.00 0.00 0.00 0.00 0.00 0.00 0.00 0.00 0.00 0.00 0.00 0.00 0.00 0.00 0.00 0.00 0.00 0.00 0.00 0.00 0.00 0.00 0.00 0.00 0.00 0.00 0.00 0.00 0.00 0.03 0.10 0.22 0.28 0.23 0.13 0.05 0.02 0.01
0.01 0.01 0.02 0.04 0.02 0.00 0.00 0.00 0.00 0.00 0.00 0.00 0.00 0.00 0.00 0.00 0.00 0.00 0.00 0.00 0.00 0.00 0.00 0.00 0.00 0.00 0.00 0.00 0.00 0.00 0.00 0.01 0.03 0.07 0.15 0.24 0.28 0.23 0.14 0.06 0.01 0.00 0.00 0.00
0.06 0.05 0.03 0.03 0.04 0.00 0.00 0.00 0.00 0.00 0.00 0.00 0.00 0.00 0.00 0.00 0.00 0.00 0.00 0.00 0.00 0.00 0.00 0.00 0.00 0.00 0.00 0.00 0.00 0.00 0.01 0.03 0.08 0.13 0.15 0.12 0.04 0.00 0.00 0.00 0.00 0.00 0.00 0.00
0.01 0.05 0.06 0.01 0.00 0.00 0.00 0.00 0.00 0.00 0.00 0.00 0.00 0.00 0.00 0.00 0.00 0.00 0.00 0.00 0.00 0.00 0.00 0.00 0.00 0.00 0.00 0.00 0.00 0.00 0.00 0.03 0.03 0.01 0.00 0.00 0.00 0.00 0.00 0.00 0.00 0.00 0.00 0.00
0.00 0.01 0.01 0.01 0.01 0.00 0.00 0.00 0.00 0.00 0.00 0.00 0.00 0.00 0.00 0.00 0.00 0.00 0.00 0.00 0.00 0.00 0.00 0.00 0.00 0.00 0.00 0.00 0.00 0.00 0.00 0.00 0.00 0.00 0.00 0.00 0.00 0.00 0.00 0.00 0.00 0.00 0.00 0.00
0.00 0.00 0.00 0.00 0.00 0.00 0.01 0.01 0.00 0.00 0.00 0.00 0.00 0.00 0.00 0.00 0.00 0.00 0.00 0.00 0.00 0.00 0.00 0.00 0.00 0.00 0.00 0.00 0.00 0.00 0.00 0.00 0.00 0.00 0.00 0.00 0.00 0.00 0.00 0.00 0.00 0.00 0.00 0.00
0.00 0.00 0.01 0.00 0.00 0.00 0.00 0.00 0.00 0.00 0.00 0.00 0.00 0.00 0.00 0.00 0.00 0.00 0.00 0.00 0.00 0.00 0.00 0.00 0.00 0.00 0.00 0.00 0.00 0.00 0.00 0.00 0.00 0.00 0.00 0.00 0.00 0.00 0.00 0.00 0.00 0.00 0.00 0.00

GFSCGP_prec_precacc24_051.txt.gz
Total_Precipitation_Accumulation
0.00 0.00 0.00 0.00 0.00 0.00 0.00 0.00 0.00 0.00 0.00 0.00 0.00 0.00 0.02 0.14 0.03 0.01 0.00 0.00 0.01 0.00 0.00 0.00 0.00 0.00 0.00 0.00 0.00 0.00 0.00 0.01 0.10 0.10 0.02 0.00 0.01 0.05 0.08 0.11 0.08 0.06 0.04 0.02
0.00 0.00 0.00 0.00 0.00 0.00 0.00 0.00 0.00 0.00 0.00 0.00 0.00 0.00 0.00 0.02 0.00 0.00 0.00 0.00 0.00 0.00 0.00 0.00 0.00 0.00 0.00 0.00 0.00 0.02 0.05 0.02 0.04 0.09 0.02 0.00 0.00 0.02 0.04 0.07 0.03 0.03 0.08 0.05
0.00 0.00 0.00 0.00 0.00 0.00 0.00 0.00 0.00 0.00 0.00 0.00 0.00 0.00 0.00 0.00 0.02 0.07 0.01 0.00 0.00 0.00 0.00 0.00 0.00 0.00 0.00 0.00 0.00 0.01 0.08 0.03 0.00 0.02 0.01 0.03 0.01 0.01 0.06 0.07 0.08 0.05 0.05 0.06
0.00 0.00 0.00 0.00 0.00 0.00 0.00 0.00 0.00 0.00 0.00 0.00 0.00 0.00 0.00 0.00 0.02 0.06 0.01 0.01 0.00 0.00 0.00 0.00 0.00 0.00 0.00 0.00 0.01 0.13 0.08 0.05 0.03 0.03 0.01 0.03 0.06 0.03 0.04 0.04 0.04 0.02 0.04 0.06
0.00 0.00 0.00 0.00 0.00 0.00 0.00 0.00 0.00 0.00 0.00 0.00 0.00 0.00 0.00 0.00 0.00 0.02 0.01 0.00 0.00 0.00 0.01 0.01 0.01 0.00 0.00 0.04 0.06 0.17 0.13 0.15 0.08 0.08 0.12 0.24 0.17 0.12 0.11 0.04 0.06 0.04 0.11 0.14
0.00 0.00 0.00 0.00 0.00 0.00 0.00 0.00 0.00 0.00 0.00 0.00 0.00 0.00 0.01 0.01 0.00 0.00 0.00 0.00 0.00 0.00 0.02 0.02 0.01 0.01 0.01 0.02 0.10 0.18 0.13 0.20 0.22 0.26 0.19 0.20 0.28 0.17 0.15 0.14 0.23 0.24 0.29 0.26
0.00 0.00 0.00 0.00 0.00 0.00 0.00 0.00 0.00 0.02 0.00 0.00 0.00 0.00 0.01 0.00 0.00 0.00 0.00 0.00 0.00 0.00 0.00 0.01 0.00 0.00 0.02 0.02 0.15 0.18 0.15 0.20 0.22 0.28 0.15 0.18 0.29 0.35 0.39 0.36 0.43 0.55 0.74 0.72
0.00 0.00 0.00 0.00 0.00 0.00 0.00 0.00 0.02 0.09 0.02 0.02 0.01 0.00 0.00 0.00 0.00 0.00 0.00 0.00 0.00 0.00 0.00 0.00 0.00 0.01 0.08 0.07 0.12 0.26 0.23 0.30 0.22 0.15 0.19 0.24 0.30 0.37 0.49 0.41 0.46 0.61 0.39 0.28
0.00 0.00 0.00 0.00 0.00 0.00 0.00 0.00 0.00 0.01 0.02 0.02 0.01 0.00 0.00 0.00 0.00 0.00 0.00 0.00 0.00 0.00 0.00 0.01 0.00 0.01 0.06 0.10 0.12 0.16 0.12 0.24 0.23 0.25 0.32 0.24 0.17 0.17 0.24 0.26 0.23 0.19 0.16 0.14
0.00 0.00 0.00 0.00 0.00 0.00 0.00 0.00 0.00 0.00 0.04 0.04 0.00 0.00 0.01 0.00 0.00 0.00 0.00 0.00 0.00 0.00 0.00 0.00 0.00 0.00 0.01 0.03 0.05 0.15 0.07 0.04 0.11 0.20 0.20 0.12 0.13 0.17 0.12 0.12 0.11 0.12 0.11 0.07
0.00 0.00 0.00 0.00 0.00 0.00 0.00 0.00 0.00 0.00 0.00 0.00 0.01 0.00 0.01 0.00 0.00 0.00 0.00 0.00 0.00 0.00 0.00 0.00 0.00 0.01 0.00 0.00 0.02 0.04 0.08 0.15 0.13 0.10 0.05 0.07 0.17 0.36 0.25 0.24 0.17 0.12 0.09 0.04
0.00 0.00 0.00 0.00 0.00 0.00 0.00 0.00 0.01 0.00 0.00 0.00 0.01 0.00 0.00 0.00 0.00 0.00 0.00 0.00 0.00 0.00 0.00 0.00 0.00 0.00 0.00 0.02 0.07 0.15 0.21 0.29 0.31 0.20 0.23 0.42 0.46 0.52 0.41 0.25 0.16 0.15 0.09 0.03
0.00 0.00 0.00 0.00 0.00 0.00 0.00 0.00 0.00 0.00 0.00 0.00 0.03 0.00 0.00 0.00 0.00 0.00 0.00 0.00 0.00 0.00 0.00 0.00 0.00 0.00 0.00 0.01 0.07 0.15 0.16 0.22 0.40 0.42 0.48 0.45 0.31 0.24 0.23 0.32 0.21 0.12 0.07 0.04
0.00 0.00 0.00 0.00 0.00 0.00 0.00 0.00 0.00 0.00 0.00 0.00 0.00 0.00 0.00 0.00 0.00 0.00 0.00 0.00 0.00 0.00 0.00 0.00 0.00 0.00 0.01 0.08 0.09 0.12 0.21 0.24 0.30 0.27 0.18 0.13 0.22 0.14 0.07 0.09 0.10 0.05 0.03 0.02
0.00 0.00 0.00 0.00 0.00 0.00 0.00 0.00 0.00 0.00 0.00 0.00 0.00 0.00 0.00 0.00 0.00 0.00 0.00 0.00 0.00 0.00 0.00 0.01 0.01 0.01 0.02 0.06 0.05 0.07 0.08 0.14 0.18 0.14 0.06 0.09 0.10 0.05 0.08 0.06 0.05 0.03 0.02 0.02
0.00 0.00 0.00 0.00 0.00 0.00 0.00 0.00 0.00 0.00 0.00 0.00 0.00 0.00 0.00 0.00 0.00 0.00 0.00 0.00 0.00 0.00 0.00 0.00 0.00 0.01 0.01 0.02 0.02 0.06 0.08 0.11 0.08 0.03 0.04 0.04 0.02 0.02 0.03 0.04 0.03 0.01 0.00 0.01
0.00 0.00 0.00 0.00 0.00 0.00 0.00 0.00 0.00 0.00 0.00 0.00 0.00 0.00 0.00 0.00 0.00 0.00 0.00 0.00 0.00 0.00 0.00 0.00 0.00 0.00 0.02 0.02 0.02 0.04 0.07 0.04 0.03 0.02 0.02 0.01 0.01 0.03 0.01 0.01 0.00 0.00 0.03 0.07
0.01 0.00 0.00 0.00 0.00 0.00 0.00 0.00 0.00 0.00 0.00 0.00 0.00 0.00 0.00 0.00 0.00 0.00 0.00 0.00 0.00 0.00 0.00 0.00 0.00 0.01 0.02 0.02 0.00 0.01 0.02 0.02 0.02 0.01 0.02 0.02 0.01 0.01 0.01 0.01 0.03 0.09 0.17 0.23
0.04 0.03 0.02 0.00 0.00 0.00 0.00 0.00 0.00 0.00 0.00 0.00 0.00 0.00 0.00 0.00 0.00 0.00 0.00 0.00 0.00 0.00 0.00 0.00 0.00 0.00 0.00 0.00 0.00 0.01 0.01 0.00 0.01 0.02 0.03 0.02 0.00 0.01 0.07 0.16 0.24 0.24 0.16 0.06
0.02 0.01 0.06 0.02 0.00 0.00 0.00 0.00 0.00 0.00 0.00 0.00 0.00 0.00 0.00 0.00 0.00 0.00 0.00 0.00 0.00 0.00 0.00 0.00 0.00 0.00 0.00 0.00 0.00 0.00 0.00 0.00 0.00 0.00 0.00 0.02 0.10 0.21 0.27 0.22 0.13 0.05 0.02 0.01
0.03 0.03 0.03 0.05 0.02 0.00 0.00 0.00 0.00 0.00 0.00 0.00 0.00 0.00 0.00 0.00 0.00 0.00 0.00 0.00 0.00 0.00 0.00 0.00 0.00 0.00 0.00 0.00 0.00 0.00 0.00 0.01 0.03 0.06 0.11 0.20 0.27 0.22 0.14 0.06 0.01 0.00 0.00 0.00
0.11 0.05 0.03 0.05 0.06 0.00 0.00 0.00 0.00 0.00 0.00 0.00 0.00 0.00 0.00 0.00 0.00 0.00 0.00 0.00 0.00 0.00 0.00 0.00 0.00 0.00 0.00 0.00 0.00 0.00 0.01 0.01 0.04 0.08 0.12 0.11 0.04 0.00 0.00 0.00 0.00 0.00 0.00 0.00
0.05 0.05 0.06 0.01 0.00 0.00 0.00 0.00 0.00 0.00 0.00 0.00 0.00 0.00 0.00 0.00 0.00 0.00 0.00 0.00 0.00 0.00 0.00 0.00 0.00 0.00 0.00 0.00 0.00 0.00 0.00 0.01 0.01 0.00 0.00 0.00 0.00 0.00 0.00 0.00 0.00 0.00 0.00 0.00
0.00 0.01 0.01 0.01 0.01 0.00 0.02 0.03 0.01 0.00 0.00 0.00 0.00 0.00 0.01 0.01 0.00 0.00 0.00 0.00 0.00 0.00 0.00 0.00 0.00 0.00 0.00 0.00 0.00 0.00 0.00 0.00 0.00 0.00 0.00 0.00 0.00 0.00 0.00 0.00 0.00 0.00 0.00 0.00
0.00 0.00 0.00 0.00 0.00 0.00 0.02 0.02 0.02 0.01 0.00 0.00 0.00 0.00 0.00 0.00 0.00 0.00 0.00 0.00 0.00 0.00 0.00 0.00 0.00 0.00 0.00 0.00 0.00 0.00 0.00 0.00 0.00 0.00 0.00 0.00 0.00 0.00 0.00 0.00 0.00 0.00 0.00 0.00
0.00 0.00 0.01 0.00 0.00 0.00 0.00 0.00 0.03 0.01 0.00 0.00 0.00 0.00 0.00 0.00 0.00 0.00 0.00 0.00 0.00 0.00 0.00 0.00 0.00 0.00 0.00 0.00 0.00 0.00 0.00 0.00 0.00 0.00 0.00 0.00 0.00 0.00 0.00 0.00 0.00 0.00 0.00 0.00

GFSCGP_prec_precacc24_054.txt.gz
Total_Precipitation_Accumulation
0.00 0.00 0.00 0.00 0.00 0.00 0.00 0.00 0.00 0.00 0.00 0.00 0.00 0.00 0.02 0.14 0.03 0.01 0.00 0.00 0.00 0.00 0.00 0.00 0.00 0.00 0.00 0.00 0.00 0.00 0.00 0.02 0.10 0.10 0.02 0.00 0.01 0.05 0.08 0.11 0.08 0.06 0.04 0.02
0.00 0.00 0.00 0.00 0.00 0.00 0.00 0.00 0.00 0.00 0.00 0.00 0.00 0.00 0.00 0.02 0.00 0.00 0.00 0.00 0.00 0.00 0.00 0.00 0.00 0.00 0.00 0.00 0.00 0.00 0.00 0.01 0.04 0.08 0.02 0.00 0.00 0.02 0.04 0.07 0.03 0.03 0.08 0.05
0.00 0.00 0.00 0.00 0.00 0.00 0.00 0.00 0.00 0.00 0.00 0.00 0.00 0.00 0.00 0.00 0.02 0.06 0.00 0.00 0.00 0.00 0.00 0.00 0.00 0.00 0.00 0.00 0.00 0.01 0.03 0.00 0.00 0.02 0.01 0.03 0.01 0.01 0.06 0.07 0.08 0.05 0.05 0.06
0.00 0.00 0.00 0.00 0.00 0.00 0.00 0.00 0.00 0.00 0.00 0.00 0.00 0.00 0.00 0.00 0.02 0.06 0.00 0.00 0.00 0.00 0.00 0.00 0.00 0.00 0.00 0.00 0.00 0.00 0.03 0.03 0.01 0.01 0.01 0.03 0.06 0.03 0.04 0.04 0.04 0.02 0.04 0.07
0.00 0.00 0.00 0.00 0.00 0.00 0.00 0.00 0.00 0.00 0.00 0.00 0.00 0.00 0.00 0.00 0.00 0.02 0.01 0.00 0.00 0.00 0.01 0.01 0.01 0.00 0.00 0.00 0.02 0.04 0.10 0.15 0.08 0.07 0.12 0.24 0.17 0.12 0.11 0.04 0.06 0.04 0.11 0.15
0.00 0.00 0.00 0.00 0.00 0.00 0.00 0.00 0.00 0.00 0.00 0.00 0.00 0.00 0.01 0.01 0.00 0.00 0.00 0.00 0.00 0.00 0.01 0.02 0.01 0.01 0.00 0.00 0.08 0.12 0.12 0.20 0.22 0.26 0.19 0.20 0.28 0.17 0.15 0.14 0.23 0.24 0.30 0.29
0.00 0.00 0.00 0.00 0.00 0.00 0.00 0.00 0.00 0.02 0.00 0.00 0.00 0.00 0.00 0.00 0.00 0.00 0.00 0.00 0.00 0.00 0.00 0.01 0.00 0.00 0.01 0.01 0.10 0.14 0.14 0.20 0.22 0.28 0.15 0.18 0.29 0.35 0.39 0.36 0.43 0.56 0.74 0.72
0.00 0.00 0.00 0.00 0.00 0.00 0.00 0.00 0.02 0.09 0.02 0.02 0.01 0.00 0.00 0.00 0.00 0.00 0.00 0.00 0.00 0.00 0.00 0.00 0.00 0.01 0.03 0.03 0.09 0.22 0.23 0.30 0.22 0.15 0.19 0.24 0.30 0.37 0.49 0.41 0.46 0.61 0.41 0.29
0.00 0.00 0.00 0.00 0.00 0.00 0.00 0.00 0.00 0.01 0.02 0.02 0.01 0.00 0.00 0.00 0.00 0.00 0.00 0.00 0.00 0.00 0.00 0.01 0.00 0.00 0.01 0.05 0.11 0.15 0.12 0.24 0.22 0.24 0.32 0.24 0.18 0.18 0.24 0.27 0.25 0.20 0.16 0.19
0.00 0.00 0.00 0.00 0.00 0.00 0.00 0.00 0.00 0.00 0.04 0.04 0.00 0.00 0.01 0.00 0.00 0.00 0.00 0.00 0.00 0.00 0.00 0.00 0.00 0.00 0.01 0.02 0.06 0.16 0.08 0.04 0.12 0.20 0.21 0.14 0.17 0.22 0.13 0.15 0.15 0.20 0.19 0.14
0.00 0.00 0.00 0.00 0.00 0.00 0.00 0.00 0.00 0.00 0.00 0.00 0.01 0.00 0.01 0.00 0.00 0.00 0.00 0.00 0.00 0.00 0.00 0.00 0.00 0.01 0.00 0.01 0.04 0.06 0.15 0.25 0.25 0.17 0.09 0.10 0.25 0.50 0.41 0.29 0.25 0.26 0.29 0.28
0.00 0.00 0.00 0.00 0.00 0.00 0.00 0.00 0.00 0.00 0.00 0.00 0.01 0.00 0.00 0.00 0.00 0.00 0.00 0.00 0.00 0.00 0.00 0.00 0.00 0.00 0.00 0.02 0.08 0.16 0.22 0.30 0.38 0.25 0.27 0.47 0.69 0.88 0.77 0.58 0.52 0.30 0.19 0.11
0.00 0.00 0.00 0.00 0.00 0.00 0.00 0.00 0.00 0.00 0.00 0.01 0.03 0.00 0.00 0.00 0.00 0.00 0.00 0.00 0.00 0.00 0.00 0.00 0.00 0.00 0.00 0.01 0.07 0.15 0.16 0.23 0.42 0.46 0.52 0.50 0.42 0.65 0.76 0.52 0.33 0.21 0.15 0.13
0.00 0.00 0.00 0.00 0.00 0.00 0.00 0.00 0.00 0.00 0.00 0.00 0.00 0.00 0.00 0.00 0.00 0.00 0.00 0.00 0.00 0.00 0.00 0.00 0.00 0.00 0.01 0.08 0.09 0.12 0.21 0.25 0.31 0.30 0.21 0.17 0.28 0.24 0.27 0.19 0.15 0.08 0.07 0.07
0.00 0.00 0.00 0.00 0.00 0.00 0.00 0.00 0.00 0.00 0.00 0.00 0.00 0.00 0.00 0.00 0.00 0.00 0.00 0.00 0.00 0.00 0.00 0.00 0.00 0.01 0.02 0.06 0.05 0.07 0.08 0.15 0.21 0.18 0.11 0.16 0.14 0.13 0.16 0.13 0.10 0.06 0.06 0.04
0.00 0.00 0.00 0.00 0.00 0.00 0.00 0.00 0.00 0.00 0.00 0.00 0.00 0.00 0.00 0.00 0.00 0.00 0.00 0.00 0.00 0.00 0.00 0.00 0.00 0.01 0.01 0.01 0.01 0.05 0.08 0.13 0.12 0.10 0.08 0.11 0.10 0.10 0.14 0.11 0.07 0.03 0.03 0.03
0.01 0.00 0.00 0.00 0.00 0.00 0.00 0.00 0.00 0.00 0.00 0.00 0.00 0.00 0.00 0.00 0.00 0.00 0.00 0.00 0.00 0.00 0.00 0.00 0.00 0.00 0.02 0.02 0.02 0.03 0.06 0.05 0.05 0.05 0.05 0.07 0.06 0.08 0.08 0.07 0.03 0.03 0.05 0.08
0.09 0.00 0.00 0.00 0.00 0.01 0.00 0.00 0.00 0.00 0.00 0.00 0.00 0.00 0.00 0.00 0.00 0.00 0.00 0.00 0.00 0.00 0.00 0.00 0.00 0.01 0.02 0.02 0.00 0.01 0.02 0.02 0.03 0.02 0.04 0.04 0.05 0.05 0.04 0.04 0.04 0.09 0.17 0.23
0.14 0.13 0.09 0.01 0.00 0.00 0.00 0.00 0.00 0.00 0.00 0.00 0.00 0.00 0.00 0.00 0.00 0.00 0.00 0.00 0.00 0.00 0.00 0.00 0.00 0.00 0.00 0.00 0.00 0.00 0.01 0.01 0.02 0.03 0.06 0.05 0.02 0.03 0.06 0.13 0.21 0.23 0.16 0.06
0.05 0.17 0.29 0.14 0.02 0.00 0.00 0.00 0.00 0.00 0.00 0.00 0.00 0.00 0.00 0.00 0.00 0.00 0.00 0.00 0.00 0.00 0.00 0.00 0.00 0.00 0.00 0.00 0.00 0.00 0.00 0.00 0.00 0.01 0.01 0.02 0.07 0.14 0.19 0.19 0.12 0.05 0.02 0.01
0.05 0.15 0.22 0.25 0.13 0.00 0.00 0.00 0.00 0.00 0.00 0.00 0.00 0.00 0.00 0.00 0.00 0.00 0.00 0.00 0.00 0.00 0.00 0.00 0.00 0.00 0.00 0.00 0.00 0.00 0.00 0.00 0.01 0.03 0.05 0.09 0.15 0.15 0.12 0.06 0.01 0.00 0.00 0.00
0.19 0.17 0.20 0.22 0.16 0.01 0.00 0.00 0.00 0.00 0.00 0.00 0.00 0.00 0.00 0.00 0.00 0.00 0.00 0.00 0.00 0.00 0.00 0.00 0.00 0.00 0.00 0.00 0.00 0.00 0.00 0.00 0.00 0.01 0.03 0.06 0.03 0.00 0.00 0.00 0.00 0.00 0.00 0.00
0.08 0.13 0.16 0.14 0.08 0.00 0.01 0.01 0.02 0.00 0.00 0.00 0.00 0.00 0.00 0.00 0.00 0.00 0.00 0.00 0.00 0.00 0.00 0.00 0.00 0.00 0.00 0.00 0.00 0.00 0.00 0.00 0.00 0.00 0.00 0.00 0.00 0.00 0.00 0.00 0.00 0.00 0.00 0.00
0.00 0.01 0.02 0.02 0.01 0.00 0.02 0.04 0.02 0.00 0.00 0.00 0.00 0.00 0.01 0.01 0.00 0.00 0.00 0.00 0.00 0.00 0.00 0.00 0.00 0.00 0.00 0.00 0.00 0.00 0.00 0.00 0.00 0.00 0.00 0.00 0.00 0.00 0.00 0.00 0.00 0.00 0.00 0.00
0.00 0.02 0.01 0.00 0.00 0.00 0.02 0.02 0.02 0.01 0.00 0.00 0.00 0.00 0.00 0.00 0.00 0.00 0.00 0.00 0.00 0.00 0.00 0.00 0.00 0.00 0.00 0.00 0.00 0.00 0.00 0.00 0.00 0.00 0.00 0.00 0.00 0.00 0.00 0.00 0.00 0.00 0.00 0.00
0.01 0.01 0.02 0.00 0.00 0.00 0.00 0.00 0.03 0.01 0.00 0.00 0.00 0.00 0.00 0.00 0.00 0.00 0.00 0.00 0.00 0.00 0.00 0.00 0.00 0.00 0.00 0.00 0.00 0.00 0.00 0.00 0.00 0.00 0.00 0.00 0.00 0.00 0.00 0.00 0.00 0.00 0.00 0.00

GFSCGP_prec_precacc24_057.txt.gz
Total_Precipitation_Accumulation
0.00 0.00 0.00 0.00 0.00 0.00 0.00 0.00 0.00 0.00 0.00 0.00 0.00 0.00 0.02 0.14 0.02 0.01 0.00 0.00 0.00 0.00 0.00 0.00 0.00 0.00 0.00 0.00 0.00 0.00 0.04 0.06 0.14 0.10 0.03 0.01 0.02 0.05 0.08 0.11 0.08 0.06 0.05 0.03
0.00 0.00 0.00 0.00 0.00 0.00 0.00 0.00 0.00 0.00 0.00 0.00 0.00 0.00 0.00 0.02 0.00 0.00 0.00 0.00 0.00 0.00 0.00 0.00 0.00 0.00 0.00 0.00 0.00 0.00 0.00 0.02 0.06 0.09 0.02 0.00 0.00 0.02 0.04 0.07 0.03 0.03 0.08 0.05
0.00 0.00 0.00 0.00 0.00 0.00 0.00 0.00 0.00 0.00 0.00 0.00 0.00 0.00 0.00 0.00 0.02 0.06 0.00 0.00 0.00 0.00 0.00 0.00 0.00 0.00 0.00 0.00 0.00 0.00 0.00 0.00 0.00 0.02 0.01 0.02 0.00 0.00 0.06 0.07 0.08 0.05 0.05 0.06
0.00 0.00 0.00 0.00 0.00 0.00 0.00 0.00 0.00 0.00 0.00 0.00 0.00 0.00 0.00 0.00 0.02 0.06 0.00 0.00 0.00 0.00 0.00 0.00 0.00 0.00 0.00 0.00 0.00 0.00 0.00 0.00 0.00 0.01 0.01 0.01 0.02 0.02 0.04 0.04 0.04 0.02 0.04 0.07
0.00 0.00 0.00 0.00 0.00 0.00 0.00 0.00 0.00 0.00 0.00 0.00 0.00 0.00 0.00 0.00 0.00 0.02 0.01 0.00 0.00 0.00 0.00 0.00 0.00 0.00 0.00 0.00 0.00 0.00 0.00 0.01 0.01 0.03 0.07 0.13 0.14 0.12 0.11 0.04 0.06 0.04 0.11 0.15
0.00 0.00 0.00 0.00 0.00 0.00 0.00 0.00 0.00 0.00 0.00 0.00 0.00 0.00 0.01 0.01 0.00 0.00 0.00 0.00 0.00 0.00 0.00 0.00 0.00 0.00 0.00 0.00 0.01 0.02 0.02 0.06 0.14 0.20 0.12 0.15 0.26 0.16 0.15 0.14 0.23 0.24 0.30 0.29
0.00 0.00 0.00 0.00 0.00 0.00 0.00 0.00 0.00 0.02 0.00 0.00 0.00 0.00 0.00 0.00 0.00 0.00 0.00 0.00 0.00 0.00 0.00 0.00 0.00 0.00 0.00 0.00 0.00 0.05 0.11 0.13 0.18 0.27 0.14 0.17 0.29 0.35 0.38 0.36 0.43 0.55 0.74 0.72
0.00 0.00 0.00 0.00 0.00 0.00 0.00 0.00 0.02 0.09 0.02 0.02 0.01 0.00 0.00 0.00 0.00 0.00 0.00 0.00 0.00 0.00 0.00 0.00 0.00 0.01 0.02 0.01 0.00 0.06 0.18 0.26 0.22 0.14 0.18 0.22 0.26 0.32 0.43 0.38 0.45 0.61 0.41 0.29
0.00 0.00 0.00 0.00 0.00 0.00 0.00 0.00 0.00 0.01 0.02 0.02 0.01 0.00 0.00 0.00 0.00 0.00 0.00 0.00 0.00 0.00 0.00 0.01 0.00 0.01 0.01 0.02 0.02 0.10 0.10 0.23 0.22 0.24 0.32 0.23 0.16 0.16 0.23 0.29 0.25 0.22 0.20 0.20
0.00 0.00 0.00 0.00 0.00 0.00 0.00 0.00 0.00 0.00 0.04 0.04 0.00 0.00 0.01 0.00 0.00 0.00 0.00 0.00 0.00 0.00 0.00 0.00 0.00 0.01 0.01 0.01 0.05 0.15 0.08 0.04 0.12 0.20 0.21 0.13 0.17 0.22 0.13 0.15 0.18 0.26 0.33 0.27
0.00 0.00 0.00 0.00 0.00 0.00 0.00 0.00 0.00 0.00 0.00 0.00 0.01 0.00 0.01 0.00 0.00 0.00 0.00 0.00 0.00 0.00 0.00 0.00 0.00 0.01 0.01 0.01 0.05 0.10 0.20 0.30 0.26 0.18 0.08 0.10 0.25 0.51 0.42 0.32 0.28 0.31 0.42 0.45
0.00 0.00 0.00 0.00 0.00 0.00 0.00 0.00 0.00 0.00 0.00 0.00 0.01 0.00 0.00 0.00 0.00 0.00 0.00 0.00 0.00 0.00 0.00 0.00 0.00 0.00 0.00 0.02 0.08 0.16 0.26 0.37 0.46 0.28 0.27 0.48 0.69 0.89 0.80 0.63 0.75 0.52 0.29 0.16
0.00 0.00 0.00 0.00 0.00 0.00 0.00 0.00 0.00 0.00 0.00 0.01 0.03 0.00 0.00 0.00 0.00 0.00 0.00 0.00 0.00 0.00 0.00 0.00 0.00 0.00 0.00 0.01 0.07 0.15 0.15 0.22 0.43 0.49 0.57 0.54 0.46 0.67 0.81 0.66 0.48 0.32 0.19 0.17
0.00 0.00 0.00 0.00 0.00 0.00 0.00 0.00 0.00 0.00 0.00 0.00 0.00 0.00 0.00 0.00 0.00 0.00 0.00 0.00 0.00 0.00 0.00 0.00 0.00 0.00 0.00 0.07 0.08 0.11 0.19 0.23 0.29 0.30 0.22 0.18 0.31 0.26 0.31 0.31 0.28 0.14 0.09 0.08
0.00 0.00 0.00 0.00 0.00 0.00 0.00 0.00 0.00 0.00 0.00 0.00 0.00 0.00 0.00 0.00 0.00 0.00 0.00 0.00 0.00 0.00 0.00 0.00 0.00 0.00 0.02 0.04 0.04 0.05 0.06 0.13 0.20 0.18 0.11 0.16 0.16 0.16 0.18 0.18 0.15 0.13 0.10 0.07
0.00 0.00 0.00 0.00 0.00 0.00 0.00 0.00 0.00 0.00 0.00 0.00 0.00 0.00 0.00 0.00 0.00 0.00 0.00 0.00 0.00 0.00 0.00 0.00 0.00 0.00 0.01 0.01 0.01 0.04 0.07 0.13 0.12 0.10 0.08 0.12 0.11 0.14 0.18 0.13 0.08 0.06 0.09 0.09
0.02 0.00 0.00 0.00 0.00 0.00 0.00 0.00 0.00 0.00 0.00 0.00 0.00 0.00 0.00 0.00 0.00 0.00 0.00 0.00 0.00 0.00 0.00 0.00 0.00 0.00 0.02 0.02 0.02 0.03 0.06 0.05 0.05 0.04 0.05 0.07 0.08 0.12 0.12 0.11 0.07 0.07 0.12 0.13
0.10 0.02 0.04 0.03 0.00 0.02 0.01 0.00 0.00 0.00 0.00 0.00 0.00 0.00 0.00 0.00 0.00 0.00 0.00 0.00 0.00 0.00 0.00 0.00 0.00 0.01 0.02 0.02 0.00 0.01 0.02 0.02 0.02 0.02 0.04 0.05 0.06 0.08 0.08 0.09 0.07 0.11 0.16 0.24
0.14 0.14 0.14 0.08 0.04 0.01 0.00 0.00 0.00 0.00 0.00 0.00 0.00 0.00 0.00 0.00 0.00 0.00 0.00 0.00 0.00 0.00 0.00 0.00 0.00 0.00 0.00 0.00 0.00 0.00 0.01 0.01 0.02 0.03 0.06 0.05 0.04 0.06 0.08 0.16 0.21 0.23 0.17 0.09
0.05 0.17 0.29 0.18 0.12 0.04 0.00 0.00 0.00 0.00 0.00 0.00 0.00 0.00 0.00 0.00 0.00 0.00 0.00 0.00 0.00 0.00 0.00 0.00 0.00 0.00 0.00 0.00 0.00 0.00 0.00 0.00 0.01 0.01 0.03 0.03 0.04 0.06 0.10 0.11 0.10 0.06 0.03 0.02
0.05 0.15 0.23 0.27 0.20 0.05 0.00 0.00 0.00 0.01 0.00 0.00 0.00 0.00 0.00 0.00 0.00 0.00 0.00 0.00 0.00 0.00 0.00 0.00 0.00 0.00 0.00 0.00 0.00 0.00 0.00 0.00 0.00 0.00 0.00 0.01 0.03 0.06 0.05 0.03 0.02 0.01 0.01 0.00
0.19 0.18 0.20 0.25 0.25 0.09 0.01 0.03 0.04 0.01 0.00 0.00 0.00 0.00 0.00 0.00 0.00 0.00 0.00 0.00 0.00 0.00 0.00 0.00 0.00 0.00 0.00 0.00 0.00 0.00 0.00 0.00 0.00 0.00 0.01 0.02 0.01 0.00 0.00 0.00 0.00 0.00 0.00 0.00
0.08 0.13 0.16 0.15 0.16 0.06 0.04 0.06 0.09 0.06 0.01 0.00 0.00 0.00 0.00 0.00 0.00 0.00 0.00 0.00 0.00 0.00 0.00 0.00 0.00 0.00 0.00 0.00 0.00 0.00 0.00 0.00 0.00 0.00 0.00 0.00 0.00 0.00 0.00 0.00 0.00 0.00 0.00 0.00
0.00 0.01 0.02 0.03 0.01 0.00 0.03 0.04 0.02 0.01 0.00 0.01 0.01 0.01 0.01 0.01 0.00 0.00 0.00 0.00 0.00 0.00 0.00 0.00 0.00 0.00 0.00 0.00 0.00 0.00 0.00 0.00 0.00 0.00 0.00 0.00 0.00 0.00 0.00 0.00 0.00 0.00 0.00 0.00
0.00 0.03 0.03 0.01 0.00 0.00 0.02 0.02 0.02 0.01 0.00 0.00 0.00 0.00 0.00 0.00 0.00 0.00 0.00 0.00 0.00 0.00 0.00 0.00 0.00 0.00 0.00 0.00 0.00 0.00 0.00 0.00 0.00 0.00 0.00 0.00 0.00 0.00 0.00 0.00 0.00 0.00 0.00 0.00
0.02 0.04 0.05 0.01 0.03 0.03 0.00 0.01 0.03 0.01 0.00 0.00 0.00 0.00 0.00 0.00 0.00 0.00 0.00 0.00 0.00 0.00 0.00 0.00 0.00 0.00 0.00 0.00 0.00 0.00 0.00 0.00 0.00 0.00 0.00 0.00 0.00 0.00 0.00 0.00 0.00 0.00 0.00 0.00

GFSCGP_prec_precacc24_060.txt.gz
Total_Precipitation_Accumulation
0.00 0.00 0.00 0.00 0.00 0.00 0.00 0.00 0.00 0.00 0.00 0.00 0.00 0.00 0.02 0.14 0.02 0.01 0.00 0.00 0.00 0.00 0.00 0.00 0.00 0.00 0.01 0.01 0.01 0.02 0.07 0.16 0.23 0.12 0.04 0.03 0.02 0.01 0.06 0.10 0.08 0.07 0.07 0.07
0.00 0.00 0.00 0.00 0.00 0.00 0.00 0.00 0.00 0.00 0.00 0.00 0.00 0.00 0.00 0.02 0.00 0.00 0.00 0.00 0.00 0.00 0.00 0.00 0.00 0.00 0.00 0.00 0.00 0.00 0.00 0.08 0.18 0.14 0.03 0.01 0.01 0.02 0.04 0.07 0.03 0.04 0.10 0.08
0.00 0.00 0.00 0.00 0.00 0.00 0.00 0.00 0.00 0.00 0.00 0.00 0.00 0.00 0.00 0.00 0.02 0.06 0.00 0.00 0.00 0.00 0.00 0.00 0.00 0.00 0.00 0.00 0.00 0.00 0.00 0.00 0.02 0.04 0.03 0.02 0.00 0.02 0.06 0.07 0.08 0.05 0.05 0.07
0.00 0.00 0.00 0.00 0.00 0.00 0.00 0.00 0.00 0.00 0.00 0.00 0.00 0.00 0.00 0.00 0.02 0.06 0.00 0.00 0.00 0.00 0.00 0.00 0.00 0.00 0.00 0.00 0.00 0.00 0.00 0.00 0.00 0.00 0.02 0.01 0.01 0.03 0.04 0.04 0.04 0.02 0.04 0.07
0.00 0.00 0.00 0.00 0.00 0.00 0.00 0.00 0.00 0.00 0.00 0.00 0.00 0.00 0.00 0.00 0.00 0.02 0.01 0.00 0.00 0.00 0.00 0.00 0.00 0.00 0.00 0.00 0.00 0.00 0.00 0.00 0.01 0.03 0.05 0.09 0.06 0.04 0.07 0.04 0.06 0.04 0.11 0.15
0.00 0.00 0.00 0.00 0.00 0.00 0.00 0.00 0.00 0.00 0.00 0.00 0.00 0.00 0.01 0.01 0.00 0.00 0.00 0.00 0.00 0.00 0.00 0.00 0.00 0.00 0.00 0.00 0.00 0.00 0.00 0.02 0.13 0.18 0.07 0.09 0.20 0.11 0.11 0.13 0.22 0.24 0.30 0.29
0.00 0.00 0.00 0.00 0.00 0.00 0.00 0.00 0.00 0.02 0.00 0.00 0.00 0.00 0.00 0.00 0.00 0.00 0.00 0.00 0.00 0.00 0.00 0.00 0.00 0.00 0.00 0.00 0.00 0.00 0.00 0.03 0.12 0.18 0.11 0.12 0.21 0.31 0.36 0.35 0.42 0.55 0.73 0.72
0.00 0.00 0.00 0.00 0.00 0.00 0.00 0.00 0.02 0.09 0.02 0.02 0.01 0.00 0.00 0.00 0.00 0.00 0.00 0.00 0.00 0.00 0.00 0.00 0.00 0.00 0.00 0.00 0.00 0.00 0.00 0.06 0.07 0.05 0.11 0.17 0.19 0.27 0.37 0.34 0.43 0.59 0.40 0.29
0.00 0.00 0.00 0.00 0.00 0.00 0.00 0.00 0.00 0.01 0.02 0.02 0.01 0.00 0.00 0.00 0.00 0.00 0.00 0.00 0.00 0.00 0.00 0.01 0.00 0.00 0.01 0.01 0.01 0.00 0.00 0.10 0.14 0.18 0.29 0.20 0.13 0.08 0.15 0.21 0.21 0.21 0.19 0.20
0.00 0.00 0.00 0.00 0.00 0.00 0.00 0.00 0.00 0.00 0.04 0.04 0.00 0.00 0.01 0.00 0.00 0.00 0.00 0.00 0.00 0.00 0.00 0.00 0.00 0.01 0.01 0.01 0.04 0.07 0.04 0.03 0.09 0.17 0.19 0.12 0.13 0.15 0.08 0.12 0.16 0.26 0.33 0.28
0.00 0.00 0.00 0.00 0.00 0.00 0.00 0.00 0.00 0.00 0.00 0.00 0.01 0.00 0.01 0.00 0.00 0.00 0.00 0.00 0.00 0.00 0.00 0.00 0.00 0.01 0.01 0.02 0.06 0.11 0.20 0.30 0.25 0.17 0.08 0.09 0.22 0.44 0.36 0.29 0.27 0.31 0.43 0.46
0.00 0.00 0.00 0.00 0.00 0.00 0.00 0.00 0.00 0.00 0.00 0.00 0.01 0.00 0.00 0.00 0.00 0.00 0.00 0.00 0.00 0.00 0.00 0.00 0.00 0.00 0.00 0.02 0.08 0.16 0.26 0.35 0.44 0.26 0.24 0.44 0.64 0.86 0.78 0.62 0.75 0.52 0.29 0.16
0.00 0.00 0.00 0.00 0.00 0.00 0.00 0.00 0.00 0.00 0.00 0.01 0.03 0.00 0.00 0.00 0.00 0.00 0.00 0.00 0.00 0.00 0.00 0.00 0.00 0.00 0.00 0.00 0.02 0.09 0.11 0.20 0.40 0.47 0.54 0.52 0.46 0.66 0.81 0.67 0.48 0.34 0.25 0.21
0.00 0.00 0.00 0.00 0.00 0.00 0.00 0.00 0.00 0.00 0.00 0.00 0.00 0.00 0.00 0.00 0.00 0.00 0.00 0.00 0.00 0.00 0.00 0.00 0.00 0.00 0.00 0.00 0.02 0.08 0.16 0.20 0.25 0.26 0.21 0.19 0.30 0.27 0.32 0.32 0.30 0.18 0.19 0.13
0.00 0.00 0.00 0.00 0.00 0.00 0.00 0.00 0.00 0.00 0.00 0.00 0.00 0.00 0.00 0.00 0.00 0.00 0.00 0.00 0.00 0.00 0.00 0.00 0.00 0.00 0.00 0.00 0.01 0.02 0.04 0.11 0.18 0.17 0.10 0.16 0.16 0.16 0.20 0.21 0.18 0.16 0.14 0.13
0.00 0.00 0.00 0.00 0.00 0.00 0.00 0.00 0.00 0.00 0.00 0.00 0.00 0.00 0.00 0.00 0.00 0.00 0.00 0.00 0.00 0.00 0.00 0.00 0.00 0.00 0.00 0.00 0.00 0.03 0.06 0.12 0.11 0.09 0.08 0.11 0.11 0.14 0.20 0.18 0.12 0.10 0.15 0.17
0.02 0.00 0.00 0.00 0.00 0.00 0.00 0.00 0.00 0.00 0.00 0.00 0.00 0.00 0.00 0.00 0.00 0.00 0.00 0.00 0.00 0.00 0.00 0.00 0.00 0.00 0.02 0.02 0.02 0.03 0.06 0.05 0.05 0.04 0.05 0.07 0.08 0.12 0.12 0.15 0.13 0.14 0.19 0.23
0.10 0.02 0.04 0.03 0.01 0.04 0.01 0.00 0.00 0.00 0.00 0.00 0.00 0.00 0.00 0.00 0.00 0.00 0.00 0.00 0.00 0.00 0.00 0.00 0.00 0.01 0.02 0.02 0.00 0.01 0.02 0.02 0.02 0.02 0.04 0.04 0.05 0.08 0.09 0.14 0.11 0.14 0.20 0.22
0.14 0.14 0.14 0.08 0.04 0.02 0.00 0.00 0.00 0.00 0.00 0.00 0.00 0.00 0.00 0.00 0.00 0.00 0.00 0.00 0.00 0.00 0.00 0.00 0.00 0.00 0.00 0.00 0.00 0.00 0.01 0.01 0.02 0.03 0.05 0.05 0.05 0.06 0.09 0.16 0.17 0.15 0.12 0.11
0.05 0.17 0.29 0.18 0.12 0.04 0.00 0.00 0.00 0.00 0.00 0.00 0.00 0.00 0.00 0.00 0.00 0.00 0.00 0.00 0.00 0.00 0.00 0.00 0.00 0.00 0.00 0.00 0.00 0.00 0.00 0.00 0.01 0.01 0.03 0.04 0.05 0.05 0.05 0.05 0.07 0.06 0.05 0.04
0.05 0.16 0.23 0.27 0.20 0.05 0.00 0.00 0.00 0.01 0.01 0.00 0.00 0.00 0.00 0.00 0.00 0.00 0.00 0.00 0.00 0.00 0.00 0.00 0.00 0.00 0.00 0.00 0.00 0.00 0.00 0.00 0.00 0.00 0.00 0.01 0.01 0.01 0.01 0.01 0.02 0.02 0.02 0.03
0.19 0.18 0.20 0.26 0.26 0.09 0.01 0.03 0.04 0.02 0.00 0.00 0.00 0.00 0.00 0.00 0.00 0.00 0.00 0.00 0.00 0.00 0.00 0.00 0.00 0.00 0.00 0.00 0.00 0.00 0.00 0.00 0.00 0.00 0.00 0.00 0.00 0.00 0.00 0.01 0.01 0.02 0.01 0.02
0.08 0.13 0.16 0.15 0.16 0.06 0.04 0.06 0.10 0.08 0.04 0.01 0.01 0.00 0.00 0.00 0.00 0.00 0.00 0.00 0.00 0.00 0.00 0.00 0.00 0.00 0.00 0.00 0.00 0.00 0.00 0.00 0.00 0.00 0.00 0.00 0.00 0.01 0.03 0.03 0.03 0.03 0.02 0.02
0.00 0.01 0.02 0.03 0.01 0.00 0.03 0.04 0.02 0.01 0.01 0.02 0.02 0.02 0.01 0.01 0.00 0.00 0.00 0.00 0.00 0.00 0.00 0.00 0.00 0.00 0.00 0.00 0.00 0.00 0.02 0.02 0.01 0.00 0.00 0.00 0.00 0.01 0.01 0.02 0.03 0.02 0.01 0.00
0.00 0.03 0.03 0.01 0.00 0.00 0.02 0.02 0.02 0.01 0.00 0.00 0.01 0.00 0.00 0.00 0.00 0.00 0.00 0.00 0.00 0.00 0.00 0.00 0.00 0.00 0.00 0.01 0.01 0.02 0.01 0.01 0.00 0.00 0.00 0.00 0.00 0.00 0.00 0.01 0.01 0.00 0.00 0.00
0.02 0.04 0.05 0.01 0.03 0.03 0.00 0.01 0.03 0.01 0.00 0.00 0.00 0.00 0.00 0.00 0.00 0.00 0.00 0.00 0.00 0.00 0.00 0.00 0.00 0.00 0.00 0.01 0.01 0.00 0.00 0.00 0.00 0.00 0.00 0.00 0.00 0.00 0.00 0.00 0.00 0.00 0.00 0.00

GFSCGP_prec_precacc24_063.txt.gz
Total_Precipitation_Accumulation
0.00 0.00 0.00 0.00 0.00 0.00 0.00 0.00 0.00 0.00 0.00 0.00 0.00 0.00 0.02 0.14 0.02 0.01 0.00 0.00 0.00 0.00 0.00 0.00 0.00 0.00 0.01 0.02 0.03 0.07 0.14 0.25 0.26 0.18 0.07 0.06 0.05 0.01 0.02 0.05 0.06 0.06 0.07 0.07
0.00 0.00 0.00 0.00 0.00 0.00 0.00 0.00 0.00 0.00 0.00 0.00 0.00 0.00 0.00 0.02 0.00 0.00 0.00 0.00 0.00 0.00 0.00 0.00 0.00 0.00 0.00 0.00 0.00 0.00 0.01 0.09 0.20 0.18 0.05 0.01 0.02 0.01 0.01 0.03 0.04 0.04 0.10 0.09
0.00 0.00 0.00 0.00 0.00 0.00 0.00 0.00 0.00 0.00 0.00 0.00 0.00 0.00 0.00 0.00 0.02 0.06 0.00 0.00 0.00 0.00 0.00 0.00 0.00 0.00 0.00 0.00 0.00 0.00 0.00 0.01 0.04 0.06 0.06 0.03 0.00 0.02 0.02 0.05 0.08 0.05 0.06 0.08
0.00 0.00 0.00 0.00 0.00 0.00 0.00 0.00 0.00 0.00 0.00 0.00 0.00 0.00 0.00 0.00 0.02 0.06 0.00 0.00 0.00 0.00 0.00 0.00 0.00 0.00 0.00 0.00 0.00 0.00 0.00 0.00 0.00 0.01 0.04 0.02 0.01 0.02 0.02 0.03 0.04 0.02 0.04 0.07
0.00 0.00 0.00 0.00 0.00 0.00 0.00 0.00 0.00 0.00 0.00 0.00 0.00 0.00 0.00 0.00 0.00 0.02 0.01 0.00 0.00 0.00 0.00 0.00 0.00 0.00 0.00 0.00 0.00 0.00 0.00 0.00 0.00 0.00 0.04 0.07 0.06 0.01 0.04 0.02 0.06 0.04 0.11 0.15
0.00 0.00 0.00 0.00 0.00 0.00 0.00 0.00 0.00 0.00 0.00 0.00 0.00 0.00 0.01 0.01 0.00 0.00 0.00 0.00 0.00 0.00 0.00 0.00 0.00 0.00 0.00 0.00 0.00 0.00 0.00 0.00 0.00 0.03 0.05 0.09 0.20 0.10 0.10 0.13 0.22 0.23 0.29 0.29
0.00 0.00 0.00 0.00 0.00 0.00 0.00 0.00 0.00 0.02 0.00 0.00 0.00 0.00 0.00 0.00 0.00 0.00 0.00 0.00 0.00 0.00 0.00 0.00 0.00 0.00 0.00 0.00 0.00 0.00 0.00 0.00 0.00 0.08 0.07 0.05 0.17 0.29 0.34 0.33 0.39 0.53 0.72 0.71
0.00 0.00 0.00 0.00 0.00 0.00 0.00 0.00 0.02 0.09 0.02 0.02 0.01 0.00 0.00 0.00 0.00 0.00 0.00 0.00 0.00 0.00 0.00 0.00 0.00 0.00 0.00 0.00 0.00 0.00 0.00 0.00 0.03 0.04 0.09 0.11 0.15 0.24 0.33 0.30 0.38 0.57 0.39 0.28
0.00 0.00 0.00 0.00 0.00 0.00 0.00 0.00 0.00 0.01 0.02 0.02 0.01 0.00 0.00 0.00 0.00 0.00 0.00 0.00 0.00 0.00 0.00 0.01 0.00 0.00 0.01 0.00 0.00 0.00 0.00 0.00 0.02 0.05 0.22 0.16 0.09 0.03 0.11 0.17 0.18 0.18 0.18 0.20
0.00 0.00 0.00 0.00 0.00 0.00 0.00 0.00 0.00 0.00 0.04 0.04 0.00 0.00 0.01 0.00 0.00 0.00 0.00 0.00 0.00 0.00 0.00 0.00 0.00 0.01 0.01 0.01 0.03 0.02 0.02 0.02 0.05 0.12 0.15 0.08 0.10 0.11 0.02 0.07 0.13 0.24 0.32 0.27
0.00 0.00 0.00 0.00 0.00 0.00 0.00 0.00 0.00 0.00 0.00 0.00 0.01 0.00 0.01 0.00 0.00 0.00 0.00 0.00 0.00 0.00 0.00 0.00 0.00 0.01 0.01 0.02 0.06 0.11 0.19 0.30 0.24 0.14 0.04 0.05 0.16 0.37 0.28 0.17 0.20 0.27 0.42 0.46
0.00 0.00 0.00 0.00 0.00 0.00 0.00 0.00 0.00 0.00 0.00 0.00 0.01 0.00 0.00 0.00 0.00 0.00 0.00 0.00 0.00 0.00 0.00 0.00 0.00 0.00 0.00 0.02 0.08 0.16 0.26 0.34 0.42 0.23 0.19 0.39 0.58 0.78 0.69 0.55 0.71 0.51 0.29 0.16
0.00 0.00 0.00 0.00 0.00 0.00 0.00 0.00 0.00 0.00 0.00 0.01 0.03 0.00 0.00 0.00 0.00 0.00 0.00 0.00 0.00 0.00 0.00 0.00 0.00 0.00 0.00 0.00 0.02 0.07 0.09 0.15 0.36 0.42 0.49 0.47 0.41 0.61 0.75 0.63 0.47 0.34 0.25 0.21
0.00 0.00 0.00 0.00 0.00 0.00 0.00 0.00 0.00 0.00 0.00 0.00 0.00 0.00 0.00 0.00 0.00 0.00 0.00 0.00 0.00 0.00 0.00 0.00 0.00 0.00 0.00 0.00 0.00 0.03 0.12 0.15 0.19 0.21 0.18 0.16 0.27 0.24 0.30 0.31 0.30 0.18 0.20 0.13
0.00 0.00 0.00 0.00 0.00 0.00 0.00 0.00 0.00 0.00 0.00 0.00 0.00 0.00 0.00 0.00 0.00 0.00 0.00 0.00 0.00 0.00 0.00 0.00 0.00 0.00 0.00 0.00 0.00 0.01 0.03 0.09 0.16 0.16 0.10 0.16 0.16 0.16 0.20 0.21 0.18 0.17 0.16 0.16
0.00 0.00 0.00 0.00 0.00 0.00 0.00 0.00 0.00 0.00 0.00 0.00 0.00 0.00 0.00 0.00 0.00 0.00 0.00 0.00 0.00 0.00 0.00 0.00 0.00 0.00 0.00 0.00 0.00 0.02 0.06 0.12 0.11 0.09 0.08 0.11 0.11 0.14 0.20 0.18 0.12 0.11 0.17 0.21
0.02 0.00 0.00 0.00 0.00 0.00 0.00 0.00 0.00 0.00 0.00 0.00 0.00 0.00 0.00 0.00 0.00 0.00 0.00 0.00 0.00 0.00 0.00 0.00 0.00 0.00 0.02 0.02 0.02 0.03 0.06 0.05 0.05 0.04 0.05 0.07 0.08 0.12 0.12 0.15 0.13 0.15 0.22 0.28
0.10 0.02 0.04 0.03 0.01 0.04 0.01 0.00 0.00 0.00 0.00 0.00 0.00 0.00 0.00 0.00 0.00 0.00 0.00 0.00 0.00 0.00 0.00 0.00 0.00 0.01 0.02 0.02 0.00 0.01 0.02 0.02 0.02 0.02 0.04 0.04 0.05 0.08 0.09 0.14 0.10 0.12 0.16 0.16
0.14 0.14 0.14 0.08 0.04 0.02 0.00 0.00 0.00 0.00 0.00 0.00 0.00 0.00 0.00 0.00 0.00 0.00 0.00 0.00 0.00 0.00 0.00 0.00 0.00 0.00 0.00 0.00 0.00 0.00 0.01 0.01 0.02 0.03 0.05 0.05 0.05 0.06 0.08 0.13 0.12 0.11 0.11 0.12
0.05 0.17 0.30 0.18 0.12 0.04 0.00 0.00 0.00 0.00 0.00 0.00 0.00 0.00 0.00 0.00 0.00 0.00 0.00 0.00 0.00 0.00 0.00 0.00 0.00 0.00 0.00 0.00 0.00 0.00 0.00 0.00 0.01 0.01 0.03 0.04 0.05 0.05 0.04 0.05 0.07 0.06 0.07 0.07
0.06 0.16 0.25 0.31 0.22 0.05 0.00 0.00 0.00 0.01 0.01 0.00 0.00 0.00 0.00 0.00 0.00 0.00 0.00 0.00 0.00 0.00 0.00 0.00 0.00 0.00 0.00 0.00 0.00 0.00 0.00 0.00 0.00 0.00 0.00 0.01 0.01 0.02 0.02 0.01 0.02 0.03 0.03 0.04
0.19 0.18 0.21 0.27 0.28 0.09 0.01 0.03 0.04 0.02 0.00 0.00 0.00 0.00 0.00 0.00 0.00 0.00 0.00 0.00 0.00 0.00 0.00 0.00 0.00 0.00 0.00 0.00 0.00 0.00 0.00 0.00 0.00 0.00 0.00 0.02 0.02 0.03 0.04 0.04 0.02 0.02 0.02 0.02
0.08 0.13 0.16 0.15 0.16 0.06 0.04 0.06 0.10 0.08 0.04 0.01 0.01 0.00 0.00 0.00 0.00 0.00 0.00 0.00 0.00 0.00 0.00 0.00 0.00 0.00 0.00 0.00 0.00 0.00 0.00 0.00 0.00 0.01 0.03 0.03 0.03 0.04 0.04 0.03 0.05 0.04 0.04 0.04
0.00 0.01 0.02 0.03 0.01 0.00 0.03 0.04 0.02 0.01 0.01 0.02 0.02 0.02 0.01 0.01 0.00 0.00 0.00 0.00 0.00 0.00 0.00 0.00 0.00 0.00 0.00 0.00 0.00 0.00 0.02 0.03 0.04 0.05 0.04 0.04 0.02 0.02 0.02 0.03 0.04 0.05 0.05 0.07
0.00 0.03 0.03 0.01 0.00 0.00 0.02 0.02 0.02 0.01 0.00 0.00 0.01 0.00 0.00 0.00 0.00 0.00 0.00 0.00 0.00 0.00 0.00 0.00 0.00 0.00 0.01 0.01 0.01 0.02 0.03 0.04 0.03 0.01 0.01 0.00 0.00 0.00 0.00 0.01 0.02 0.02 0.03 0.04
0.02 0.04 0.04 0.01 0.03 0.03 0.00 0.01 0.03 0.01 0.00 0.00 0.00 0.00 0.00 0.00 0.00 0.00 0.00 0.00 0.00 0.00 0.01 0.00 0.00 0.00 0.00 0.01 0.01 0.01 0.01 0.01 0.01 0.01 0.00 0.00 0.00 0.00 0.00 0.00 0.01 0.02 0.01 0.02

GFSCGP_prec_precacc24_066.txt.gz
Total_Precipitation_Accumulation
0.00 0.00 0.00 0.00 0.00 0.00 0.00 0.00 0.00 0.00 0.00 0.00 0.00 0.00 0.02 0.14 0.02 0.01 0.00 0.00 0.00 0.00 0.00 0.00 0.00 0.00 0.01 0.05 0.09 0.09 0.15 0.29 0.27 0.18 0.10 0.07 0.06 0.03 0.04 0.04 0.03 0.04 0.06 0.07
0.00 0.00 0.00 0.00 0.00 0.00 0.00 0.00 0.00 0.00 0.00 0.00 0.00 0.00 0.00 0.02 0.00 0.00 0.00 0.00 0.00 0.00 0.00 0.00 0.00 0.00 0.00 0.01 0.01 0.01 0.01 0.10 0.21 0.18 0.06 0.02 0.04 0.02 0.03 0.03 0.03 0.03 0.09 0.08
0.00 0.00 0.00 0.00 0.00 0.00 0.00 0.00 0.00 0.00 0.00 0.00 0.00 0.00 0.00 0.00 0.02 0.06 0.00 0.00 0.00 0.00 0.00 0.00 0.00 0.00 0.00 0.00 0.00 0.00 0.00 0.01 0.04 0.07 0.08 0.04 0.01 0.02 0.03 0.02 0.01 0.01 0.04 0.07
0.00 0.00 0.00 0.00 0.00 0.00 0.00 0.00 0.00 0.00 0.00 0.00 0.00 0.00 0.00 0.00 0.02 0.06 0.00 0.00 0.00 0.00 0.00 0.00 0.00 0.00 0.00 0.00 0.00 0.00 0.00 0.00 0.01 0.01 0.05 0.03 0.01 0.02 0.01 0.01 0.01 0.01 0.03 0.07
0.00 0.00 0.00 0.00 0.00 0.00 0.00 0.00 0.00 0.00 0.00 0.00 0.00 0.00 0.00 0.00 0.00 0.02 0.01 0.00 0.00 0.00 0.00 0.00 0.00 0.00 0.00 0.00 0.00 0.00 0.00 0.00 0.00 0.01 0.03 0.06 0.04 0.00 0.01 0.01 0.05 0.03 0.09 0.14
0.00 0.00 0.00 0.00 0.00 0.00 0.00 0.00 0.00 0.00 0.00 0.00 0.00 0.00 0.01 0.01 0.00 0.00 0.00 0.00 0.00 0.00 0.00 0.00 0.00 0.00 0.00 0.00 0.00 0.00 0.00 0.00 0.00 0.00 0.01 0.04 0.16 0.09 0.07 0.11 0.21 0.23 0.29 0.28
0.00 0.00 0.00 0.00 0.00 0.00 0.00 0.00 0.00 0.02 0.00 0.00 0.00 0.00 0.00 0.00 0.00 0.00 0.00 0.00 0.00 0.00 0.00 0.00 0.00 0.00 0.00 0.00 0.00 0.00 0.00 0.00 0.00 0.00 0.01 0.01 0.12 0.23 0.26 0.28 0.37 0.51 0.67 0.67
0.01 0.01 0.00 0.00 0.00 0.00 0.00 0.00 0.02 0.09 0.02 0.02 0.01 0.00 0.00 0.00 0.00 0.00 0.00 0.00 0.00 0.00 0.00 0.00 0.00 0.00 0.00 0.00 0.00 0.00 0.00 0.00 0.00 0.00 0.06 0.08 0.06 0.08 0.19 0.21 0.31 0.53 0.35 0.26
0.00 0.00 0.00 0.00 0.00 0.00 0.00 0.00 0.00 0.01 0.02 0.02 0.01 0.00 0.00 0.00 0.00 0.00 0.00 0.00 0.00 0.00 0.00 0.01 0.00 0.00 0.01 0.00 0.00 0.00 0.00 0.00 0.00 0.00 0.11 0.13 0.06 0.01 0.08 0.15 0.17 0.16 0.16 0.19
0.00 0.00 0.00 0.00 0.00 0.00 0.00 0.00 0.00 0.00 0.04 0.04 0.00 0.00 0.01 0.00 0.00 0.00 0.00 0.00 0.00 0.00 0.00 0.00 0.00 0.01 0.01 0.01 0.03 0.02 0.02 0.02 0.02 0.01 0.01 0.02 0.09 0.11 0.02 0.06 0.09 0.20 0.30 0.27
0.00 0.00 0.00 0.00 0.00 0.00 0.00 0.00 0.00 0.00 0.00 0.00 0.01 0.00 0.01 0.00 0.00 0.00 0.00 0.00 0.00 0.00 0.00 0.00 0.00 0.01 0.01 0.02 0.06 0.11 0.19 0.30 0.24 0.14 0.04 0.05 0.15 0.36 0.25 0.13 0.16 0.24 0.39 0.45
0.00 0.00 0.00 0.00 0.00 0.00 0.00 0.00 0.00 0.00 0.00 0.00 0.01 0.00 0.00 0.00 0.00 0.00 0.00 0.00 0.00 0.00 0.00 0.00 0.00 0.00 0.00 0.02 0.08 0.16 0.26 0.34 0.42 0.23 0.19 0.38 0.56 0.76 0.66 0.51 0.66 0.48 0.27 0.16
0.00 0.00 0.00 0.00 0.00 0.00 0.00 0.00 0.00 0.00 0.00 0.01 0.03 0.00 0.00 0.00 0.00 0.00 0.00 0.00 0.00 0.00 0.00 0.00 0.00 0.00 0.00 0.00 0.02 0.07 0.09 0.14 0.35 0.42 0.49 0.47 0.40 0.59 0.70 0.57 0.41 0.31 0.24 0.20
0.01 0.01 0.00 0.00 0.00 0.00 0.00 0.00 0.00 0.00 0.00 0.00 0.00 0.00 0.00 0.00 0.00 0.00 0.00 0.00 0.00 0.00 0.00 0.00 0.00 0.00 0.00 0.00 0.00 0.03 0.12 0.14 0.19 0.21 0.18 0.16 0.27 0.24 0.30 0.30 0.28 0.18 0.19 0.13
0.00 0.01 0.00 0.00 0.00 0.00 0.00 0.00 0.00 0.00 0.00 0.00 0.00 0.00 0.00 0.00 0.00 0.00 0.00 0.00 0.00 0.00 0.00 0.00 0.00 0.00 0.00 0.00 0.00 0.01 0.02 0.09 0.16 0.15 0.09 0.15 0.15 0.15 0.19 0.21 0.18 0.17 0.16 0.16
0.00 0.01 0.00 0.00 0.00 0.00 0.00 0.00 0.00 0.00 0.00 0.00 0.00 0.00 0.00 0.00 0.00 0.00 0.00 0.00 0.00 0.00 0.00 0.00 0.00 0.00 0.00 0.00 0.00 0.01 0.06 0.11 0.10 0.09 0.08 0.11 0.11 0.14 0.20 0.18 0.12 0.11 0.17 0.21
0.02 0.01 0.00 0.00 0.00 0.00 0.00 0.00 0.00 0.00 0.00 0.00 0.00 0.00 0.00 0.00 0.00 0.00 0.00 0.00 0.00 0.00 0.00 0.00 0.00 0.00 0.02 0.02 0.02 0.03 0.06 0.05 0.05 0.04 0.05 0.07 0.08 0.12 0.12 0.15 0.13 0.15 0.21 0.26
0.10 0.02 0.04 0.03 0.01 0.04 0.01 0.00 0.00 0.00 0.00 0.00 0.00 0.00 0.00 0.00 0.00 0.00 0.00 0.00 0.00 0.00 0.00 0.00 0.00 0.01 0.02 0.02 0.00 0.01 0.02 0.02 0.02 0.02 0.04 0.04 0.05 0.08 0.09 0.14 0.10 0.11 0.15 0.15
0.14 0.14 0.15 0.08 0.04 0.02 0.00 0.00 0.00 0.00 0.00 0.00 0.00 0.00 0.00 0.00 0.00 0.00 0.00 0.00 0.00 0.00 0.00 0.00 0.00 0.00 0.00 0.00 0.00 0.00 0.01 0.01 0.02 0.03 0.05 0.05 0.05 0.06 0.08 0.13 0.12 0.10 0.10 0.12
0.05 0.17 0.30 0.19 0.12 0.04 0.00 0.00 0.00 0.00 0.00 0.00 0.00 0.00 0.00 0.00 0.00 0.00 0.00 0.00 0.00 0.00 0.00 0.00 0.00 0.00 0.00 0.00 0.00 0.00 0.00 0.00 0.01 0.01 0.03 0.04 0.05 0.05 0.04 0.05 0.07 0.07 0.07 0.08
0.06 0.16 0.25 0.32 0.23 0.05 0.00 0.00 0.00 0.01 0.01 0.00 0.00 0.00 0.00 0.00 0.00 0.00 0.00 0.00 0.00 0.00 0.00 0.00 0.00 0.00 0.00 0.00 0.00 0.00 0.00 0.00 0.00 0.00 0.00 0.01 0.01 0.02 0.01 0.02 0.03 0.04 0.05 0.05
0.19 0.19 0.21 0.28 0.29 0.10 0.01 0.03 0.04 0.02 0.00 0.00 0.00 0.00 0.00 0.00 0.00 0.00 0.00 0.00 0.00 0.00 0.00 0.00 0.00 0.00 0.00 0.00 0.00 0.00 0.00 0.00 0.00 0.00 0.00 0.02 0.02 0.03 0.06 0.07 0.07 0.05 0.03 0.02
0.08 0.13 0.17 0.16 0.16 0.07 0.04 0.06 0.10 0.08 0.04 0.01 0.01 0.00 0.00 0.00 0.00 0.00 0.00 0.00 0.00 0.00 0.00 0.00 0.00 0.00 0.00 0.00 0.00 0.00 0.00 0.00 0.00 0.01 0.03 0.04 0.05 0.07 0.07 0.06 0.05 0.05 0.04 0.04
0.00 0.00 0.02 0.03 0.01 0.00 0.03 0.04 0.02 0.01 0.01 0.02 0.02 0.02 0.01 0.01 0.00 0.00 0.00 0.00 0.00 0.00 0.00 0.00 0.00 0.00 0.00 0.00 0.00 0.00 0.02 0.03 0.04 0.05 0.05 0.05 0.04 0.05 0.03 0.03 0.04 0.05 0.06 0.07
0.00 0.02 0.02 0.01 0.00 0.00 0.02 0.02 0.02 0.01 0.00 0.00 0.01 0.00 0.00 0.00 0.00 0.00 0.00 0.00 0.00 0.00 0.00 0.00 0.00 0.00 0.02 0.02 0.01 0.03 0.03 0.04 0.04 0.02 0.01 0.01 0.00 0.01 0.00 0.01 0.03 0.02 0.03 0.06
0.02 0.04 0.05 0.01 0.03 0.03 0.00 0.01 0.03 0.01 0.00 0.00 0.00 0.00 0.00 0.00 0.00 0.00 0.00 0.00 0.00 0.00 0.01 0.01 0.00 0.00 0.00 0.01 0.01 0.01 0.01 0.02 0.03 0.03 0.02 0.02 0.02 0.01 0.01 0.01 0.02 0.05 0.04 0.06

GFSCGP_prec_precacc24_069.txt.gz
Total_Precipitation_Accumulation
0.00 0.00 0.00 0.00 0.00 0.00 0.00 0.00 0.00 0.00 0.00 0.00 0.00 0.00 0.02 0.14 0.02 0.01 0.00 0.00 0.00 0.00 0.00 0.00 0.00 0.00 0.01 0.05 0.10 0.10 0.15 0.28 0.24 0.15 0.10 0.08 0.08 0.06 0.08 0.06 0.02 0.03 0.05 0.07
0.00 0.00 0.00 0.00 0.00 0.00 0.00 0.00 0.00 0.00 0.00 0.00 0.00 0.00 0.00 0.02 0.00 0.00 0.00 0.00 0.00 0.00 0.00 0.00 0.00 0.00 0.01 0.01 0.01 0.01 0.01 0.09 0.20 0.15 0.06 0.02 0.04 0.02 0.03 0.02 0.02 0.02 0.09 0.08
0.00 0.00 0.00 0.00 0.00 0.00 0.00 0.00 0.00 0.00 0.00 0.00 0.00 0.00 0.00 0.00 0.02 0.06 0.00 0.00 0.00 0.00 0.00 0.00 0.00 0.00 0.00 0.01 0.01 0.00 0.00 0.01 0.04 0.07 0.08 0.04 0.02 0.04 0.03 0.02 0.01 0.01 0.04 0.07
0.01 0.00 0.00 0.00 0.00 0.00 0.00 0.00 0.00 0.00 0.00 0.00 0.00 0.00 0.00 0.00 0.02 0.06 0.00 0.00 0.00 0.00 0.00 0.00 0.00 0.00 0.00 0.00 0.00 0.00 0.00 0.00 0.01 0.02 0.05 0.03 0.01 0.02 0.01 0.01 0.00 0.01 0.03 0.07
0.03 0.00 0.00 0.00 0.00 0.00 0.00 0.00 0.00 0.00 0.00 0.00 0.00 0.00 0.00 0.00 0.00 0.02 0.01 0.00 0.00 0.00 0.00 0.00 0.00 0.00 0.00 0.00 0.00 0.01 0.00 0.00 0.00 0.01 0.03 0.06 0.04 0.00 0.01 0.01 0.04 0.03 0.09 0.12
0.00 0.00 0.00 0.00 0.00 0.00 0.00 0.00 0.00 0.00 0.00 0.00 0.00 0.00 0.01 0.01 0.00 0.00 0.00 0.00 0.00 0.00 0.00 0.00 0.00 0.00 0.00 0.00 0.00 0.00 0.01 0.00 0.00 0.00 0.02 0.04 0.16 0.06 0.01 0.05 0.19 0.22 0.27 0.26
0.01 0.00 0.00 0.00 0.00 0.00 0.00 0.00 0.00 0.01 0.00 0.00 0.00 0.00 0.00 0.00 0.00 0.00 0.00 0.00 0.00 0.00 0.00 0.00 0.00 0.00 0.00 0.00 0.00 0.00 0.00 0.00 0.00 0.00 0.01 0.01 0.08 0.12 0.08 0.10 0.29 0.47 0.64 0.63
0.07 0.05 0.00 0.00 0.00 0.00 0.00 0.00 0.01 0.05 0.02 0.01 0.00 0.00 0.00 0.00 0.00 0.00 0.00 0.00 0.00 0.00 0.00 0.00 0.00 0.00 0.00 0.00 0.00 0.00 0.00 0.00 0.00 0.00 0.03 0.05 0.03 0.06 0.12 0.06 0.15 0.42 0.27 0.18
0.01 0.01 0.00 0.00 0.00 0.00 0.00 0.00 0.00 0.01 0.02 0.02 0.01 0.00 0.00 0.00 0.00 0.00 0.00 0.00 0.00 0.00 0.00 0.01 0.00 0.00 0.01 0.00 0.00 0.00 0.00 0.00 0.00 0.00 0.05 0.06 0.06 0.01 0.05 0.09 0.09 0.09 0.11 0.16
0.00 0.00 0.00 0.00 0.00 0.00 0.00 0.00 0.00 0.00 0.03 0.04 0.00 0.00 0.01 0.00 0.00 0.00 0.00 0.00 0.00 0.00 0.00 0.00 0.00 0.01 0.01 0.01 0.03 0.02 0.02 0.02 0.02 0.01 0.01 0.01 0.09 0.11 0.01 0.04 0.08 0.19 0.30 0.27
0.00 0.00 0.00 0.00 0.00 0.00 0.00 0.00 0.00 0.00 0.00 0.00 0.01 0.01 0.01 0.00 0.00 0.00 0.00 0.00 0.00 0.00 0.00 0.00 0.00 0.01 0.01 0.02 0.06 0.11 0.19 0.30 0.24 0.14 0.04 0.05 0.15 0.35 0.24 0.09 0.13 0.24 0.39 0.45
0.00 0.00 0.00 0.00 0.00 0.00 0.00 0.00 0.00 0.00 0.00 0.00 0.01 0.00 0.00 0.00 0.00 0.00 0.00 0.00 0.00 0.00 0.00 0.00 0.00 0.00 0.00 0.02 0.08 0.16 0.26 0.34 0.42 0.23 0.17 0.36 0.55 0.75 0.66 0.50 0.66 0.47 0.27 0.15
0.02 0.01 0.00 0.02 0.01 0.00 0.00 0.00 0.00 0.00 0.00 0.01 0.03 0.00 0.00 0.00 0.00 0.00 0.00 0.00 0.00 0.00 0.00 0.00 0.00 0.00 0.00 0.00 0.02 0.07 0.09 0.14 0.35 0.42 0.48 0.46 0.38 0.58 0.70 0.57 0.41 0.31 0.23 0.19
0.02 0.03 0.00 0.01 0.00 0.00 0.00 0.00 0.00 0.00 0.00 0.00 0.00 0.00 0.00 0.00 0.00 0.00 0.00 0.00 0.00 0.00 0.00 0.00 0.00 0.00 0.00 0.00 0.00 0.03 0.12 0.14 0.19 0.21 0.17 0.15 0.26 0.23 0.29 0.29 0.28 0.17 0.19 0.13
0.00 0.06 0.04 0.00 0.00 0.00 0.00 0.00 0.00 0.00 0.00 0.00 0.00 0.00 0.00 0.00 0.00 0.00 0.00 0.00 0.00 0.00 0.00 0.00 0.00 0.00 0.00 0.00 0.00 0.01 0.02 0.07 0.13 0.12 0.06 0.12 0.14 0.14 0.18 0.20 0.18 0.17 0.16 0.16
0.00 0.06 0.08 0.01 0.00 0.00 0.00 0.00 0.00 0.00 0.00 0.00 0.00 0.00 0.00 0.00 0.00 0.00 0.00 0.00 0.00 0.00 0.00 0.00 0.00 0.00 0.00 0.00 0.00 0.00 0.04 0.08 0.07 0.08 0.06 0.10 0.10 0.14 0.19 0.18 0.12 0.11 0.17 0.21
0.02 0.03 0.05 0.04 0.00 0.00 0.01 0.00 0.00 0.00 0.00 0.00 0.00 0.00 0.00 0.00 0.00 0.00 0.00 0.00 0.00 0.00 0.00 0.00 0.00 0.00 0.02 0.02 0.02 0.02 0.05 0.03 0.04 0.04 0.05 0.07 0.08 0.12 0.12 0.15 0.13 0.15 0.21 0.26
0.10 0.04 0.07 0.10 0.02 0.06 0.02 0.00 0.00 0.00 0.00 0.00 0.00 0.00 0.00 0.00 0.00 0.00 0.00 0.00 0.00 0.00 0.00 0.00 0.00 0.01 0.02 0.02 0.00 0.01 0.02 0.02 0.02 0.02 0.04 0.04 0.05 0.08 0.09 0.14 0.10 0.11 0.15 0.15
0.14 0.14 0.16 0.10 0.07 0.05 0.00 0.00 0.00 0.01 0.00 0.00 0.00 0.00 0.00 0.00 0.00 0.00 0.00 0.00 0.00 0.00 0.00 0.00 0.00 0.00 0.00 0.00 0.00 0.00 0.01 0.01 0.02 0.03 0.05 0.05 0.05 0.06 0.08 0.13 0.12 0.10 0.10 0.12
0.05 0.17 0.30 0.20 0.13 0.05 0.00 0.00 0.00 0.00 0.01 0.00 0.00 0.00 0.00 0.00 0.00 0.00 0.00 0.00 0.00 0.00 0.00 0.00 0.00 0.00 0.00 0.00 0.00 0.00 0.00 0.00 0.01 0.01 0.03 0.04 0.05 0.05 0.04 0.05 0.07 0.07 0.07 0.08
0.06 0.16 0.25 0.31 0.23 0.05 0.00 0.00 0.00 0.02 0.03 0.00 0.00 0.00 0.00 0.00 0.00 0.00 0.00 0.00 0.00 0.00 0.00 0.00 0.00 0.00 0.00 0.00 0.00 0.00 0.00 0.00 0.00 0.00 0.00 0.01 0.01 0.02 0.01 0.02 0.03 0.04 0.05 0.06
0.19 0.18 0.21 0.27 0.29 0.11 0.01 0.04 0.06 0.02 0.00 0.00 0.00 0.00 0.00 0.00 0.00 0.00 0.00 0.00 0.00 0.00 0.00 0.00 0.00 0.00 0.00 0.00 0.00 0.00 0.00 0.00 0.00 0.00 0.00 0.02 0.02 0.03 0.06 0.07 0.07 0.06 0.05 0.05
0.10 0.13 0.16 0.16 0.17 0.09 0.05 0.07 0.10 0.08 0.04 0.01 0.01 0.00 0.00 0.00 0.00 0.00 0.00 0.00 0.00 0.00 0.00 0.00 0.00 0.00 0.00 0.00 0.00 0.00 0.00 0.00 0.00 0.01 0.03 0.04 0.05 0.07 0.08 0.08 0.09 0.08 0.07 0.08
0.00 0.00 0.04 0.05 0.02 0.02 0.04 0.04 0.02 0.01 0.01 0.02 0.02 0.02 0.01 0.01 0.00 0.00 0.00 0.00 0.00 0.00 0.00 0.00 0.00 0.00 0.00 0.00 0.00 0.00 0.02 0.04 0.06 0.07 0.07 0.06 0.07 0.11 0.07 0.07 0.08 0.08 0.08 0.10
0.00 0.02 0.02 0.01 0.00 0.01 0.02 0.02 0.02 0.01 0.00 0.00 0.01 0.00 0.00 0.00 0.00 0.00 0.00 0.00 0.00 0.00 0.00 0.00 0.00 0.00 0.02 0.02 0.01 0.03 0.04 0.06 0.06 0.06 0.06 0.05 0.05 0.05 0.05 0.04 0.07 0.05 0.06 0.10
0.04 0.06 0.06 0.04 0.04 0.03 0.02 0.01 0.03 0.01 0.00 0.00 0.00 0.00 0.00 0.00 0.00 0.00 0.00 0.00 0.00 0.00 0.01 0.01 0.00 0.00 0.00 0.01 0.01 0.02 0.04 0.05 0.07 0.09 0.08 0.08 0.05 0.03 0.03 0.02 0.04 0.08 0.08 0.09

GFSCGP_prec_precacc24_072.txt.gz
Total_Precipitation_Accumulation
0.00 0.00 0.00 0.00 0.00 0.00 0.00 0.00 0.00 0.00 0.00 0.00 0.00 0.00 0.00 0.01 0.02 0.01 0.00 0.00 0.00 0.00 0.00 0.00 0.00 0.00 0.02 0.06 0.11 0.10 0.15 0.28 0.22 0.12 0.09 0.08 0.10 0.11 0.14 0.09 0.04 0.05 0.08 0.07
0.02 0.01 0.00 0.00 0.00 0.00 0.00 0.00 0.00 0.00 0.00 0.00 0.00 0.00 0.00 0.00 0.00 0.00 0.00 0.00 0.00 0.00 0.00 0.00 0.00 0.00 0.01 0.02 0.02 0.01 0.01 0.09 0.19 0.11 0.05 0.02 0.04 0.03 0.04 0.03 0.03 0.03 0.06 0.07
0.02 0.01 0.00 0.00 0.00 0.00 0.00 0.00 0.00 0.00 0.00 0.00 0.00 0.00 0.00 0.00 0.02 0.06 0.00 0.00 0.00 0.00 0.00 0.00 0.00 0.00 0.00 0.01 0.01 0.01 0.00 0.01 0.04 0.06 0.08 0.03 0.02 0.06 0.04 0.02 0.01 0.02 0.02 0.05
0.08 0.00 0.01 0.01 0.00 0.00 0.00 0.00 0.00 0.00 0.00 0.00 0.00 0.00 0.00 0.00 0.02 0.06 0.00 0.00 0.00 0.00 0.00 0.00 0.00 0.00 0.00 0.00 0.00 0.01 0.00 0.00 0.01 0.02 0.04 0.03 0.01 0.03 0.01 0.01 0.00 0.01 0.03 0.06
0.08 0.01 0.01 0.00 0.00 0.00 0.00 0.00 0.00 0.00 0.00 0.00 0.00 0.00 0.00 0.00 0.00 0.02 0.01 0.00 0.00 0.00 0.00 0.00 0.00 0.00 0.00 0.00 0.00 0.01 0.01 0.00 0.00 0.01 0.03 0.05 0.04 0.01 0.01 0.01 0.01 0.01 0.07 0.11
0.01 0.01 0.03 0.01 0.00 0.00 0.00 0.01 0.00 0.00 0.00 0.00 0.00 0.00 0.00 0.00 0.00 0.00 0.00 0.00 0.00 0.00 0.00 0.00 0.00 0.00 0.00 0.00 0.00 0.01 0.01 0.00 0.00 0.00 0.02 0.02 0.10 0.05 0.01 0.03 0.08 0.13 0.24 0.25
0.02 0.04 0.02 0.00 0.00 0.00 0.00 0.01 0.00 0.00 0.00 0.00 0.00 0.00 0.00 0.00 0.00 0.00 0.00 0.00 0.00 0.00 0.00 0.00 0.00 0.00 0.00 0.00 0.00 0.00 0.00 0.00 0.00 0.01 0.01 0.00 0.03 0.09 0.06 0.01 0.05 0.14 0.12 0.26
0.12 0.08 0.02 0.01 0.00 0.00 0.00 0.00 0.00 0.01 0.00 0.00 0.00 0.00 0.00 0.00 0.00 0.00 0.00 0.00 0.00 0.00 0.00 0.00 0.00 0.00 0.00 0.00 0.00 0.00 0.00 0.00 0.00 0.00 0.01 0.02 0.01 0.01 0.01 0.02 0.01 0.05 0.04 0.07
0.02 0.03 0.01 0.01 0.00 0.01 0.02 0.01 0.00 0.01 0.01 0.01 0.00 0.00 0.00 0.00 0.00 0.00 0.00 0.00 0.00 0.00 0.00 0.01 0.00 0.00 0.01 0.00 0.00 0.00 0.00 0.00 0.00 0.00 0.01 0.01 0.02 0.00 0.02 0.07 0.09 0.07 0.05 0.09
0.01 0.05 0.01 0.01 0.02 0.01 0.00 0.00 0.00 0.00 0.02 0.03 0.01 0.00 0.00 0.00 0.00 0.00 0.00 0.00 0.00 0.00 0.00 0.00 0.00 0.01 0.01 0.01 0.03 0.02 0.02 0.01 0.02 0.01 0.02 0.01 0.06 0.09 0.01 0.03 0.08 0.16 0.24 0.23
0.00 0.03 0.02 0.04 0.05 0.01 0.00 0.00 0.00 0.00 0.00 0.00 0.01 0.01 0.01 0.00 0.00 0.00 0.00 0.00 0.00 0.00 0.00 0.00 0.00 0.01 0.01 0.02 0.06 0.11 0.19 0.29 0.20 0.14 0.04 0.04 0.12 0.33 0.23 0.08 0.11 0.19 0.36 0.44
0.00 0.01 0.00 0.01 0.01 0.00 0.00 0.00 0.00 0.00 0.00 0.00 0.01 0.01 0.00 0.00 0.00 0.00 0.00 0.00 0.00 0.00 0.00 0.00 0.00 0.00 0.00 0.02 0.08 0.16 0.26 0.34 0.25 0.19 0.13 0.32 0.50 0.74 0.60 0.46 0.60 0.42 0.26 0.15
0.03 0.01 0.00 0.03 0.03 0.01 0.01 0.01 0.00 0.00 0.02 0.03 0.02 0.00 0.00 0.00 0.00 0.00 0.00 0.00 0.00 0.00 0.00 0.00 0.00 0.00 0.00 0.00 0.02 0.07 0.09 0.14 0.25 0.33 0.35 0.42 0.31 0.51 0.67 0.49 0.37 0.28 0.22 0.19
0.02 0.03 0.01 0.01 0.07 0.05 0.02 0.00 0.00 0.00 0.03 0.01 0.00 0.00 0.00 0.00 0.00 0.00 0.00 0.00 0.00 0.00 0.00 0.00 0.00 0.00 0.00 0.00 0.00 0.03 0.12 0.14 0.18 0.15 0.11 0.13 0.17 0.15 0.26 0.28 0.26 0.16 0.18 0.12
0.02 0.08 0.08 0.04 0.02 0.03 0.03 0.01 0.00 0.00 0.00 0.00 0.00 0.00 0.00 0.00 0.00 0.00 0.00 0.00 0.00 0.00 0.00 0.00 0.00 0.00 0.00 0.00 0.00 0.01 0.01 0.04 0.08 0.05 0.04 0.09 0.09 0.13 0.16 0.18 0.16 0.16 0.16 0.16
0.01 0.07 0.15 0.04 0.00 0.04 0.04 0.01 0.00 0.01 0.01 0.00 0.00 0.00 0.00 0.00 0.00 0.00 0.00 0.00 0.00 0.00 0.00 0.00 0.00 0.00 0.00 0.00 0.00 0.00 0.03 0.07 0.06 0.07 0.06 0.10 0.10 0.13 0.19 0.17 0.12 0.11 0.17 0.21
0.02 0.07 0.14 0.24 0.04 0.01 0.02 0.00 0.00 0.00 0.00 0.00 0.01 0.00 0.00 0.00 0.00 0.00 0.00 0.00 0.00 0.00 0.00 0.00 0.00 0.00 0.01 0.01 0.02 0.02 0.04 0.02 0.02 0.03 0.04 0.06 0.07 0.12 0.12 0.15 0.13 0.15 0.21 0.26
0.10 0.06 0.17 0.19 0.05 0.09 0.04 0.01 0.00 0.01 0.01 0.01 0.01 0.00 0.00 0.00 0.00 0.00 0.00 0.00 0.00 0.00 0.00 0.00 0.00 0.01 0.01 0.01 0.00 0.00 0.02 0.01 0.01 0.02 0.04 0.04 0.05 0.08 0.09 0.14 0.10 0.11 0.15 0.15
0.14 0.13 0.21 0.14 0.10 0.11 0.02 0.03 0.02 0.04 0.07 0.05 0.02 0.00 0.00 0.00 0.00 0.01 0.00 0.00 0.00 0.00 0.00 0.00 0.00 0.00 0.00 0.00 0.00 0.00 0.01 0.02 0.03 0.03 0.06 0.05 0.05 0.06 0.08 0.13 0.12 0.10 0.10 0.12
0.05 0.17 0.27 0.21 0.18 0.07 0.01 0.01 0.05 0.15 0.24 0.03 0.02 0.00 0.00 0.00 0.00 0.01 0.00 0.00 0.00 0.00 0.00 0.00 0.00 0.00 0.00 0.00 0.00 0.00 0.00 0.00 0.01 0.01 0.03 0.04 0.05 0.05 0.04 0.05 0.07 0.07 0.07 0.08
0.05 0.16 0.23 0.29 0.25 0.05 0.00 0.00 0.01 0.08 0.12 0.01 0.00 0.00 0.00 0.00 0.00 0.00 0.00 0.00 0.00 0.00 0.00 0.00 0.00 0.00 0.00 0.00 0.00 0.00 0.00 0.00 0.00 0.00 0.00 0.01 0.03 0.03 0.02 0.03 0.03 0.04 0.05 0.06
0.14 0.15 0.20 0.25 0.27 0.12 0.02 0.05 0.07 0.04 0.01 0.00 0.00 0.00 0.00 0.00 0.00 0.00 0.00 0.00 0.00 0.00 0.00 0.00 0.00 0.00 0.00 0.00 0.00 0.00 0.00 0.00 0.00 0.00 0.00 0.02 0.02 0.04 0.09 0.11 0.09 0.07 0.05 0.05
0.11 0.10 0.14 0.16 0.17 0.11 0.06 0.08 0.10 0.09 0.05 0.01 0.01 0.00 0.00 0.00 0.00 0.00 0.00 0.00 0.00 0.00 0.00 0.00 0.00 0.00 0.00 0.00 0.00 0.00 0.00 0.00 0.00 0.01 0.03 0.04 0.05 0.07 0.09 0.10 0.12 0.08 0.08 0.09
0.03 0.01 0.07 0.09 0.09 0.09 0.06 0.04 0.02 0.01 0.01 0.02 0.02 0.02 0.01 0.01 0.00 0.00 0.00 0.00 0.00 0.00 0.00 0.00 0.00 0.00 0.00 0.00 0.00 0.00 0.02 0.04 0.06 0.08 0.08 0.08 0.09 0.13 0.08 0.07 0.09 0.10 0.11 0.15
0.03 0.03 0.03 0.05 0.10 0.18 0.06 0.01 0.01 0.01 0.00 0.00 0.01 0.00 0.00 0.00 0.00 0.00 0.00 0.00 0.00 0.00 0.00 0.00 0.00 0.00 0.02 0.02 0.01 0.03 0.04 0.06 0.07 0.07 0.07 0.08 0.08 0.09 0.09 0.10 0.14 0.12 0.14 0.20
0.06 0.09 0.09 0.09 0.07 0.14 0.05 0.01 0.02 0.01 0.00 0.00 0.00 0.00 0.00 0.00 0.00 0.00 0.00 0.00 0.00 0.00 0.01 0.01 0.00 0.00 0.00 0.01 0.01 0.02 0.04 0.05 0.07 0.09 0.10 0.12 0.10 0.11 0.12 0.14 0.19 0.26 0.24 0.24

GFSCGP_prec_precacc24_075.txt.gz
Total_Precipitation_Accumulation
0.00 0.00 0.00 0.00 0.00 0.00 0.00 0.00 0.00 0.00 0.00 0.00 0.00 0.00 0.00 0.00 0.00 0.00 0.00 0.00 0.00 0.00 0.00 0.00 0.00 0.00 0.02 0.06 0.11 0.10 0.15 0.28 0.22 0.12 0.10 0.10 0.13 0.17 0.20 0.13 0.06 0.04 0.07 0.07
0.02 0.01 0.00 0.00 0.00 0.00 0.00 0.00 0.00 0.00 0.00 0.00 0.00 0.00 0.00 0.00 0.00 0.00 0.00 0.00 0.00 0.00 0.00 0.00 0.00 0.00 0.01 0.02 0.02 0.01 0.01 0.09 0.19 0.11 0.05 0.02 0.04 0.04 0.04 0.04 0.03 0.02 0.02 0.04
0.02 0.01 0.00 0.00 0.00 0.00 0.00 0.00 0.00 0.00 0.00 0.00 0.00 0.00 0.00 0.00 0.00 0.00 0.00 0.00 0.00 0.00 0.00 0.00 0.00 0.00 0.00 0.01 0.01 0.01 0.00 0.01 0.04 0.06 0.07 0.02 0.02 0.06 0.05 0.02 0.01 0.01 0.01 0.02
0.08 0.00 0.01 0.01 0.00 0.00 0.00 0.00 0.00 0.00 0.00 0.00 0.00 0.00 0.00 0.00 0.00 0.00 0.00 0.00 0.00 0.00 0.00 0.00 0.00 0.00 0.00 0.00 0.00 0.01 0.00 0.00 0.01 0.02 0.03 0.02 0.01 0.04 0.02 0.01 0.00 0.01 0.02 0.03
0.08 0.01 0.01 0.00 0.00 0.00 0.00 0.00 0.00 0.00 0.00 0.00 0.00 0.00 0.00 0.00 0.00 0.00 0.00 0.00 0.00 0.00 0.00 0.00 0.00 0.00 0.00 0.00 0.00 0.01 0.01 0.00 0.00 0.02 0.02 0.01 0.01 0.00 0.01 0.01 0.00 0.01 0.01 0.02
0.01 0.01 0.04 0.01 0.00 0.00 0.00 0.02 0.02 0.00 0.00 0.00 0.00 0.00 0.00 0.00 0.00 0.00 0.00 0.00 0.00 0.00 0.00 0.00 0.00 0.00 0.00 0.00 0.00 0.01 0.01 0.00 0.00 0.00 0.02 0.01 0.00 0.00 0.00 0.01 0.00 0.00 0.01 0.04
0.02 0.04 0.02 0.00 0.00 0.00 0.00 0.05 0.08 0.06 0.02 0.01 0.00 0.00 0.00 0.00 0.00 0.00 0.00 0.00 0.00 0.00 0.00 0.00 0.00 0.00 0.00 0.00 0.00 0.00 0.00 0.00 0.00 0.00 0.00 0.00 0.00 0.00 0.00 0.00 0.00 0.00 0.00 0.01
0.12 0.08 0.02 0.01 0.00 0.01 0.02 0.05 0.06 0.04 0.01 0.00 0.00 0.00 0.00 0.00 0.00 0.00 0.00 0.00 0.00 0.00 0.00 0.00 0.00 0.00 0.00 0.00 0.00 0.00 0.00 0.00 0.00 0.00 0.01 0.00 0.00 0.00 0.00 0.00 0.00 0.00 0.01 0.02
0.02 0.04 0.01 0.02 0.01 0.04 0.05 0.04 0.01 0.03 0.03 0.04 0.00 0.00 0.00 0.00 0.00 0.00 0.00 0.00 0.00 0.00 0.00 0.00 0.00 0.00 0.01 0.00 0.00 0.00 0.00 0.00 0.00 0.00 0.01 0.01 0.01 0.00 0.00 0.03 0.03 0.03 0.04 0.07
0.01 0.05 0.01 0.01 0.06 0.06 0.01 0.01 0.07 0.14 0.07 0.05 0.01 0.01 0.00 0.00 0.00 0.00 0.00 0.00 0.00 0.00 0.00 0.00 0.00 0.01 0.01 0.01 0.03 0.02 0.01 0.00 0.01 0.01 0.02 0.01 0.04 0.05 0.01 0.03 0.07 0.15 0.23 0.21
0.00 0.05 0.02 0.06 0.13 0.05 0.02 0.04 0.12 0.09 0.02 0.01 0.03 0.03 0.02 0.00 0.00 0.00 0.00 0.00 0.00 0.00 0.00 0.00 0.00 0.00 0.00 0.01 0.03 0.07 0.12 0.15 0.14 0.08 0.03 0.03 0.09 0.15 0.17 0.08 0.11 0.19 0.34 0.42
0.01 0.03 0.01 0.01 0.01 0.01 0.04 0.04 0.06 0.10 0.03 0.00 0.02 0.06 0.01 0.00 0.00 0.00 0.00 0.00 0.00 0.00 0.00 0.00 0.00 0.00 0.00 0.00 0.01 0.02 0.07 0.09 0.17 0.11 0.06 0.07 0.23 0.37 0.39 0.38 0.59 0.37 0.20 0.13
0.03 0.03 0.02 0.04 0.03 0.02 0.07 0.03 0.03 0.06 0.08 0.06 0.02 0.02 0.02 0.00 0.00 0.00 0.00 0.00 0.00 0.00 0.00 0.00 0.00 0.00 0.00 0.00 0.00 0.00 0.01 0.02 0.05 0.11 0.11 0.10 0.16 0.43 0.58 0.34 0.27 0.23 0.18 0.17
0.02 0.03 0.02 0.02 0.14 0.30 0.19 0.04 0.01 0.06 0.17 0.05 0.01 0.01 0.03 0.01 0.00 0.00 0.00 0.00 0.00 0.00 0.00 0.00 0.01 0.00 0.00 0.00 0.00 0.00 0.00 0.01 0.01 0.03 0.05 0.07 0.09 0.13 0.25 0.23 0.20 0.14 0.16 0.11
0.02 0.09 0.09 0.04 0.03 0.06 0.13 0.16 0.08 0.10 0.07 0.06 0.01 0.01 0.03 0.02 0.01 0.00 0.00 0.00 0.00 0.00 0.00 0.00 0.01 0.02 0.01 0.01 0.01 0.01 0.01 0.02 0.03 0.04 0.04 0.08 0.07 0.11 0.12 0.16 0.13 0.14 0.14 0.15
0.01 0.07 0.15 0.04 0.01 0.07 0.13 0.14 0.09 0.09 0.06 0.06 0.04 0.04 0.07 0.04 0.02 0.00 0.00 0.00 0.00 0.00 0.00 0.00 0.00 0.00 0.00 0.02 0.06 0.05 0.02 0.03 0.04 0.06 0.05 0.08 0.09 0.12 0.16 0.14 0.09 0.09 0.16 0.21
0.04 0.07 0.16 0.25 0.08 0.08 0.10 0.05 0.09 0.11 0.07 0.05 0.08 0.06 0.04 0.06 0.02 0.00 0.00 0.00 0.00 0.00 0.00 0.00 0.00 0.00 0.00 0.00 0.00 0.01 0.06 0.09 0.07 0.05 0.04 0.06 0.07 0.09 0.11 0.14 0.13 0.15 0.21 0.26
0.09 0.07 0.18 0.23 0.12 0.17 0.05 0.02 0.03 0.09 0.09 0.03 0.04 0.03 0.03 0.06 0.01 0.00 0.00 0.00 0.00 0.00 0.00 0.00 0.00 0.00 0.00 0.00 0.00 0.00 0.01 0.04 0.05 0.06 0.07 0.07 0.07 0.09 0.10 0.14 0.10 0.11 0.15 0.15
0.11 0.13 0.23 0.18 0.18 0.14 0.03 0.10 0.04 0.07 0.11 0.09 0.08 0.07 0.06 0.06 0.01 0.01 0.00 0.00 0.00 0.00 0.00 0.00 0.00 0.00 0.00 0.00 0.00 0.00 0.00 0.01 0.01 0.02 0.07 0.12 0.12 0.11 0.14 0.16 0.13 0.11 0.11 0.12
0.03 0.16 0.27 0.22 0.24 0.12 0.02 0.05 0.07 0.16 0.32 0.15 0.39 0.19 0.04 0.00 0.02 0.01 0.00 0.00 0.00 0.00 0.00 0.00 0.00 0.00 0.00 0.00 0.00 0.00 0.00 0.00 0.00 0.01 0.05 0.08 0.09 0.09 0.13 0.12 0.12 0.11 0.11 0.10
0.04 0.15 0.23 0.28 0.29 0.08 0.02 0.00 0.02 0.23 0.27 0.16 0.14 0.03 0.00 0.00 0.00 0.00 0.00 0.00 0.00 0.00 0.00 0.00 0.00 0.00 0.00 0.00 0.00 0.00 0.00 0.00 0.00 0.00 0.00 0.01 0.03 0.07 0.05 0.10 0.07 0.09 0.16 0.14
0.10 0.16 0.20 0.24 0.25 0.12 0.05 0.14 0.19 0.09 0.08 0.04 0.01 0.00 0.00 0.00 0.00 0.00 0.00 0.00 0.00 0.00 0.00 0.00 0.00 0.00 0.00 0.00 0.00 0.00 0.00 0.00 0.00 0.00 0.00 0.02 0.02 0.04 0.10 0.13 0.14 0.12 0.11 0.11
0.08 0.09 0.13 0.15 0.17 0.15 0.08 0.14 0.13 0.09 0.05 0.01 0.01 0.00 0.00 0.00 0.00 0.00 0.00 0.00 0.00 0.00 0.00 0.00 0.00 0.00 0.00 0.00 0.00 0.00 0.00 0.00 0.00 0.01 0.03 0.04 0.05 0.07 0.09 0.11 0.14 0.12 0.11 0.13
0.07 0.02 0.10 0.12 0.20 0.11 0.05 0.01 0.01 0.01 0.01 0.02 0.02 0.01 0.00 0.00 0.00 0.00 0.00 0.00 0.00 0.00 0.00 0.00 0.00 0.00 0.00 0.00 0.00 0.00 0.02 0.04 0.06 0.08 0.08 0.08 0.09 0.13 0.08 0.07 0.09 0.11 0.13 0.17
0.31 0.06 0.14 0.28 0.78 0.34 0.16 0.00 0.00 0.00 0.00 0.00 0.01 0.00 0.00 0.00 0.00 0.00 0.00 0.00 0.00 0.00 0.00 0.00 0.00 0.00 0.02 0.02 0.01 0.03 0.04 0.06 0.07 0.07 0.07 0.08 0.08 0.09 0.09 0.10 0.15 0.14 0.19 0.26
0.22 0.18 0.28 0.30 0.45 0.42 0.21 0.02 0.00 0.00 0.00 0.00 0.00 0.00 0.00 0.00 0.00 0.00 0.00 0.00 0.00 0.00 0.01 0.01 0.00 0.00 0.00 0.01 0.01 0.02 0.04 0.05 0.07 0.09 0.10 0.12 0.10 0.11 0.12 0.14 0.20 0.30 0.33 0.36

GFSCGP_prec_precacc24_078.txt.gz
Total_Precipitation_Accumulation
0.00 0.00 0.00 0.00 0.00 0.00 0.00 0.00 0.00 0.00 0.00 0.00 0.00 0.00 0.00 0.00 0.00 0.00 0.00 0.00 0.00 0.00 0.00 0.00 0.00 0.00 0.01 0.06 0.11 0.10 0.15 0.28 0.22 0.12 0.12 0.17 0.19 0.25 0.34 0.15 0.07 0.05 0.07 0.07
0.02 0.01 0.00 0.00 0.00 0.00 0.00 0.00 0.00 0.00 0.00 0.00 0.00 0.00 0.00 0.00 0.00 0.00 0.00 0.00 0.00 0.00 0.00 0.00 0.00 0.00 0.01 0.02 0.02 0.01 0.01 0.09 0.19 0.11 0.06 0.04 0.07 0.11 0.15 0.09 0.05 0.04 0.03 0.04
0.02 0.01 0.00 0.00 0.00 0.00 0.00 0.00 0.00 0.00 0.00 0.00 0.00 0.00 0.00 0.00 0.00 0.00 0.00 0.00 0.00 0.00 0.00 0.00 0.00 0.00 0.00 0.01 0.01 0.01 0.00 0.01 0.04 0.06 0.07 0.03 0.04 0.11 0.23 0.17 0.10 0.04 0.02 0.02
0.08 0.00 0.01 0.01 0.00 0.00 0.00 0.00 0.00 0.00 0.00 0.00 0.00 0.00 0.00 0.00 0.00 0.00 0.00 0.00 0.00 0.00 0.00 0.00 0.00 0.00 0.00 0.00 0.00 0.01 0.01 0.00 0.01 0.02 0.03 0.02 0.03 0.06 0.07 0.05 0.04 0.03 0.02 0.01
0.08 0.01 0.01 0.00 0.00 0.00 0.00 0.00 0.00 0.00 0.00 0.00 0.00 0.00 0.00 0.00 0.00 0.00 0.00 0.00 0.00 0.00 0.00 0.00 0.00 0.00 0.00 0.00 0.00 0.01 0.01 0.00 0.00 0.02 0.02 0.01 0.01 0.00 0.02 0.01 0.01 0.02 0.01 0.01
0.01 0.01 0.04 0.01 0.00 0.00 0.00 0.02 0.02 0.00 0.00 0.00 0.00 0.00 0.00 0.00 0.00 0.00 0.00 0.00 0.00 0.00 0.00 0.00 0.00 0.00 0.00 0.00 0.00 0.01 0.01 0.00 0.00 0.01 0.02 0.01 0.00 0.00 0.00 0.01 0.00 0.00 0.00 0.01
0.02 0.04 0.02 0.00 0.00 0.00 0.00 0.07 0.12 0.07 0.02 0.01 0.00 0.00 0.00 0.00 0.00 0.00 0.00 0.00 0.00 0.00 0.00 0.00 0.00 0.00 0.00 0.00 0.00 0.00 0.00 0.01 0.00 0.00 0.00 0.00 0.00 0.00 0.00 0.00 0.00 0.00 0.00 0.00
0.12 0.08 0.02 0.01 0.00 0.01 0.02 0.08 0.08 0.06 0.02 0.00 0.00 0.00 0.00 0.00 0.00 0.00 0.00 0.00 0.00 0.00 0.00 0.00 0.00 0.00 0.00 0.00 0.00 0.00 0.00 0.00 0.01 0.00 0.00 0.00 0.00 0.00 0.00 0.00 0.00 0.00 0.00 0.00
0.02 0.04 0.01 0.02 0.01 0.06 0.10 0.08 0.02 0.11 0.08 0.04 0.00 0.00 0.00 0.00 0.00 0.00 0.00 0.00 0.00 0.00 0.00 0.00 0.00 0.00 0.01 0.00 0.00 0.00 0.00 0.00 0.00 0.01 0.01 0.00 0.00 0.00 0.00 0.03 0.00 0.02 0.03 0.02
0.01 0.05 0.01 0.01 0.07 0.09 0.05 0.06 0.15 0.28 0.16 0.08 0.01 0.01 0.00 0.00 0.00 0.00 0.00 0.00 0.00 0.00 0.00 0.00 0.00 0.01 0.01 0.01 0.02 0.01 0.00 0.00 0.00 0.00 0.01 0.00 0.00 0.00 0.00 0.00 0.03 0.06 0.15 0.15
0.00 0.05 0.02 0.07 0.13 0.08 0.09 0.12 0.16 0.15 0.04 0.03 0.05 0.06 0.02 0.00 0.00 0.00 0.00 0.00 0.00 0.00 0.00 0.00 0.00 0.00 0.00 0.01 0.02 0.05 0.05 0.06 0.01 0.00 0.00 0.00 0.00 0.01 0.01 0.03 0.03 0.05 0.15 0.18
0.01 0.04 0.01 0.01 0.01 0.02 0.09 0.10 0.11 0.14 0.06 0.01 0.05 0.11 0.02 0.02 0.00 0.00 0.00 0.00 0.00 0.00 0.00 0.00 0.00 0.00 0.00 0.00 0.00 0.02 0.07 0.07 0.10 0.06 0.02 0.01 0.00 0.01 0.02 0.05 0.23 0.22 0.10 0.06
0.03 0.03 0.02 0.04 0.04 0.03 0.08 0.04 0.09 0.14 0.12 0.08 0.05 0.06 0.10 0.02 0.01 0.00 0.00 0.00 0.00 0.00 0.00 0.00 0.00 0.00 0.00 0.00 0.00 0.00 0.01 0.02 0.03 0.07 0.07 0.05 0.04 0.02 0.05 0.14 0.15 0.14 0.10 0.08
0.02 0.03 0.02 0.02 0.18 0.47 0.37 0.21 0.16 0.22 0.30 0.07 0.02 0.05 0.27 0.19 0.06 0.00 0.00 0.00 0.00 0.00 0.00 0.02 0.03 0.01 0.00 0.00 0.01 0.01 0.01 0.01 0.00 0.00 0.01 0.03 0.02 0.03 0.05 0.13 0.15 0.10 0.12 0.06
0.02 0.09 0.09 0.04 0.03 0.08 0.17 0.18 0.19 0.30 0.19 0.08 0.02 0.10 0.25 0.39 0.11 0.01 0.00 0.00 0.00 0.00 0.00 0.01 0.03 0.04 0.05 0.04 0.02 0.01 0.00 0.01 0.01 0.01 0.00 0.01 0.03 0.04 0.04 0.08 0.09 0.11 0.10 0.12
0.02 0.07 0.15 0.04 0.01 0.07 0.14 0.15 0.11 0.15 0.10 0.07 0.05 0.16 0.21 0.34 0.21 0.01 0.00 0.00 0.00 0.00 0.00 0.00 0.00 0.00 0.01 0.07 0.14 0.13 0.07 0.04 0.03 0.01 0.03 0.03 0.04 0.05 0.06 0.07 0.05 0.07 0.13 0.19
0.09 0.11 0.16 0.25 0.08 0.08 0.10 0.05 0.14 0.13 0.11 0.07 0.12 0.12 0.22 0.24 0.29 0.09 0.00 0.00 0.00 0.00 0.00 0.00 0.00 0.00 0.00 0.00 0.01 0.02 0.08 0.09 0.08 0.10 0.08 0.06 0.06 0.06 0.06 0.09 0.11 0.13 0.19 0.25
0.01 0.06 0.18 0.23 0.14 0.21 0.08 0.04 0.19 0.28 0.24 0.08 0.14 0.19 0.30 0.21 0.12 0.04 0.01 0.00 0.00 0.00 0.00 0.00 0.00 0.00 0.00 0.00 0.00 0.00 0.01 0.04 0.04 0.07 0.08 0.06 0.06 0.07 0.09 0.12 0.08 0.11 0.16 0.17
0.00 0.02 0.16 0.18 0.19 0.15 0.08 0.20 0.12 0.40 0.40 0.22 0.24 0.40 0.29 0.14 0.02 0.01 0.00 0.00 0.00 0.00 0.00 0.00 0.00 0.00 0.00 0.00 0.00 0.00 0.00 0.00 0.01 0.01 0.05 0.11 0.14 0.13 0.17 0.16 0.12 0.12 0.13 0.14
0.00 0.01 0.04 0.11 0.24 0.17 0.06 0.08 0.10 0.24 0.51 0.30 0.48 0.37 0.24 0.12 0.05 0.02 0.00 0.00 0.00 0.00 0.00 0.00 0.00 0.00 0.00 0.00 0.00 0.00 0.00 0.00 0.00 0.01 0.04 0.07 0.08 0.09 0.15 0.15 0.14 0.13 0.13 0.12
0.02 0.03 0.05 0.09 0.18 0.08 0.03 0.04 0.07 0.44 0.45 0.28 0.21 0.13 0.14 0.10 0.04 0.01 0.00 0.00 0.00 0.00 0.00 0.00 0.00 0.00 0.00 0.00 0.00 0.00 0.00 0.00 0.00 0.00 0.00 0.01 0.03 0.07 0.05 0.10 0.08 0.13 0.21 0.19
0.02 0.05 0.04 0.07 0.16 0.12 0.10 0.19 0.30 0.26 0.22 0.14 0.10 0.06 0.04 0.02 0.01 0.01 0.00 0.00 0.00 0.00 0.00 0.00 0.00 0.00 0.00 0.00 0.00 0.00 0.00 0.00 0.00 0.00 0.00 0.02 0.02 0.04 0.10 0.13 0.14 0.13 0.14 0.16
0.10 0.02 0.04 0.03 0.14 0.20 0.12 0.18 0.24 0.15 0.16 0.04 0.03 0.03 0.01 0.00 0.00 0.00 0.00 0.00 0.00 0.00 0.00 0.00 0.00 0.00 0.00 0.00 0.00 0.00 0.00 0.00 0.00 0.01 0.03 0.04 0.05 0.07 0.09 0.11 0.14 0.12 0.11 0.14
0.17 0.03 0.15 0.16 0.38 0.13 0.06 0.01 0.01 0.03 0.03 0.02 0.02 0.01 0.00 0.00 0.00 0.00 0.00 0.00 0.00 0.00 0.00 0.00 0.00 0.00 0.00 0.00 0.00 0.00 0.02 0.04 0.06 0.08 0.08 0.08 0.09 0.13 0.08 0.07 0.09 0.11 0.13 0.18
0.62 0.12 0.23 0.43 1.17 0.44 0.25 0.13 0.02 0.01 0.00 0.00 0.00 0.00 0.00 0.00 0.00 0.00 0.00 0.00 0.00 0.00 0.00 0.00 0.00 0.00 0.02 0.02 0.01 0.03 0.04 0.06 0.07 0.07 0.07 0.08 0.08 0.09 0.09 0.10 0.16 0.14 0.19 0.26
0.51 0.39 0.47 0.56 0.81 0.66 0.37 0.09 0.01 0.01 0.00 0.00 0.00 0.00 0.00 0.00 0.00 0.00 0.00 0.00 0.00 0.00 0.01 0.01 0.00 0.00 0.01 0.01 0.02 0.02 0.04 0.05 0.07 0.09 0.10 0.12 0.10 0.11 0.12 0.14 0.21 0.31 0.34 0.37

GFSCGP_prec_precacc24_081.txt.gz
Total_Precipitation_Accumulation
0.00 0.00 0.00 0.00 0.00 0.00 0.00 0.00 0.00 0.00 0.00 0.00 0.00 0.00 0.00 0.00 0.00 0.00 0.00 0.00 0.00 0.00 0.00 0.00 0.00 0.00 0.01 0.06 0.11 0.10 0.12 0.23 0.18 0.12 0.11 0.19 0.28 0.35 0.58 0.44 0.15 0.20 0.12 0.05
0.02 0.01 0.00 0.00 0.00 0.00 0.00 0.00 0.00 0.00 0.00 0.00 0.00 0.00 0.00 0.00 0.00 0.00 0.00 0.00 0.00 0.00 0.00 0.00 0.00 0.00 0.00 0.01 0.02 0.01 0.01 0.09 0.17 0.11 0.06 0.05 0.09 0.17 0.37 0.30 0.10 0.18 0.10 0.05
0.02 0.01 0.00 0.00 0.00 0.00 0.00 0.00 0.00 0.00 0.00 0.00 0.00 0.00 0.00 0.00 0.00 0.00 0.00 0.00 0.00 0.00 0.00 0.00 0.00 0.00 0.00 0.01 0.01 0.01 0.00 0.01 0.04 0.06 0.08 0.03 0.06 0.16 0.61 0.50 0.17 0.10 0.08 0.05
0.08 0.00 0.01 0.01 0.00 0.00 0.00 0.00 0.00 0.00 0.00 0.00 0.00 0.00 0.00 0.00 0.00 0.00 0.00 0.00 0.00 0.00 0.00 0.00 0.00 0.00 0.00 0.00 0.00 0.01 0.01 0.00 0.01 0.02 0.03 0.02 0.03 0.09 0.24 0.34 0.21 0.11 0.06 0.04
0.08 0.01 0.01 0.00 0.00 0.00 0.00 0.00 0.00 0.00 0.00 0.00 0.00 0.00 0.00 0.00 0.00 0.00 0.00 0.00 0.00 0.00 0.00 0.00 0.00 0.00 0.00 0.00 0.00 0.01 0.01 0.00 0.00 0.02 0.02 0.01 0.01 0.01 0.08 0.24 0.29 0.27 0.13 0.09
0.01 0.01 0.04 0.01 0.00 0.00 0.00 0.02 0.02 0.00 0.01 0.01 0.00 0.00 0.00 0.00 0.00 0.00 0.00 0.00 0.00 0.00 0.00 0.00 0.00 0.00 0.00 0.00 0.00 0.01 0.01 0.00 0.00 0.01 0.02 0.01 0.00 0.00 0.01 0.08 0.16 0.22 0.16 0.15
0.02 0.04 0.02 0.00 0.00 0.00 0.00 0.07 0.13 0.08 0.03 0.02 0.00 0.00 0.00 0.00 0.00 0.00 0.00 0.00 0.00 0.00 0.00 0.00 0.00 0.00 0.00 0.00 0.00 0.00 0.00 0.01 0.00 0.00 0.00 0.00 0.00 0.00 0.00 0.00 0.01 0.04 0.05 0.05
0.12 0.08 0.02 0.01 0.00 0.01 0.02 0.08 0.11 0.08 0.03 0.00 0.00 0.00 0.00 0.00 0.00 0.00 0.00 0.00 0.00 0.00 0.00 0.00 0.00 0.00 0.00 0.00 0.00 0.00 0.00 0.00 0.01 0.00 0.00 0.00 0.00 0.00 0.00 0.00 0.00 0.00 0.00 0.00
0.02 0.04 0.01 0.02 0.01 0.06 0.11 0.10 0.03 0.18 0.10 0.05 0.00 0.00 0.00 0.00 0.00 0.00 0.00 0.00 0.00 0.00 0.00 0.00 0.00 0.00 0.00 0.00 0.00 0.00 0.00 0.00 0.00 0.01 0.01 0.00 0.00 0.00 0.00 0.00 0.00 0.00 0.00 0.00
0.01 0.05 0.01 0.01 0.07 0.09 0.07 0.12 0.21 0.32 0.19 0.10 0.01 0.01 0.01 0.00 0.00 0.00 0.00 0.00 0.00 0.00 0.00 0.00 0.00 0.00 0.00 0.00 0.00 0.00 0.00 0.00 0.00 0.00 0.01 0.00 0.00 0.00 0.00 0.00 0.00 0.00 0.00 0.01
0.00 0.05 0.02 0.07 0.13 0.08 0.10 0.18 0.27 0.19 0.05 0.07 0.09 0.09 0.03 0.00 0.00 0.00 0.00 0.00 0.00 0.00 0.00 0.00 0.00 0.00 0.00 0.00 0.00 0.00 0.00 0.00 0.00 0.00 0.00 0.00 0.00 0.00 0.00 0.00 0.00 0.00 0.01 0.01
0.01 0.04 0.01 0.01 0.01 0.02 0.10 0.12 0.17 0.25 0.09 0.01 0.06 0.12 0.02 0.02 0.00 0.00 0.00 0.00 0.00 0.00 0.00 0.00 0.00 0.00 0.00 0.00 0.00 0.01 0.02 0.01 0.01 0.02 0.00 0.00 0.00 0.00 0.00 0.00 0.00 0.00 0.00 0.00
0.03 0.03 0.02 0.04 0.04 0.05 0.11 0.05 0.13 0.25 0.19 0.10 0.05 0.07 0.15 0.02 0.01 0.00 0.00 0.00 0.00 0.00 0.00 0.00 0.00 0.00 0.00 0.02 0.01 0.01 0.01 0.01 0.01 0.02 0.01 0.00 0.00 0.00 0.00 0.00 0.00 0.02 0.05 0.04
0.02 0.03 0.02 0.02 0.19 0.48 0.40 0.25 0.27 0.39 0.45 0.10 0.03 0.05 0.43 0.31 0.07 0.00 0.00 0.00 0.00 0.00 0.00 0.02 0.03 0.02 0.05 0.05 0.03 0.02 0.01 0.01 0.01 0.00 0.00 0.01 0.00 0.01 0.01 0.01 0.01 0.04 0.11 0.05
0.02 0.09 0.09 0.04 0.03 0.08 0.17 0.18 0.20 0.32 0.23 0.15 0.04 0.10 0.36 0.71 0.30 0.04 0.01 0.00 0.01 0.01 0.01 0.02 0.07 0.12 0.11 0.06 0.03 0.02 0.01 0.02 0.01 0.01 0.01 0.01 0.00 0.01 0.02 0.03 0.03 0.04 0.06 0.09
0.02 0.07 0.15 0.04 0.01 0.07 0.14 0.15 0.11 0.15 0.10 0.09 0.06 0.17 0.30 0.52 0.53 0.21 0.03 0.01 0.02 0.02 0.02 0.02 0.04 0.07 0.05 0.12 0.19 0.18 0.10 0.07 0.06 0.04 0.06 0.05 0.04 0.02 0.03 0.05 0.04 0.04 0.08 0.13
0.08 0.12 0.16 0.25 0.08 0.08 0.10 0.05 0.14 0.13 0.11 0.07 0.12 0.12 0.29 0.51 0.51 0.36 0.09 0.04 0.01 0.01 0.00 0.00 0.00 0.01 0.01 0.01 0.02 0.04 0.09 0.09 0.09 0.11 0.09 0.06 0.05 0.04 0.03 0.07 0.09 0.11 0.14 0.19
0.01 0.05 0.15 0.19 0.13 0.19 0.08 0.05 0.22 0.34 0.27 0.09 0.15 0.20 0.39 0.45 0.24 0.29 0.09 0.04 0.04 0.00 0.00 0.00 0.00 0.00 0.00 0.00 0.00 0.00 0.01 0.04 0.04 0.07 0.08 0.06 0.05 0.04 0.07 0.10 0.10 0.09 0.14 0.16
0.00 0.01 0.11 0.11 0.16 0.14 0.08 0.26 0.33 0.60 0.55 0.28 0.26 0.41 0.38 0.24 0.07 0.24 0.19 0.08 0.03 0.01 0.00 0.00 0.00 0.00 0.00 0.00 0.00 0.00 0.00 0.00 0.00 0.01 0.05 0.11 0.12 0.09 0.13 0.08 0.06 0.07 0.11 0.13
0.00 0.01 0.04 0.07 0.14 0.13 0.06 0.11 0.26 0.45 0.86 0.74 0.60 0.47 0.39 0.24 0.13 0.18 0.17 0.16 0.09 0.02 0.00 0.00 0.00 0.00 0.00 0.00 0.00 0.00 0.00 0.00 0.00 0.00 0.02 0.05 0.06 0.06 0.12 0.12 0.11 0.12 0.12 0.12
0.01 0.03 0.05 0.07 0.12 0.04 0.03 0.04 0.17 0.70 0.67 0.59 0.57 0.31 0.31 0.31 0.24 0.15 0.12 0.08 0.02 0.00 0.00 0.00 0.00 0.00 0.00 0.00 0.00 0.00 0.00 0.00 0.00 0.00 0.00 0.00 0.03 0.06 0.05 0.10 0.08 0.12 0.20 0.20
0.02 0.05 0.04 0.05 0.08 0.04 0.11 0.21 0.48 0.53 0.47 0.33 0.30 0.23 0.24 0.27 0.15 0.08 0.03 0.01 0.00 0.00 0.00 0.00 0.00 0.00 0.00 0.00 0.00 0.00 0.00 0.00 0.00 0.00 0.00 0.02 0.02 0.04 0.10 0.13 0.14 0.13 0.14 0.16
0.15 0.03 0.04 0.02 0.07 0.15 0.09 0.17 0.33 0.32 0.30 0.12 0.15 0.20 0.16 0.08 0.04 0.01 0.00 0.00 0.00 0.00 0.00 0.00 0.00 0.00 0.00 0.00 0.00 0.00 0.00 0.00 0.00 0.01 0.03 0.04 0.05 0.07 0.09 0.11 0.14 0.12 0.11 0.14
0.54 0.13 0.16 0.19 0.47 0.16 0.06 0.10 0.07 0.09 0.08 0.02 0.02 0.01 0.01 0.00 0.00 0.00 0.00 0.00 0.00 0.00 0.00 0.00 0.00 0.00 0.00 0.00 0.00 0.00 0.02 0.04 0.06 0.08 0.08 0.08 0.09 0.13 0.08 0.07 0.09 0.11 0.13 0.18
0.81 0.26 0.28 0.52 1.26 0.57 0.41 0.34 0.19 0.04 0.02 0.00 0.00 0.00 0.00 0.00 0.00 0.00 0.00 0.00 0.00 0.00 0.00 0.00 0.00 0.00 0.02 0.02 0.01 0.03 0.04 0.06 0.07 0.07 0.07 0.08 0.08 0.09 0.09 0.11 0.16 0.15 0.20 0.27
0.60 0.57 0.57 0.76 0.97 0.80 0.57 0.28 0.16 0.04 0.01 0.00 0.00 0.00 0.00 0.00 0.00 0.00 0.00 0.00 0.00 0.00 0.01 0.01 0.00 0.00 0.01 0.01 0.02 0.02 0.04 0.05 0.07 0.09 0.10 0.12 0.10 0.11 0.12 0.14 0.21 0.32 0.35 0.37

GFSCGP_prec_precacc24_084.txt.gz
Total_Precipitation_Accumulation
0.00 0.00 0.00 0.00 0.00 0.00 0.00 0.00 0.00 0.00 0.00 0.00 0.00 0.00 0.00 0.00 0.00 0.00 0.00 0.00 0.00 0.00 0.00 0.00 0.00 0.00 0.01 0.05 0.10 0.08 0.08 0.13 0.08 0.11 0.10 0.18 0.29 0.37 0.65 0.62 0.31 0.39 0.47 0.19
0.02 0.01 0.00 0.00 0.00 0.00 0.00 0.00 0.00 0.00 0.00 0.00 0.00 0.00 0.00 0.00 0.00 0.00 0.00 0.00 0.00 0.00 0.00 0.00 0.00 0.00 0.00 0.01 0.01 0.01 0.01 0.03 0.06 0.06 0.04 0.04 0.09 0.20 0.49 0.71 0.40 0.41 0.40 0.14
0.02 0.01 0.00 0.00 0.00 0.00 0.00 0.00 0.00 0.00 0.00 0.00 0.00 0.00 0.00 0.00 0.00 0.00 0.00 0.00 0.00 0.00 0.00 0.00 0.00 0.00 0.00 0.01 0.01 0.01 0.00 0.01 0.03 0.04 0.05 0.03 0.06 0.20 0.81 1.05 0.57 0.31 0.32 0.13
0.08 0.00 0.01 0.01 0.00 0.00 0.00 0.00 0.00 0.00 0.00 0.00 0.00 0.00 0.00 0.00 0.00 0.00 0.00 0.00 0.00 0.00 0.00 0.00 0.00 0.00 0.00 0.00 0.00 0.01 0.01 0.00 0.01 0.01 0.03 0.03 0.03 0.08 0.40 0.76 0.57 0.25 0.22 0.12
0.08 0.01 0.01 0.00 0.00 0.00 0.00 0.00 0.00 0.00 0.00 0.00 0.00 0.00 0.00 0.00 0.00 0.00 0.00 0.00 0.00 0.00 0.00 0.00 0.00 0.00 0.00 0.00 0.00 0.01 0.01 0.00 0.00 0.02 0.02 0.01 0.01 0.00 0.09 0.57 0.64 0.48 0.25 0.17
0.01 0.01 0.04 0.01 0.00 0.00 0.00 0.02 0.02 0.00 0.01 0.01 0.00 0.00 0.00 0.00 0.00 0.00 0.00 0.00 0.00 0.00 0.00 0.00 0.00 0.00 0.00 0.00 0.00 0.01 0.01 0.00 0.00 0.01 0.02 0.01 0.00 0.00 0.02 0.20 0.47 0.51 0.35 0.26
0.02 0.04 0.02 0.00 0.00 0.00 0.00 0.07 0.13 0.08 0.04 0.02 0.00 0.00 0.00 0.00 0.00 0.00 0.00 0.00 0.00 0.00 0.00 0.00 0.00 0.00 0.00 0.00 0.00 0.00 0.00 0.01 0.00 0.00 0.00 0.00 0.00 0.00 0.00 0.02 0.20 0.38 0.36 0.24
0.12 0.08 0.02 0.01 0.00 0.01 0.02 0.08 0.11 0.09 0.03 0.00 0.00 0.00 0.00 0.00 0.00 0.00 0.00 0.00 0.00 0.00 0.00 0.00 0.00 0.00 0.00 0.00 0.00 0.00 0.00 0.00 0.01 0.00 0.01 0.00 0.00 0.00 0.00 0.00 0.03 0.14 0.28 0.16
0.02 0.04 0.01 0.02 0.01 0.06 0.11 0.11 0.03 0.21 0.12 0.07 0.00 0.00 0.00 0.00 0.00 0.00 0.00 0.00 0.00 0.00 0.00 0.00 0.00 0.00 0.00 0.00 0.00 0.00 0.00 0.00 0.00 0.01 0.01 0.01 0.01 0.00 0.00 0.00 0.00 0.01 0.06 0.05
0.01 0.05 0.01 0.01 0.07 0.09 0.07 0.14 0.25 0.36 0.20 0.11 0.01 0.01 0.01 0.00 0.00 0.00 0.00 0.00 0.00 0.00 0.00 0.00 0.00 0.00 0.00 0.00 0.00 0.00 0.00 0.00 0.00 0.00 0.01 0.01 0.00 0.00 0.00 0.00 0.00 0.00 0.00 0.00
0.00 0.05 0.02 0.07 0.13 0.08 0.11 0.19 0.29 0.26 0.09 0.08 0.09 0.10 0.03 0.00 0.00 0.00 0.00 0.00 0.00 0.00 0.00 0.00 0.00 0.00 0.00 0.00 0.00 0.00 0.00 0.00 0.00 0.00 0.00 0.00 0.00 0.00 0.00 0.00 0.00 0.00 0.00 0.00
0.01 0.04 0.01 0.01 0.01 0.02 0.10 0.13 0.18 0.31 0.14 0.03 0.06 0.12 0.03 0.02 0.00 0.00 0.00 0.00 0.00 0.00 0.00 0.00 0.00 0.00 0.00 0.00 0.01 0.00 0.00 0.00 0.00 0.01 0.00 0.00 0.00 0.00 0.00 0.00 0.00 0.00 0.00 0.00
0.03 0.03 0.02 0.04 0.04 0.06 0.13 0.07 0.16 0.31 0.30 0.20 0.09 0.07 0.15 0.02 0.01 0.00 0.00 0.00 0.00 0.00 0.00 0.00 0.00 0.00 0.00 0.03 0.04 0.01 0.00 0.00 0.00 0.00 0.00 0.00 0.00 0.00 0.00 0.00 0.00 0.00 0.00 0.00
0.02 0.03 0.02 0.02 0.19 0.48 0.40 0.25 0.27 0.40 0.48 0.12 0.05 0.05 0.43 0.31 0.08 0.00 0.00 0.00 0.00 0.00 0.00 0.02 0.03 0.02 0.06 0.10 0.08 0.02 0.01 0.01 0.01 0.00 0.00 0.00 0.00 0.00 0.00 0.00 0.00 0.00 0.01 0.00
0.02 0.09 0.09 0.04 0.03 0.08 0.17 0.18 0.20 0.32 0.23 0.15 0.04 0.11 0.37 0.72 0.32 0.06 0.02 0.01 0.02 0.01 0.02 0.03 0.07 0.13 0.14 0.11 0.05 0.04 0.02 0.02 0.02 0.01 0.01 0.01 0.00 0.00 0.00 0.00 0.00 0.01 0.02 0.03
0.02 0.07 0.15 0.04 0.01 0.07 0.14 0.15 0.11 0.15 0.10 0.09 0.06 0.17 0.30 0.56 0.55 0.29 0.15 0.03 0.05 0.04 0.04 0.04 0.06 0.12 0.16 0.21 0.25 0.25 0.17 0.10 0.07 0.05 0.07 0.06 0.04 0.02 0.01 0.00 0.00 0.01 0.02 0.04
0.08 0.12 0.16 0.25 0.08 0.08 0.10 0.05 0.14 0.14 0.11 0.07 0.12 0.12 0.30 0.57 0.63 0.47 0.33 0.12 0.04 0.03 0.02 0.03 0.05 0.06 0.06 0.04 0.04 0.06 0.11 0.12 0.11 0.12 0.10 0.06 0.06 0.04 0.03 0.03 0.02 0.05 0.06 0.08
0.01 0.05 0.15 0.19 0.13 0.18 0.08 0.05 0.22 0.36 0.28 0.11 0.16 0.20 0.39 0.46 0.29 0.41 0.37 0.34 0.10 0.04 0.02 0.01 0.01 0.02 0.01 0.00 0.00 0.00 0.01 0.04 0.04 0.07 0.09 0.06 0.06 0.06 0.07 0.07 0.08 0.08 0.06 0.08
0.00 0.01 0.11 0.11 0.15 0.14 0.08 0.26 0.33 0.66 0.58 0.31 0.28 0.42 0.38 0.25 0.07 0.35 0.38 0.27 0.28 0.05 0.02 0.00 0.00 0.00 0.01 0.00 0.00 0.00 0.00 0.00 0.00 0.01 0.05 0.10 0.11 0.09 0.12 0.06 0.03 0.04 0.07 0.08
0.00 0.00 0.04 0.06 0.15 0.13 0.06 0.11 0.26 0.46 0.88 0.89 0.70 0.48 0.39 0.24 0.16 0.35 0.37 0.27 0.25 0.19 0.05 0.01 0.00 0.01 0.00 0.00 0.00 0.00 0.00 0.00 0.00 0.00 0.02 0.04 0.05 0.06 0.11 0.10 0.07 0.08 0.10 0.11
0.01 0.02 0.05 0.07 0.12 0.04 0.03 0.06 0.19 0.79 0.79 0.89 1.11 0.55 0.39 0.34 0.31 0.36 0.36 0.25 0.13 0.16 0.15 0.06 0.01 0.00 0.00 0.00 0.00 0.00 0.00 0.00 0.00 0.00 0.00 0.00 0.02 0.05 0.04 0.09 0.06 0.10 0.19 0.17
0.02 0.05 0.04 0.05 0.09 0.05 0.11 0.23 0.52 0.68 0.69 0.71 0.79 0.68 0.64 0.63 0.47 0.36 0.18 0.07 0.02 0.02 0.04 0.06 0.04 0.02 0.00 0.00 0.00 0.00 0.00 0.00 0.00 0.00 0.00 0.02 0.02 0.04 0.10 0.13 0.13 0.11 0.13 0.14
0.16 0.04 0.06 0.04 0.08 0.18 0.10 0.18 0.36 0.47 0.45 0.36 0.46 0.47 0.43 0.37 0.29 0.17 0.05 0.01 0.01 0.01 0.01 0.00 0.01 0.01 0.01 0.00 0.00 0.00 0.00 0.00 0.00 0.01 0.03 0.04 0.04 0.06 0.06 0.08 0.11 0.09 0.09 0.12
0.58 0.24 0.30 0.25 0.51 0.18 0.08 0.13 0.16 0.20 0.21 0.10 0.09 0.09 0.09 0.10 0.08 0.05 0.02 0.00 0.00 0.00 0.00 0.00 0.00 0.00 0.00 0.00 0.00 0.00 0.00 0.02 0.05 0.08 0.08 0.08 0.09 0.11 0.06 0.05 0.06 0.09 0.11 0.17
0.90 0.43 0.43 0.61 1.29 0.61 0.53 0.54 0.42 0.17 0.15 0.07 0.07 0.06 0.05 0.03 0.01 0.01 0.00 0.00 0.00 0.00 0.00 0.00 0.00 0.00 0.02 0.02 0.00 0.02 0.03 0.05 0.07 0.07 0.07 0.08 0.08 0.09 0.09 0.11 0.16 0.15 0.21 0.27
0.63 0.77 0.68 0.84 1.07 0.90 0.74 0.46 0.30 0.14 0.07 0.03 0.02 0.01 0.00 0.00 0.00 0.00 0.00 0.00 0.00 0.00 0.01 0.01 0.00 0.00 0.01 0.00 0.01 0.02 0.04 0.05 0.07 0.09 0.10 0.12 0.11 0.11 0.12 0.15 0.22 0.32 0.36 0.37

GFSCGP_prec_precacc24_087.txt.gz
Total_Precipitation_Accumulation
0.00 0.00 0.00 0.00 0.00 0.00 0.00 0.00 0.00 0.00 0.00 0.00 0.00 0.00 0.00 0.00 0.00 0.00 0.00 0.00 0.00 0.00 0.00 0.00 0.00 0.00 0.01 0.04 0.08 0.03 0.01 0.05 0.06 0.04 0.09 0.16 0.27 0.37 0.65 0.61 0.34 0.43 0.57 0.37
0.02 0.01 0.00 0.00 0.00 0.00 0.00 0.00 0.00 0.00 0.00 0.00 0.00 0.00 0.00 0.00 0.00 0.00 0.00 0.00 0.00 0.00 0.00 0.00 0.00 0.00 0.00 0.01 0.01 0.01 0.00 0.02 0.03 0.02 0.03 0.04 0.09 0.20 0.50 0.75 0.47 0.53 0.54 0.39
0.02 0.01 0.00 0.00 0.00 0.00 0.00 0.00 0.00 0.00 0.00 0.00 0.00 0.00 0.00 0.00 0.00 0.00 0.00 0.00 0.00 0.00 0.00 0.00 0.00 0.00 0.00 0.01 0.01 0.01 0.00 0.00 0.01 0.01 0.02 0.02 0.07 0.20 0.84 1.18 0.81 0.55 0.54 0.36
0.08 0.00 0.01 0.01 0.00 0.00 0.00 0.00 0.00 0.00 0.00 0.00 0.00 0.00 0.00 0.00 0.00 0.00 0.00 0.00 0.00 0.00 0.00 0.00 0.00 0.00 0.00 0.00 0.00 0.01 0.01 0.00 0.01 0.01 0.01 0.02 0.04 0.09 0.44 0.96 0.83 0.50 0.44 0.36
0.08 0.01 0.01 0.00 0.00 0.00 0.00 0.00 0.00 0.00 0.00 0.00 0.00 0.00 0.00 0.00 0.00 0.00 0.00 0.00 0.00 0.00 0.00 0.00 0.00 0.00 0.00 0.00 0.00 0.01 0.01 0.00 0.00 0.02 0.02 0.01 0.01 0.01 0.10 0.80 1.03 0.75 0.45 0.31
0.01 0.01 0.04 0.01 0.00 0.00 0.00 0.02 0.02 0.00 0.01 0.01 0.00 0.00 0.00 0.00 0.00 0.00 0.00 0.00 0.00 0.00 0.00 0.00 0.00 0.00 0.00 0.00 0.00 0.01 0.01 0.00 0.00 0.01 0.02 0.01 0.00 0.00 0.03 0.34 0.74 0.88 0.57 0.42
0.02 0.04 0.02 0.00 0.00 0.00 0.00 0.07 0.13 0.08 0.04 0.02 0.00 0.00 0.00 0.00 0.00 0.00 0.00 0.00 0.00 0.00 0.00 0.00 0.00 0.00 0.00 0.00 0.00 0.00 0.01 0.01 0.01 0.01 0.01 0.00 0.00 0.00 0.00 0.05 0.32 0.61 0.57 0.40
0.12 0.08 0.02 0.01 0.00 0.01 0.02 0.08 0.11 0.09 0.03 0.00 0.00 0.00 0.00 0.00 0.00 0.00 0.00 0.00 0.00 0.00 0.00 0.00 0.00 0.00 0.00 0.00 0.00 0.00 0.00 0.00 0.01 0.01 0.01 0.00 0.00 0.00 0.00 0.00 0.13 0.40 0.48 0.37
0.02 0.04 0.01 0.02 0.01 0.06 0.11 0.11 0.03 0.21 0.12 0.08 0.00 0.00 0.00 0.00 0.00 0.00 0.00 0.00 0.00 0.00 0.00 0.00 0.00 0.00 0.00 0.00 0.00 0.00 0.00 0.00 0.01 0.01 0.01 0.01 0.01 0.00 0.00 0.00 0.01 0.15 0.29 0.36
0.01 0.05 0.01 0.01 0.07 0.09 0.07 0.14 0.27 0.37 0.20 0.11 0.01 0.01 0.01 0.00 0.00 0.00 0.00 0.00 0.00 0.00 0.00 0.00 0.00 0.00 0.00 0.00 0.00 0.00 0.00 0.00 0.00 0.01 0.01 0.01 0.01 0.01 0.00 0.00 0.00 0.01 0.08 0.15
0.00 0.05 0.02 0.08 0.13 0.08 0.11 0.19 0.29 0.27 0.10 0.09 0.09 0.10 0.06 0.01 0.00 0.00 0.00 0.00 0.00 0.00 0.00 0.00 0.00 0.00 0.00 0.00 0.01 0.01 0.00 0.00 0.00 0.00 0.00 0.00 0.00 0.01 0.00 0.00 0.00 0.00 0.01 0.03
0.01 0.04 0.01 0.01 0.01 0.02 0.11 0.13 0.19 0.31 0.17 0.07 0.08 0.13 0.05 0.02 0.00 0.00 0.00 0.00 0.00 0.00 0.00 0.00 0.00 0.00 0.00 0.01 0.02 0.02 0.01 0.00 0.00 0.00 0.00 0.00 0.00 0.00 0.00 0.00 0.00 0.00 0.00 0.00
0.03 0.03 0.02 0.04 0.04 0.06 0.14 0.10 0.19 0.35 0.32 0.22 0.13 0.08 0.15 0.02 0.01 0.00 0.00 0.00 0.00 0.00 0.00 0.00 0.00 0.00 0.02 0.04 0.05 0.02 0.00 0.00 0.00 0.00 0.00 0.00 0.00 0.00 0.00 0.00 0.00 0.00 0.00 0.00
0.02 0.03 0.02 0.02 0.19 0.48 0.40 0.25 0.27 0.40 0.49 0.12 0.05 0.05 0.43 0.31 0.08 0.00 0.00 0.00 0.01 0.01 0.02 0.04 0.05 0.04 0.07 0.12 0.11 0.05 0.02 0.01 0.01 0.00 0.00 0.00 0.00 0.00 0.00 0.00 0.00 0.00 0.00 0.00
0.02 0.09 0.09 0.04 0.03 0.08 0.17 0.18 0.20 0.32 0.23 0.15 0.04 0.11 0.37 0.72 0.32 0.06 0.02 0.01 0.05 0.04 0.05 0.08 0.12 0.16 0.16 0.13 0.07 0.05 0.02 0.02 0.02 0.01 0.01 0.01 0.00 0.00 0.00 0.00 0.00 0.00 0.00 0.00
0.02 0.07 0.15 0.04 0.01 0.07 0.14 0.15 0.11 0.15 0.10 0.09 0.06 0.17 0.30 0.56 0.56 0.29 0.15 0.04 0.09 0.09 0.06 0.08 0.12 0.15 0.19 0.28 0.31 0.29 0.18 0.10 0.07 0.05 0.07 0.06 0.04 0.02 0.01 0.00 0.00 0.00 0.00 0.00
0.08 0.12 0.16 0.25 0.08 0.08 0.10 0.05 0.14 0.14 0.11 0.07 0.12 0.12 0.30 0.57 0.65 0.50 0.33 0.14 0.11 0.11 0.06 0.06 0.10 0.10 0.11 0.11 0.06 0.09 0.13 0.13 0.12 0.13 0.11 0.07 0.07 0.04 0.04 0.04 0.03 0.04 0.03 0.02
0.01 0.05 0.15 0.19 0.13 0.18 0.08 0.05 0.22 0.36 0.28 0.11 0.16 0.20 0.39 0.46 0.30 0.43 0.43 0.43 0.25 0.16 0.09 0.05 0.04 0.04 0.04 0.04 0.02 0.02 0.04 0.05 0.05 0.08 0.10 0.07 0.08 0.07 0.08 0.08 0.09 0.10 0.06 0.08
0.00 0.01 0.11 0.11 0.15 0.14 0.08 0.26 0.33 0.66 0.58 0.31 0.28 0.42 0.39 0.26 0.07 0.37 0.45 0.40 0.57 0.26 0.14 0.09 0.07 0.02 0.02 0.04 0.05 0.05 0.03 0.02 0.02 0.02 0.06 0.11 0.12 0.10 0.12 0.07 0.04 0.05 0.07 0.07
0.00 0.00 0.03 0.06 0.15 0.13 0.06 0.11 0.26 0.47 0.88 0.90 0.71 0.49 0.40 0.25 0.19 0.43 0.43 0.29 0.39 0.57 0.22 0.10 0.06 0.03 0.02 0.04 0.07 0.08 0.04 0.01 0.00 0.00 0.02 0.04 0.05 0.06 0.11 0.10 0.07 0.07 0.08 0.08
0.01 0.02 0.03 0.04 0.11 0.04 0.03 0.06 0.19 0.82 0.86 0.96 1.25 0.77 0.62 0.47 0.40 0.50 0.52 0.34 0.25 0.45 0.54 0.20 0.06 0.02 0.02 0.03 0.05 0.07 0.02 0.00 0.00 0.00 0.00 0.00 0.02 0.04 0.04 0.09 0.06 0.10 0.18 0.17
0.01 0.04 0.04 0.04 0.07 0.05 0.11 0.23 0.54 0.74 0.84 0.88 1.07 1.13 1.18 1.00 0.82 0.67 0.43 0.23 0.13 0.12 0.25 0.37 0.21 0.06 0.01 0.02 0.02 0.01 0.00 0.00 0.00 0.00 0.00 0.00 0.00 0.01 0.06 0.09 0.12 0.11 0.12 0.14
0.19 0.09 0.09 0.06 0.09 0.20 0.12 0.20 0.41 0.52 0.56 0.55 0.68 0.73 0.78 0.71 0.58 0.42 0.19 0.09 0.07 0.08 0.07 0.07 0.12 0.15 0.12 0.05 0.01 0.01 0.00 0.00 0.00 0.00 0.00 0.01 0.02 0.03 0.05 0.07 0.09 0.08 0.07 0.09
0.59 0.25 0.36 0.41 0.59 0.21 0.10 0.16 0.24 0.31 0.38 0.29 0.29 0.29 0.26 0.25 0.26 0.23 0.12 0.04 0.02 0.01 0.01 0.02 0.03 0.04 0.05 0.06 0.05 0.04 0.02 0.02 0.02 0.03 0.04 0.04 0.07 0.11 0.06 0.04 0.04 0.06 0.07 0.11
0.90 0.45 0.49 0.72 1.36 0.64 0.56 0.61 0.54 0.33 0.31 0.23 0.22 0.17 0.12 0.08 0.08 0.09 0.07 0.05 0.03 0.02 0.02 0.02 0.01 0.01 0.02 0.02 0.01 0.01 0.01 0.02 0.04 0.05 0.06 0.07 0.08 0.08 0.09 0.11 0.15 0.14 0.20 0.23
0.64 0.82 0.73 0.89 1.14 0.97 0.81 0.56 0.40 0.24 0.17 0.11 0.06 0.03 0.01 0.01 0.01 0.01 0.01 0.01 0.01 0.00 0.00 0.01 0.01 0.01 0.02 0.01 0.01 0.02 0.03 0.04 0.06 0.08 0.10 0.13 0.11 0.11 0.12 0.15 0.22 0.32 0.36 0.36

GFSCGP_prec_precacc24_090.txt.gz
Total_Precipitation_Accumulation
0.00 0.00 0.00 0.00 0.00 0.00 0.00 0.00 0.00 0.00 0.00 0.00 0.00 0.00 0.00 0.00 0.00 0.00 0.00 0.00 0.00 0.00 0.00 0.00 0.00 0.00 0.00 0.01 0.02 0.01 0.01 0.01 0.03 0.04 0.07 0.16 0.26 0.35 0.63 0.61 0.35 0.45 0.60 0.41
0.02 0.01 0.00 0.00 0.00 0.00 0.00 0.00 0.00 0.00 0.00 0.00 0.00 0.00 0.00 0.00 0.00 0.00 0.00 0.00 0.00 0.00 0.00 0.00 0.00 0.00 0.00 0.01 0.01 0.00 0.00 0.00 0.02 0.01 0.01 0.04 0.08 0.19 0.48 0.74 0.47 0.54 0.57 0.48
0.02 0.01 0.00 0.00 0.00 0.00 0.00 0.00 0.00 0.00 0.00 0.00 0.00 0.00 0.00 0.00 0.00 0.00 0.00 0.00 0.00 0.00 0.00 0.00 0.00 0.00 0.00 0.00 0.01 0.01 0.00 0.00 0.00 0.01 0.01 0.02 0.07 0.20 0.83 1.17 0.83 0.61 0.60 0.47
0.08 0.00 0.01 0.01 0.00 0.00 0.00 0.00 0.00 0.00 0.00 0.00 0.00 0.00 0.00 0.00 0.00 0.00 0.00 0.00 0.00 0.00 0.00 0.00 0.00 0.00 0.00 0.00 0.00 0.01 0.01 0.00 0.00 0.01 0.00 0.01 0.04 0.09 0.44 0.96 0.87 0.64 0.76 0.60
0.08 0.01 0.01 0.00 0.00 0.00 0.00 0.00 0.00 0.00 0.00 0.00 0.00 0.00 0.00 0.00 0.00 0.00 0.00 0.00 0.00 0.00 0.00 0.00 0.00 0.00 0.00 0.00 0.00 0.01 0.01 0.00 0.00 0.01 0.00 0.00 0.01 0.01 0.11 0.82 1.10 0.87 0.76 0.64
0.01 0.01 0.04 0.01 0.00 0.00 0.00 0.02 0.02 0.00 0.01 0.01 0.00 0.00 0.00 0.00 0.00 0.00 0.00 0.00 0.00 0.00 0.00 0.00 0.00 0.00 0.00 0.00 0.00 0.00 0.01 0.00 0.00 0.01 0.01 0.01 0.00 0.01 0.04 0.35 0.79 1.05 0.79 0.65
0.02 0.04 0.02 0.00 0.00 0.00 0.00 0.07 0.13 0.08 0.04 0.02 0.00 0.00 0.00 0.00 0.00 0.00 0.00 0.00 0.00 0.00 0.00 0.00 0.00 0.00 0.00 0.00 0.00 0.00 0.01 0.01 0.01 0.01 0.01 0.00 0.00 0.01 0.01 0.05 0.34 0.69 0.77 0.54
0.11 0.08 0.02 0.01 0.00 0.01 0.02 0.08 0.11 0.09 0.03 0.00 0.00 0.00 0.00 0.00 0.00 0.00 0.00 0.00 0.00 0.00 0.00 0.00 0.00 0.00 0.00 0.00 0.01 0.00 0.00 0.00 0.01 0.01 0.01 0.01 0.00 0.01 0.01 0.01 0.18 0.54 0.62 0.51
0.02 0.03 0.01 0.02 0.01 0.06 0.12 0.11 0.03 0.21 0.12 0.08 0.00 0.00 0.00 0.00 0.00 0.00 0.00 0.00 0.00 0.00 0.00 0.00 0.00 0.00 0.00 0.00 0.00 0.00 0.00 0.00 0.01 0.01 0.01 0.01 0.01 0.01 0.01 0.00 0.03 0.30 0.47 0.47
0.02 0.07 0.02 0.01 0.07 0.10 0.07 0.15 0.28 0.37 0.20 0.11 0.01 0.01 0.01 0.00 0.00 0.00 0.00 0.00 0.00 0.00 0.00 0.00 0.00 0.00 0.00 0.00 0.00 0.00 0.00 0.00 0.00 0.01 0.01 0.01 0.01 0.01 0.00 0.00 0.00 0.08 0.25 0.31
0.03 0.09 0.06 0.13 0.16 0.09 0.11 0.19 0.30 0.28 0.11 0.10 0.10 0.11 0.09 0.01 0.00 0.00 0.00 0.00 0.00 0.00 0.00 0.00 0.00 0.00 0.00 0.00 0.01 0.02 0.00 0.00 0.00 0.00 0.00 0.00 0.01 0.01 0.00 0.00 0.00 0.01 0.07 0.20
0.04 0.08 0.06 0.04 0.03 0.02 0.12 0.14 0.20 0.32 0.18 0.08 0.09 0.13 0.05 0.02 0.00 0.00 0.00 0.00 0.00 0.00 0.00 0.00 0.00 0.00 0.00 0.01 0.02 0.03 0.02 0.01 0.00 0.00 0.00 0.00 0.00 0.00 0.00 0.00 0.00 0.00 0.01 0.03
0.07 0.07 0.04 0.07 0.05 0.06 0.15 0.11 0.19 0.35 0.32 0.22 0.15 0.08 0.16 0.02 0.01 0.00 0.00 0.00 0.00 0.00 0.01 0.01 0.01 0.01 0.02 0.05 0.06 0.03 0.03 0.01 0.00 0.00 0.00 0.00 0.00 0.00 0.00 0.00 0.00 0.00 0.00 0.01
0.03 0.03 0.02 0.02 0.19 0.49 0.40 0.25 0.27 0.40 0.49 0.13 0.05 0.05 0.43 0.31 0.08 0.00 0.00 0.00 0.01 0.02 0.02 0.05 0.07 0.06 0.09 0.13 0.13 0.08 0.03 0.01 0.01 0.00 0.00 0.00 0.00 0.00 0.00 0.00 0.00 0.00 0.00 0.00
0.03 0.08 0.09 0.04 0.03 0.08 0.17 0.18 0.20 0.32 0.23 0.15 0.04 0.11 0.37 0.72 0.32 0.07 0.02 0.01 0.05 0.04 0.05 0.09 0.15 0.21 0.20 0.16 0.10 0.07 0.02 0.02 0.02 0.02 0.01 0.01 0.01 0.01 0.00 0.00 0.00 0.00 0.00 0.00
0.02 0.06 0.15 0.04 0.01 0.07 0.14 0.15 0.11 0.15 0.10 0.09 0.06 0.17 0.30 0.56 0.56 0.30 0.15 0.04 0.09 0.09 0.08 0.10 0.14 0.19 0.24 0.33 0.40 0.35 0.19 0.11 0.08 0.05 0.08 0.06 0.05 0.04 0.03 0.01 0.01 0.01 0.00 0.00
0.10 0.11 0.16 0.25 0.08 0.08 0.10 0.05 0.14 0.14 0.11 0.07 0.12 0.12 0.30 0.57 0.65 0.50 0.33 0.14 0.11 0.12 0.12 0.10 0.14 0.15 0.16 0.17 0.12 0.11 0.14 0.14 0.12 0.13 0.11 0.08 0.07 0.05 0.04 0.05 0.04 0.05 0.04 0.02
0.02 0.05 0.15 0.19 0.13 0.17 0.08 0.05 0.22 0.36 0.28 0.11 0.16 0.20 0.40 0.47 0.30 0.44 0.44 0.44 0.26 0.21 0.19 0.11 0.07 0.09 0.09 0.08 0.05 0.04 0.04 0.06 0.06 0.08 0.10 0.08 0.08 0.08 0.09 0.09 0.11 0.11 0.07 0.09
0.00 0.02 0.10 0.11 0.15 0.13 0.09 0.26 0.33 0.66 0.58 0.31 0.28 0.42 0.39 0.28 0.08 0.40 0.48 0.43 0.64 0.46 0.28 0.18 0.14 0.07 0.08 0.10 0.09 0.06 0.04 0.04 0.03 0.03 0.06 0.12 0.12 0.11 0.14 0.08 0.06 0.07 0.10 0.10
0.00 0.00 0.03 0.06 0.14 0.13 0.06 0.11 0.26 0.48 0.91 0.90 0.71 0.49 0.40 0.28 0.22 0.49 0.50 0.39 0.48 0.77 0.58 0.29 0.18 0.15 0.12 0.11 0.12 0.15 0.11 0.06 0.04 0.04 0.04 0.06 0.06 0.07 0.12 0.12 0.08 0.08 0.08 0.08
0.01 0.02 0.03 0.02 0.10 0.04 0.03 0.06 0.19 0.85 0.89 0.99 1.26 0.82 0.71 0.57 0.49 0.60 0.61 0.47 0.38 0.59 0.92 0.54 0.37 0.23 0.19 0.12 0.11 0.16 0.21 0.22 0.14 0.11 0.06 0.02 0.03 0.05 0.04 0.09 0.06 0.09 0.17 0.16
0.02 0.05 0.04 0.04 0.06 0.05 0.12 0.23 0.55 0.81 0.90 0.96 1.11 1.22 1.38 1.29 1.11 0.90 0.65 0.43 0.30 0.27 0.49 0.78 0.49 0.38 0.29 0.21 0.10 0.10 0.16 0.21 0.22 0.12 0.04 0.01 0.00 0.01 0.03 0.06 0.07 0.08 0.11 0.14
0.21 0.10 0.11 0.10 0.11 0.22 0.13 0.21 0.44 0.58 0.67 0.66 0.76 0.82 0.96 0.95 0.83 0.64 0.35 0.21 0.20 0.22 0.21 0.27 0.47 0.43 0.30 0.21 0.12 0.08 0.07 0.07 0.08 0.06 0.03 0.01 0.00 0.00 0.01 0.05 0.08 0.08 0.07 0.09
0.59 0.25 0.38 0.45 0.64 0.24 0.12 0.17 0.26 0.37 0.49 0.40 0.39 0.39 0.39 0.39 0.42 0.38 0.23 0.12 0.07 0.05 0.04 0.06 0.10 0.18 0.26 0.27 0.19 0.13 0.08 0.06 0.07 0.05 0.03 0.03 0.05 0.08 0.05 0.04 0.05 0.06 0.07 0.11
0.90 0.45 0.50 0.77 1.40 0.68 0.57 0.63 0.58 0.39 0.38 0.31 0.30 0.26 0.22 0.18 0.18 0.18 0.17 0.14 0.10 0.08 0.06 0.04 0.02 0.01 0.01 0.03 0.09 0.11 0.09 0.08 0.08 0.08 0.08 0.08 0.08 0.08 0.09 0.11 0.15 0.14 0.20 0.22
0.65 0.84 0.75 0.92 1.18 1.00 0.85 0.60 0.44 0.30 0.24 0.16 0.10 0.06 0.04 0.04 0.05 0.05 0.05 0.04 0.03 0.03 0.02 0.02 0.03 0.02 0.02 0.01 0.01 0.01 0.02 0.04 0.05 0.08 0.09 0.11 0.09 0.10 0.11 0.14 0.21 0.30 0.33 0.32

GFSCGP_prec_precacc24_093.txt.gz
Total_Precipitation_Accumulation
0.00 0.00 0.00 0.00 0.00 0.00 0.00 0.00 0.00 0.00 0.00 0.00 0.00 0.00 0.00 0.00 0.00 0.00 0.00 0.00 0.00 0.00 0.00 0.00 0.00 0.00 0.00 0.01 0.01 0.00 0.00 0.00 0.01 0.03 0.06 0.16 0.25 0.33 0.59 0.58 0.34 0.45 0.61 0.43
0.02 0.01 0.00 0.00 0.00 0.00 0.00 0.00 0.00 0.00 0.00 0.00 0.00 0.00 0.00 0.00 0.00 0.00 0.00 0.00 0.00 0.00 0.00 0.00 0.00 0.00 0.00 0.00 0.01 0.00 0.00 0.00 0.00 0.01 0.01 0.04 0.08 0.18 0.48 0.74 0.47 0.53 0.58 0.49
0.02 0.01 0.00 0.00 0.00 0.00 0.00 0.00 0.00 0.00 0.00 0.00 0.00 0.00 0.00 0.00 0.00 0.00 0.00 0.00 0.00 0.00 0.00 0.00 0.00 0.00 0.00 0.00 0.00 0.00 0.00 0.00 0.00 0.01 0.01 0.02 0.06 0.19 0.83 1.18 0.84 0.61 0.60 0.48
0.08 0.00 0.01 0.01 0.00 0.00 0.00 0.00 0.00 0.00 0.00 0.00 0.00 0.00 0.00 0.00 0.00 0.00 0.00 0.00 0.00 0.00 0.00 0.00 0.00 0.00 0.00 0.00 0.00 0.01 0.01 0.00 0.00 0.00 0.00 0.01 0.04 0.09 0.45 0.97 0.88 0.65 0.77 0.63
0.04 0.01 0.01 0.00 0.00 0.00 0.00 0.00 0.00 0.00 0.00 0.00 0.00 0.00 0.00 0.00 0.00 0.00 0.00 0.00 0.00 0.00 0.00 0.00 0.00 0.00 0.00 0.00 0.00 0.00 0.00 0.00 0.00 0.01 0.00 0.00 0.01 0.01 0.11 0.82 1.12 0.89 0.79 0.79
0.00 0.01 0.04 0.01 0.00 0.00 0.00 0.02 0.02 0.00 0.01 0.01 0.00 0.00 0.00 0.00 0.00 0.00 0.00 0.00 0.00 0.00 0.00 0.00 0.00 0.00 0.00 0.00 0.00 0.00 0.00 0.00 0.00 0.01 0.01 0.00 0.00 0.01 0.04 0.36 0.81 1.07 0.83 0.76
0.01 0.03 0.02 0.00 0.00 0.00 0.00 0.08 0.14 0.08 0.04 0.02 0.00 0.00 0.00 0.00 0.00 0.00 0.00 0.00 0.00 0.00 0.00 0.00 0.00 0.00 0.00 0.00 0.00 0.00 0.01 0.00 0.00 0.01 0.01 0.00 0.00 0.01 0.01 0.06 0.34 0.69 0.77 0.60
0.06 0.04 0.03 0.01 0.01 0.02 0.02 0.08 0.11 0.10 0.04 0.00 0.00 0.00 0.00 0.00 0.00 0.00 0.00 0.00 0.00 0.00 0.00 0.00 0.00 0.00 0.00 0.00 0.01 0.00 0.00 0.00 0.01 0.00 0.01 0.01 0.00 0.01 0.02 0.02 0.18 0.55 0.63 0.55
0.02 0.04 0.01 0.02 0.01 0.06 0.12 0.11 0.03 0.22 0.13 0.08 0.00 0.00 0.00 0.00 0.00 0.00 0.00 0.00 0.00 0.00 0.00 0.00 0.00 0.00 0.00 0.00 0.01 0.01 0.00 0.00 0.01 0.01 0.01 0.01 0.01 0.01 0.01 0.00 0.03 0.31 0.51 0.55
0.07 0.09 0.03 0.01 0.07 0.10 0.08 0.16 0.30 0.38 0.21 0.11 0.01 0.01 0.05 0.02 0.00 0.00 0.00 0.00 0.00 0.00 0.00 0.00 0.00 0.00 0.00 0.00 0.00 0.01 0.00 0.00 0.00 0.01 0.01 0.01 0.01 0.01 0.01 0.01 0.01 0.09 0.30 0.43
0.08 0.16 0.10 0.15 0.17 0.09 0.12 0.23 0.32 0.31 0.12 0.11 0.11 0.17 0.13 0.02 0.00 0.00 0.00 0.00 0.00 0.00 0.00 0.00 0.00 0.00 0.00 0.00 0.01 0.02 0.00 0.00 0.00 0.00 0.00 0.00 0.01 0.01 0.00 0.01 0.00 0.02 0.11 0.34
0.07 0.20 0.13 0.08 0.05 0.03 0.13 0.14 0.21 0.34 0.21 0.09 0.11 0.17 0.07 0.02 0.00 0.00 0.00 0.00 0.00 0.00 0.00 0.00 0.00 0.00 0.00 0.01 0.02 0.03 0.02 0.01 0.01 0.00 0.00 0.00 0.00 0.00 0.00 0.00 0.00 0.00 0.02 0.13
0.24 0.28 0.19 0.20 0.11 0.12 0.21 0.15 0.22 0.36 0.33 0.23 0.15 0.11 0.16 0.02 0.01 0.00 0.00 0.00 0.00 0.00 0.01 0.01 0.02 0.03 0.03 0.05 0.06 0.04 0.03 0.03 0.01 0.00 0.00 0.00 0.00 0.00 0.00 0.00 0.01 0.01 0.01 0.03
0.22 0.15 0.08 0.06 0.21 0.50 0.43 0.28 0.29 0.41 0.50 0.14 0.06 0.05 0.43 0.31 0.08 0.00 0.00 0.00 0.01 0.02 0.02 0.06 0.08 0.07 0.11 0.15 0.14 0.09 0.05 0.06 0.02 0.00 0.00 0.00 0.00 0.01 0.01 0.01 0.01 0.01 0.01 0.01
0.16 0.07 0.06 0.05 0.03 0.08 0.18 0.19 0.20 0.33 0.24 0.15 0.04 0.11 0.37 0.72 0.32 0.07 0.03 0.01 0.05 0.04 0.05 0.11 0.17 0.21 0.21 0.19 0.13 0.09 0.05 0.07 0.03 0.02 0.01 0.02 0.01 0.01 0.01 0.01 0.00 0.01 0.01 0.01
0.13 0.03 0.07 0.03 0.01 0.07 0.14 0.15 0.11 0.15 0.10 0.09 0.06 0.17 0.30 0.56 0.56 0.30 0.15 0.04 0.09 0.09 0.08 0.11 0.17 0.21 0.26 0.35 0.44 0.43 0.25 0.15 0.08 0.06 0.08 0.07 0.06 0.04 0.03 0.02 0.02 0.01 0.00 0.00
0.13 0.09 0.11 0.21 0.08 0.08 0.09 0.05 0.14 0.14 0.11 0.07 0.12 0.12 0.30 0.57 0.65 0.50 0.34 0.14 0.11 0.12 0.12 0.11 0.15 0.17 0.19 0.22 0.17 0.18 0.19 0.16 0.14 0.15 0.12 0.08 0.07 0.05 0.05 0.06 0.05 0.06 0.05 0.03
0.05 0.03 0.11 0.14 0.12 0.17 0.07 0.05 0.22 0.35 0.28 0.11 0.16 0.20 0.40 0.47 0.31 0.45 0.45 0.45 0.27 0.22 0.20 0.14 0.11 0.15 0.15 0.14 0.13 0.09 0.07 0.08 0.08 0.09 0.11 0.09 0.09 0.08 0.09 0.10 0.11 0.12 0.08 0.09
0.02 0.02 0.09 0.09 0.13 0.11 0.10 0.26 0.33 0.66 0.59 0.31 0.28 0.42 0.39 0.28 0.09 0.41 0.51 0.46 0.66 0.49 0.33 0.35 0.24 0.19 0.22 0.18 0.24 0.17 0.07 0.06 0.05 0.04 0.07 0.12 0.13 0.12 0.14 0.09 0.07 0.08 0.11 0.11
0.00 0.01 0.03 0.04 0.13 0.13 0.07 0.11 0.26 0.49 1.01 0.91 0.71 0.49 0.41 0.30 0.25 0.53 0.55 0.43 0.53 0.85 0.66 0.46 0.44 0.26 0.29 0.20 0.24 0.41 0.20 0.11 0.08 0.08 0.07 0.07 0.09 0.09 0.15 0.14 0.10 0.11 0.11 0.11
0.01 0.02 0.03 0.02 0.10 0.05 0.03 0.06 0.19 0.89 0.92 1.00 1.27 0.83 0.73 0.62 0.57 0.68 0.68 0.55 0.49 0.71 1.06 0.76 0.67 0.44 0.41 0.35 0.26 0.34 0.42 0.37 0.25 0.18 0.18 0.14 0.08 0.10 0.12 0.17 0.12 0.15 0.22 0.19
0.05 0.10 0.07 0.05 0.07 0.05 0.11 0.23 0.54 0.83 0.92 0.99 1.14 1.24 1.40 1.33 1.18 0.99 0.75 0.54 0.43 0.40 0.63 1.05 0.82 0.66 0.55 0.52 0.43 0.43 0.42 0.41 0.40 0.29 0.20 0.20 0.17 0.11 0.08 0.13 0.18 0.15 0.16 0.17
0.20 0.10 0.10 0.11 0.13 0.23 0.13 0.21 0.45 0.59 0.69 0.71 0.79 0.86 1.00 1.00 0.90 0.72 0.44 0.28 0.27 0.33 0.34 0.42 0.78 0.74 0.55 0.47 0.49 0.45 0.48 0.46 0.40 0.33 0.27 0.23 0.21 0.17 0.10 0.05 0.09 0.09 0.05 0.07
0.58 0.25 0.37 0.46 0.64 0.24 0.12 0.18 0.27 0.38 0.53 0.45 0.44 0.44 0.45 0.44 0.48 0.46 0.32 0.21 0.15 0.14 0.14 0.15 0.22 0.42 0.53 0.54 0.43 0.36 0.33 0.31 0.31 0.28 0.22 0.20 0.16 0.11 0.05 0.02 0.02 0.04 0.05 0.09
0.90 0.45 0.51 0.79 1.42 0.68 0.57 0.65 0.59 0.41 0.42 0.34 0.35 0.32 0.28 0.24 0.25 0.26 0.25 0.23 0.20 0.19 0.18 0.15 0.12 0.11 0.13 0.16 0.27 0.31 0.29 0.23 0.16 0.15 0.16 0.14 0.09 0.07 0.06 0.09 0.12 0.12 0.19 0.18
0.64 0.83 0.76 0.92 1.19 1.01 0.85 0.62 0.46 0.32 0.27 0.20 0.14 0.10 0.07 0.08 0.09 0.09 0.08 0.07 0.06 0.06 0.06 0.05 0.05 0.06 0.07 0.07 0.07 0.07 0.09 0.10 0.12 0.12 0.09 0.12 0.14 0.15 0.15 0.17 0.22 0.29 0.31 0.30

GFSCGP_prec_precacc24_096.txt.gz
Total_Precipitation_Accumulation
0.00 0.00 0.00 0.00 0.00 0.00 0.00 0.00 0.00 0.00 0.00 0.00 0.00 0.00 0.00 0.00 0.00 0.00 0.00 0.00 0.00 0.00 0.00 0.00 0.00 0.00 0.00 0.00 0.00 0.00 0.00 0.01 0.00 0.02 0.05 0.15 0.23 0.28 0.53 0.55 0.33 0.43 0.57 0.42
0.00 0.00 0.00 0.00 0.00 0.00 0.00 0.00 0.00 0.00 0.00 0.00 0.00 0.00 0.00 0.00 0.00 0.00 0.00 0.00 0.00 0.00 0.00 0.00 0.00 0.00 0.00 0.00 0.00 0.00 0.00 0.00 0.00 0.01 0.01 0.04 0.08 0.18 0.47 0.73 0.47 0.53 0.58 0.50
0.00 0.00 0.00 0.00 0.00 0.00 0.00 0.00 0.00 0.00 0.00 0.00 0.00 0.00 0.00 0.00 0.00 0.00 0.00 0.00 0.00 0.00 0.00 0.00 0.00 0.00 0.00 0.00 0.00 0.00 0.00 0.00 0.00 0.01 0.01 0.02 0.06 0.17 0.82 1.18 0.84 0.62 0.60 0.48
0.00 0.00 0.00 0.00 0.00 0.00 0.00 0.00 0.00 0.00 0.00 0.00 0.00 0.00 0.00 0.00 0.00 0.00 0.00 0.00 0.00 0.00 0.00 0.00 0.00 0.00 0.00 0.00 0.00 0.00 0.00 0.00 0.01 0.00 0.00 0.01 0.03 0.08 0.45 0.97 0.88 0.65 0.76 0.63
0.00 0.00 0.00 0.00 0.00 0.00 0.00 0.00 0.00 0.00 0.00 0.00 0.00 0.00 0.00 0.00 0.00 0.00 0.00 0.00 0.00 0.00 0.00 0.00 0.00 0.00 0.00 0.00 0.00 0.00 0.00 0.00 0.00 0.01 0.00 0.00 0.01 0.01 0.11 0.82 1.13 0.90 0.79 0.79
0.00 0.00 0.00 0.00 0.00 0.00 0.00 0.01 0.02 0.00 0.01 0.02 0.00 0.00 0.00 0.00 0.00 0.00 0.00 0.00 0.00 0.00 0.00 0.00 0.00 0.00 0.00 0.00 0.00 0.00 0.00 0.00 0.00 0.01 0.01 0.00 0.00 0.01 0.04 0.36 0.81 1.08 0.83 0.76
0.01 0.00 0.01 0.00 0.01 0.01 0.01 0.09 0.17 0.13 0.05 0.02 0.00 0.00 0.00 0.00 0.00 0.00 0.00 0.00 0.00 0.00 0.00 0.00 0.00 0.00 0.00 0.00 0.00 0.00 0.00 0.00 0.00 0.00 0.00 0.00 0.01 0.01 0.01 0.06 0.35 0.70 0.78 0.61
0.04 0.03 0.01 0.05 0.02 0.03 0.03 0.11 0.16 0.12 0.05 0.02 0.00 0.00 0.00 0.00 0.00 0.00 0.00 0.00 0.00 0.00 0.00 0.00 0.00 0.00 0.00 0.00 0.01 0.00 0.00 0.00 0.00 0.00 0.01 0.01 0.02 0.01 0.02 0.02 0.19 0.55 0.63 0.55
0.07 0.04 0.00 0.01 0.03 0.07 0.13 0.11 0.04 0.24 0.14 0.14 0.05 0.01 0.01 0.00 0.00 0.00 0.00 0.00 0.00 0.00 0.00 0.00 0.00 0.00 0.00 0.00 0.01 0.01 0.00 0.00 0.01 0.01 0.01 0.01 0.01 0.01 0.01 0.01 0.03 0.31 0.51 0.55
0.15 0.20 0.04 0.02 0.06 0.09 0.09 0.16 0.30 0.40 0.24 0.13 0.04 0.03 0.14 0.10 0.00 0.00 0.00 0.00 0.00 0.00 0.00 0.00 0.00 0.00 0.02 0.00 0.01 0.01 0.00 0.00 0.01 0.02 0.02 0.02 0.01 0.01 0.01 0.01 0.01 0.09 0.30 0.44
0.10 0.22 0.14 0.16 0.16 0.09 0.12 0.25 0.33 0.33 0.12 0.12 0.11 0.25 0.25 0.13 0.02 0.00 0.00 0.00 0.00 0.00 0.00 0.00 0.00 0.00 0.01 0.01 0.02 0.02 0.00 0.02 0.03 0.02 0.01 0.01 0.00 0.01 0.01 0.01 0.01 0.02 0.11 0.35
0.09 0.36 0.22 0.14 0.05 0.03 0.12 0.14 0.23 0.36 0.23 0.09 0.13 0.36 0.33 0.04 0.00 0.00 0.00 0.00 0.00 0.00 0.00 0.00 0.01 0.00 0.01 0.03 0.02 0.03 0.02 0.03 0.03 0.01 0.01 0.01 0.00 0.01 0.01 0.00 0.01 0.00 0.02 0.14
0.29 0.34 0.41 0.32 0.19 0.13 0.20 0.14 0.22 0.38 0.35 0.25 0.16 0.22 0.45 0.04 0.01 0.00 0.00 0.00 0.00 0.00 0.01 0.01 0.03 0.04 0.04 0.06 0.06 0.04 0.04 0.05 0.03 0.02 0.03 0.01 0.01 0.01 0.01 0.01 0.01 0.01 0.01 0.03
0.43 0.28 0.52 0.28 0.22 0.48 0.45 0.31 0.34 0.46 0.48 0.14 0.06 0.08 0.47 0.31 0.08 0.00 0.00 0.00 0.01 0.02 0.02 0.06 0.09 0.09 0.13 0.17 0.15 0.10 0.07 0.09 0.08 0.04 0.03 0.01 0.01 0.01 0.01 0.01 0.01 0.01 0.01 0.01
0.28 0.17 0.47 0.29 0.10 0.08 0.18 0.22 0.26 0.38 0.25 0.15 0.04 0.11 0.37 0.71 0.32 0.07 0.03 0.01 0.05 0.04 0.05 0.11 0.17 0.23 0.24 0.21 0.16 0.12 0.07 0.11 0.12 0.07 0.03 0.02 0.02 0.02 0.03 0.02 0.02 0.02 0.02 0.01
0.34 0.19 0.07 0.05 0.07 0.04 0.10 0.18 0.13 0.14 0.10 0.09 0.06 0.17 0.30 0.56 0.56 0.30 0.15 0.04 0.09 0.09 0.08 0.11 0.17 0.22 0.29 0.38 0.47 0.46 0.31 0.20 0.13 0.08 0.09 0.07 0.07 0.06 0.05 0.03 0.02 0.02 0.02 0.02
0.30 0.22 0.05 0.01 0.04 0.07 0.08 0.05 0.14 0.14 0.11 0.07 0.11 0.11 0.30 0.57 0.65 0.50 0.34 0.14 0.11 0.12 0.12 0.11 0.15 0.18 0.22 0.26 0.21 0.22 0.26 0.23 0.17 0.16 0.13 0.09 0.09 0.06 0.05 0.06 0.05 0.07 0.06 0.04
0.14 0.05 0.02 0.04 0.08 0.18 0.08 0.04 0.22 0.35 0.27 0.10 0.16 0.20 0.40 0.47 0.31 0.45 0.46 0.46 0.27 0.22 0.21 0.14 0.12 0.15 0.18 0.20 0.19 0.16 0.14 0.15 0.11 0.10 0.12 0.10 0.10 0.09 0.10 0.11 0.13 0.13 0.09 0.10
0.03 0.02 0.02 0.05 0.10 0.09 0.10 0.23 0.31 0.63 0.54 0.26 0.26 0.41 0.39 0.29 0.09 0.41 0.52 0.48 0.68 0.51 0.34 0.36 0.26 0.23 0.29 0.27 0.33 0.26 0.17 0.14 0.08 0.05 0.09 0.13 0.14 0.13 0.16 0.10 0.09 0.11 0.14 0.14
0.00 0.01 0.02 0.02 0.08 0.15 0.13 0.10 0.21 0.35 0.83 0.88 0.69 0.49 0.41 0.31 0.27 0.55 0.58 0.47 0.57 0.88 0.68 0.47 0.47 0.33 0.44 0.47 0.44 0.60 0.36 0.23 0.14 0.10 0.10 0.09 0.11 0.11 0.16 0.15 0.12 0.12 0.13 0.13
0.01 0.01 0.03 0.02 0.09 0.05 0.03 0.05 0.18 0.85 0.90 1.00 1.27 0.83 0.73 0.63 0.60 0.72 0.72 0.59 0.53 0.74 1.09 0.79 0.72 0.57 0.57 0.76 0.58 0.62 0.92 0.66 0.40 0.25 0.23 0.18 0.11 0.14 0.14 0.18 0.14 0.16 0.24 0.22
0.05 0.18 0.10 0.06 0.10 0.06 0.11 0.22 0.53 0.83 0.94 1.00 1.15 1.24 1.41 1.35 1.21 1.02 0.78 0.57 0.47 0.44 0.67 1.11 0.94 0.87 0.74 0.83 0.88 0.68 0.77 1.04 0.88 0.50 0.35 0.33 0.33 0.23 0.16 0.17 0.23 0.21 0.21 0.23
0.20 0.10 0.10 0.12 0.15 0.22 0.12 0.21 0.46 0.60 0.70 0.73 0.81 0.87 1.01 1.01 0.92 0.75 0.48 0.32 0.31 0.38 0.41 0.51 0.88 0.94 0.78 0.63 0.77 0.79 0.84 0.90 0.89 0.90 0.69 0.57 0.45 0.44 0.39 0.30 0.23 0.23 0.25 0.23
0.56 0.25 0.35 0.43 0.58 0.17 0.09 0.18 0.28 0.38 0.54 0.47 0.46 0.46 0.46 0.47 0.52 0.50 0.36 0.25 0.19 0.19 0.21 0.24 0.31 0.51 0.68 0.73 0.58 0.57 0.57 0.58 0.70 0.64 0.61 0.62 0.57 0.47 0.44 0.39 0.33 0.24 0.22 0.25
0.88 0.45 0.51 0.77 1.35 0.52 0.53 0.66 0.61 0.43 0.44 0.36 0.38 0.35 0.30 0.27 0.29 0.30 0.30 0.27 0.24 0.23 0.22 0.20 0.18 0.18 0.23 0.31 0.43 0.47 0.47 0.40 0.34 0.35 0.37 0.34 0.30 0.27 0.23 0.23 0.21 0.17 0.22 0.16
0.62 0.81 0.75 0.91 1.18 0.93 0.84 0.63 0.47 0.33 0.30 0.22 0.16 0.13 0.10 0.11 0.12 0.11 0.10 0.09 0.07 0.07 0.06 0.06 0.07 0.07 0.09 0.10 0.13 0.12 0.16 0.21 0.25 0.27 0.27 0.29 0.26 0.23 0.21 0.21 0.23 0.23 0.24 0.19

GFSCGP_prec_precacc24_099.txt.gz
Total_Precipitation_Accumulation
0.00 0.00 0.00 0.00 0.00 0.00 0.00 0.00 0.00 0.00 0.00 0.00 0.00 0.00 0.00 0.00 0.00 0.00 0.00 0.00 0.00 0.00 0.00 0.00 0.00 0.00 0.00 0.00 0.00 0.00 0.00 0.01 0.01 0.02 0.05 0.13 0.20 0.23 0.48 0.52 0.31 0.43 0.57 0.42
0.00 0.00 0.00 0.00 0.00 0.00 0.00 0.00 0.00 0.00 0.00 0.00 0.00 0.00 0.00 0.00 0.00 0.00 0.00 0.00 0.00 0.00 0.00 0.00 0.00 0.00 0.00 0.00 0.00 0.00 0.00 0.00 0.00 0.01 0.01 0.04 0.08 0.18 0.48 0.74 0.47 0.53 0.58 0.50
0.00 0.00 0.00 0.00 0.00 0.00 0.00 0.00 0.00 0.00 0.00 0.00 0.00 0.00 0.00 0.00 0.00 0.00 0.00 0.00 0.00 0.00 0.00 0.00 0.00 0.00 0.00 0.00 0.00 0.00 0.00 0.00 0.01 0.00 0.01 0.02 0.06 0.17 0.82 1.19 0.86 0.62 0.61 0.49
0.00 0.00 0.00 0.00 0.00 0.00 0.00 0.00 0.00 0.00 0.00 0.00 0.00 0.00 0.00 0.00 0.00 0.00 0.00 0.00 0.00 0.00 0.00 0.00 0.00 0.00 0.00 0.00 0.00 0.00 0.00 0.00 0.01 0.00 0.00 0.01 0.03 0.08 0.44 0.97 0.89 0.66 0.77 0.64
0.00 0.00 0.00 0.00 0.00 0.00 0.00 0.00 0.00 0.00 0.00 0.00 0.00 0.00 0.00 0.00 0.00 0.00 0.00 0.00 0.00 0.00 0.00 0.00 0.00 0.00 0.00 0.00 0.00 0.00 0.00 0.00 0.00 0.00 0.00 0.00 0.01 0.01 0.11 0.83 1.13 0.90 0.80 0.79
0.00 0.00 0.00 0.00 0.00 0.00 0.00 0.00 0.02 0.01 0.01 0.01 0.00 0.00 0.00 0.00 0.00 0.00 0.00 0.00 0.00 0.00 0.00 0.00 0.00 0.00 0.00 0.00 0.00 0.00 0.00 0.00 0.00 0.00 0.00 0.00 0.00 0.01 0.04 0.36 0.81 1.08 0.83 0.76
0.01 0.00 0.00 0.00 0.01 0.01 0.01 0.06 0.15 0.11 0.04 0.01 0.00 0.00 0.00 0.00 0.03 0.05 0.04 0.01 0.01 0.00 0.00 0.00 0.00 0.00 0.00 0.00 0.00 0.00 0.00 0.00 0.00 0.00 0.00 0.00 0.01 0.03 0.01 0.06 0.35 0.70 0.78 0.61
0.05 0.03 0.01 0.05 0.03 0.03 0.02 0.11 0.16 0.12 0.09 0.03 0.00 0.01 0.00 0.00 0.01 0.18 0.14 0.04 0.01 0.01 0.00 0.00 0.00 0.00 0.00 0.00 0.01 0.00 0.00 0.00 0.01 0.00 0.02 0.02 0.03 0.03 0.02 0.02 0.19 0.55 0.63 0.55
0.08 0.04 0.01 0.02 0.03 0.06 0.15 0.12 0.07 0.30 0.19 0.12 0.06 0.02 0.04 0.02 0.08 0.08 0.05 0.01 0.01 0.00 0.00 0.00 0.00 0.00 0.00 0.01 0.01 0.01 0.00 0.01 0.04 0.03 0.02 0.02 0.03 0.03 0.04 0.02 0.03 0.31 0.51 0.56
0.15 0.20 0.05 0.03 0.07 0.08 0.16 0.18 0.31 0.35 0.29 0.12 0.14 0.05 0.42 0.35 0.25 0.39 0.04 0.00 0.00 0.00 0.00 0.00 0.00 0.00 0.03 0.03 0.06 0.06 0.03 0.02 0.03 0.05 0.04 0.03 0.05 0.03 0.03 0.02 0.01 0.09 0.30 0.44
0.10 0.21 0.14 0.15 0.12 0.08 0.15 0.30 0.26 0.26 0.11 0.16 0.21 0.48 0.61 0.78 0.16 0.15 0.01 0.00 0.00 0.00 0.00 0.00 0.01 0.04 0.06 0.05 0.05 0.04 0.02 0.04 0.06 0.06 0.03 0.04 0.05 0.03 0.04 0.03 0.01 0.02 0.11 0.35
0.09 0.38 0.22 0.15 0.07 0.03 0.11 0.14 0.19 0.30 0.21 0.10 0.19 0.75 0.54 0.28 0.19 0.10 0.00 0.00 0.00 0.00 0.00 0.00 0.01 0.03 0.06 0.07 0.03 0.03 0.02 0.03 0.06 0.10 0.06 0.06 0.07 0.03 0.02 0.01 0.01 0.00 0.02 0.14
0.32 0.37 0.41 0.34 0.20 0.12 0.15 0.13 0.19 0.34 0.32 0.23 0.24 0.58 0.67 0.21 0.04 0.00 0.00 0.00 0.00 0.00 0.01 0.01 0.03 0.05 0.06 0.08 0.07 0.04 0.05 0.09 0.08 0.08 0.07 0.06 0.08 0.03 0.02 0.01 0.01 0.01 0.01 0.03
0.60 0.35 0.52 0.29 0.18 0.24 0.29 0.28 0.35 0.43 0.38 0.13 0.20 0.49 0.58 0.33 0.08 0.00 0.00 0.00 0.01 0.02 0.02 0.06 0.08 0.10 0.14 0.19 0.17 0.11 0.10 0.16 0.16 0.11 0.09 0.06 0.08 0.05 0.01 0.02 0.01 0.01 0.01 0.01
0.43 0.22 0.57 0.46 0.13 0.12 0.13 0.13 0.26 0.41 0.35 0.21 0.22 0.19 0.35 0.69 0.31 0.07 0.03 0.01 0.05 0.04 0.05 0.11 0.16 0.22 0.24 0.22 0.16 0.14 0.11 0.19 0.18 0.12 0.07 0.08 0.04 0.03 0.03 0.03 0.02 0.02 0.02 0.01
0.47 0.27 0.35 0.67 0.30 0.18 0.18 0.20 0.18 0.25 0.13 0.09 0.03 0.13 0.23 0.51 0.53 0.30 0.15 0.04 0.09 0.09 0.08 0.11 0.17 0.22 0.30 0.38 0.43 0.42 0.31 0.26 0.18 0.12 0.13 0.10 0.08 0.08 0.07 0.05 0.03 0.03 0.03 0.02
0.40 0.47 0.14 0.20 0.09 0.07 0.12 0.06 0.07 0.04 0.04 0.02 0.04 0.06 0.26 0.51 0.64 0.51 0.34 0.15 0.12 0.13 0.12 0.11 0.16 0.18 0.22 0.26 0.22 0.24 0.22 0.19 0.19 0.19 0.15 0.10 0.10 0.09 0.08 0.08 0.07 0.08 0.11 0.06
0.23 0.23 0.05 0.01 0.02 0.17 0.19 0.03 0.19 0.27 0.20 0.08 0.12 0.17 0.37 0.41 0.31 0.46 0.46 0.46 0.28 0.23 0.21 0.15 0.12 0.16 0.18 0.20 0.20 0.18 0.16 0.16 0.15 0.14 0.11 0.08 0.09 0.10 0.11 0.13 0.15 0.15 0.13 0.13
0.04 0.03 0.01 0.01 0.03 0.11 0.09 0.16 0.29 0.61 0.51 0.22 0.20 0.34 0.33 0.23 0.08 0.41 0.53 0.49 0.71 0.53 0.36 0.38 0.27 0.23 0.29 0.28 0.35 0.30 0.23 0.20 0.17 0.12 0.10 0.09 0.11 0.10 0.11 0.09 0.11 0.13 0.16 0.16
0.00 0.01 0.02 0.01 0.02 0.12 0.12 0.06 0.19 0.34 0.77 0.77 0.33 0.30 0.37 0.31 0.26 0.56 0.61 0.50 0.60 0.91 0.70 0.49 0.48 0.34 0.44 0.49 0.47 0.69 0.47 0.33 0.29 0.25 0.16 0.10 0.12 0.11 0.12 0.12 0.11 0.11 0.13 0.14
0.01 0.01 0.02 0.01 0.05 0.03 0.01 0.05 0.17 0.72 0.79 0.86 1.14 0.80 0.74 0.64 0.63 0.76 0.75 0.62 0.57 0.78 1.12 0.81 0.72 0.58 0.59 0.79 0.61 0.71 1.16 0.87 0.63 0.52 0.42 0.31 0.18 0.16 0.16 0.16 0.15 0.16 0.18 0.18
0.05 0.17 0.09 0.06 0.11 0.06 0.08 0.13 0.43 0.83 0.90 0.97 1.14 1.24 1.41 1.35 1.22 1.04 0.81 0.61 0.50 0.47 0.70 1.14 0.95 0.89 0.77 0.89 0.98 0.80 0.97 1.51 1.27 0.92 0.76 0.64 0.52 0.35 0.22 0.21 0.24 0.21 0.19 0.20
0.20 0.12 0.11 0.12 0.16 0.21 0.11 0.16 0.46 0.60 0.70 0.75 0.82 0.88 1.01 1.02 0.93 0.77 0.50 0.35 0.34 0.41 0.44 0.54 0.91 0.97 0.82 0.68 0.85 0.95 1.06 1.18 1.29 1.30 1.18 1.06 0.83 0.72 0.61 0.45 0.35 0.31 0.32 0.28
0.52 0.24 0.33 0.41 0.49 0.15 0.10 0.19 0.28 0.39 0.56 0.49 0.47 0.47 0.46 0.48 0.53 0.52 0.38 0.27 0.22 0.21 0.24 0.27 0.33 0.53 0.71 0.78 0.64 0.67 0.75 0.79 0.90 0.88 0.92 1.01 0.95 0.80 0.70 0.63 0.63 0.59 0.54 0.53
0.59 0.42 0.41 0.56 0.68 0.38 0.42 0.66 0.62 0.45 0.46 0.38 0.39 0.36 0.32 0.29 0.31 0.32 0.31 0.29 0.26 0.25 0.24 0.21 0.19 0.19 0.25 0.33 0.46 0.53 0.53 0.48 0.46 0.49 0.54 0.52 0.52 0.52 0.47 0.40 0.36 0.32 0.39 0.32
0.46 0.72 0.58 0.71 0.81 0.65 0.69 0.63 0.48 0.35 0.31 0.24 0.17 0.14 0.12 0.12 0.13 0.11 0.10 0.09 0.07 0.07 0.06 0.06 0.07 0.07 0.09 0.10 0.13 0.13 0.17 0.22 0.26 0.30 0.33 0.39 0.40 0.38 0.37 0.38 0.38 0.34 0.29 0.20

GFSCGP_prec_precacc24_102.txt.gz
Total_Precipitation_Accumulation
0.00 0.00 0.00 0.00 0.00 0.00 0.00 0.00 0.00 0.00 0.00 0.00 0.00 0.00 0.00 0.00 0.00 0.00 0.00 0.00 0.00 0.00 0.00 0.00 0.00 0.00 0.00 0.00 0.00 0.00 0.00 0.01 0.02 0.03 0.04 0.07 0.15 0.15 0.35 0.49 0.30 0.42 0.58 0.42
0.00 0.00 0.00 0.00 0.00 0.00 0.00 0.00 0.00 0.00 0.00 0.00 0.00 0.00 0.00 0.00 0.00 0.00 0.00 0.00 0.00 0.00 0.00 0.00 0.00 0.00 0.00 0.00 0.00 0.00 0.00 0.00 0.00 0.01 0.02 0.04 0.08 0.15 0.40 0.69 0.46 0.52 0.58 0.51
0.00 0.00 0.00 0.00 0.00 0.00 0.00 0.00 0.00 0.00 0.00 0.00 0.00 0.00 0.00 0.00 0.00 0.00 0.00 0.00 0.00 0.00 0.00 0.00 0.00 0.00 0.00 0.00 0.00 0.00 0.00 0.00 0.01 0.01 0.03 0.03 0.07 0.15 0.65 1.05 0.78 0.61 0.61 0.50
0.00 0.00 0.00 0.00 0.00 0.00 0.00 0.00 0.00 0.00 0.00 0.00 0.00 0.00 0.00 0.00 0.00 0.00 0.00 0.00 0.00 0.00 0.00 0.00 0.00 0.00 0.00 0.00 0.00 0.00 0.00 0.00 0.01 0.00 0.00 0.01 0.02 0.06 0.39 0.94 0.85 0.66 0.78 0.64
0.00 0.00 0.00 0.00 0.00 0.00 0.00 0.00 0.00 0.00 0.00 0.00 0.00 0.00 0.00 0.00 0.00 0.00 0.00 0.00 0.00 0.00 0.00 0.00 0.00 0.00 0.00 0.00 0.00 0.00 0.00 0.00 0.00 0.00 0.00 0.01 0.01 0.01 0.10 0.83 1.12 0.89 0.80 0.82
0.00 0.00 0.00 0.00 0.00 0.00 0.00 0.00 0.01 0.02 0.03 0.05 0.00 0.00 0.00 0.00 0.00 0.00 0.04 0.04 0.01 0.00 0.00 0.00 0.00 0.00 0.00 0.00 0.00 0.00 0.00 0.00 0.00 0.00 0.01 0.01 0.00 0.01 0.04 0.36 0.82 1.08 0.84 0.78
0.01 0.00 0.00 0.00 0.01 0.01 0.01 0.05 0.12 0.14 0.07 0.03 0.00 0.00 0.00 0.00 0.03 0.06 0.16 0.22 0.09 0.07 0.03 0.01 0.00 0.00 0.00 0.00 0.00 0.00 0.00 0.00 0.01 0.01 0.00 0.01 0.01 0.03 0.01 0.06 0.35 0.70 0.78 0.61
0.05 0.03 0.01 0.05 0.03 0.03 0.02 0.10 0.16 0.13 0.08 0.04 0.01 0.01 0.00 0.01 0.01 0.26 0.52 0.37 0.10 0.08 0.05 0.03 0.02 0.01 0.00 0.00 0.01 0.00 0.01 0.01 0.03 0.02 0.02 0.02 0.03 0.03 0.02 0.02 0.19 0.55 0.64 0.57
0.09 0.04 0.01 0.02 0.03 0.06 0.12 0.10 0.07 0.24 0.16 0.19 0.08 0.02 0.04 0.04 0.15 0.18 0.35 0.28 0.13 0.02 0.02 0.01 0.01 0.01 0.02 0.02 0.01 0.01 0.01 0.08 0.10 0.07 0.07 0.08 0.05 0.04 0.04 0.02 0.03 0.32 0.53 0.58
0.16 0.21 0.05 0.03 0.06 0.05 0.17 0.15 0.26 0.25 0.31 0.19 0.17 0.13 0.60 0.57 0.40 0.67 0.49 0.19 0.07 0.00 0.00 0.00 0.01 0.01 0.05 0.07 0.08 0.07 0.04 0.02 0.06 0.13 0.11 0.07 0.08 0.06 0.04 0.04 0.05 0.11 0.32 0.45
0.10 0.21 0.14 0.15 0.12 0.08 0.10 0.24 0.24 0.26 0.13 0.21 0.38 0.82 0.98 1.27 0.66 0.46 0.15 0.07 0.02 0.00 0.00 0.00 0.01 0.05 0.09 0.08 0.08 0.08 0.04 0.07 0.12 0.18 0.11 0.08 0.07 0.04 0.07 0.06 0.04 0.04 0.11 0.35
0.09 0.39 0.23 0.15 0.07 0.02 0.08 0.12 0.17 0.30 0.21 0.13 0.29 0.98 1.03 0.76 0.63 0.31 0.05 0.01 0.00 0.00 0.00 0.00 0.01 0.04 0.09 0.09 0.05 0.07 0.04 0.06 0.10 0.19 0.14 0.11 0.10 0.07 0.07 0.09 0.06 0.02 0.02 0.14
0.32 0.37 0.42 0.34 0.20 0.13 0.20 0.25 0.17 0.33 0.38 0.30 0.40 0.94 0.97 0.44 0.17 0.03 0.00 0.00 0.00 0.00 0.01 0.01 0.03 0.05 0.06 0.09 0.08 0.04 0.06 0.11 0.12 0.13 0.13 0.12 0.15 0.09 0.13 0.12 0.05 0.02 0.01 0.03
0.62 0.37 0.53 0.30 0.14 0.09 0.12 0.17 0.24 0.31 0.29 0.23 0.46 0.59 0.39 0.15 0.02 0.00 0.00 0.00 0.01 0.02 0.02 0.05 0.06 0.09 0.14 0.19 0.17 0.11 0.11 0.20 0.22 0.19 0.15 0.11 0.15 0.12 0.08 0.08 0.02 0.01 0.01 0.01
0.53 0.27 0.60 0.47 0.13 0.10 0.09 0.13 0.21 0.29 0.34 0.37 0.44 0.15 0.13 0.33 0.21 0.06 0.02 0.01 0.05 0.04 0.05 0.10 0.14 0.20 0.20 0.19 0.16 0.14 0.12 0.24 0.25 0.18 0.13 0.13 0.07 0.07 0.04 0.03 0.02 0.02 0.02 0.01
0.51 0.36 0.55 0.87 0.31 0.18 0.24 0.40 0.21 0.25 0.28 0.24 0.10 0.03 0.09 0.22 0.34 0.29 0.16 0.04 0.09 0.09 0.08 0.11 0.17 0.22 0.29 0.33 0.36 0.35 0.26 0.25 0.20 0.16 0.17 0.13 0.10 0.08 0.06 0.05 0.03 0.03 0.04 0.03
0.39 0.59 0.38 0.49 0.18 0.19 0.49 0.37 0.06 0.05 0.05 0.01 0.02 0.02 0.08 0.34 0.38 0.45 0.35 0.15 0.12 0.13 0.12 0.11 0.16 0.19 0.22 0.26 0.22 0.24 0.21 0.19 0.21 0.18 0.12 0.10 0.10 0.09 0.07 0.06 0.06 0.09 0.13 0.08
0.38 0.33 0.10 0.17 0.11 0.22 0.44 0.13 0.04 0.08 0.06 0.03 0.03 0.03 0.11 0.28 0.22 0.43 0.47 0.47 0.28 0.24 0.22 0.16 0.13 0.17 0.19 0.20 0.20 0.18 0.16 0.16 0.16 0.16 0.14 0.13 0.14 0.11 0.13 0.14 0.15 0.14 0.14 0.17
0.09 0.06 0.02 0.05 0.06 0.18 0.07 0.06 0.22 0.29 0.24 0.11 0.05 0.02 0.12 0.17 0.07 0.41 0.54 0.51 0.73 0.55 0.38 0.40 0.29 0.25 0.30 0.28 0.35 0.30 0.23 0.21 0.19 0.17 0.16 0.17 0.17 0.14 0.12 0.13 0.12 0.14 0.15 0.16
0.03 0.02 0.04 0.03 0.02 0.07 0.09 0.03 0.16 0.26 0.59 0.64 0.24 0.13 0.18 0.20 0.23 0.57 0.62 0.51 0.61 0.92 0.72 0.51 0.49 0.34 0.45 0.50 0.47 0.69 0.49 0.35 0.33 0.31 0.27 0.21 0.24 0.19 0.15 0.13 0.12 0.12 0.13 0.14
0.01 0.00 0.01 0.01 0.04 0.03 0.00 0.02 0.12 0.50 0.64 0.77 1.07 0.71 0.60 0.55 0.60 0.77 0.76 0.63 0.58 0.79 1.14 0.82 0.73 0.58 0.61 0.81 0.62 0.72 1.17 0.98 0.80 0.69 0.55 0.46 0.37 0.33 0.24 0.20 0.17 0.16 0.14 0.15
0.05 0.17 0.08 0.05 0.10 0.07 0.03 0.08 0.34 0.70 0.78 0.89 1.06 1.20 1.38 1.34 1.22 1.03 0.82 0.62 0.51 0.49 0.71 1.15 0.96 0.90 0.79 0.90 0.98 0.81 1.00 1.61 1.48 1.14 1.01 0.89 0.76 0.64 0.52 0.42 0.37 0.28 0.22 0.19
0.16 0.13 0.11 0.13 0.15 0.19 0.07 0.14 0.35 0.55 0.61 0.73 0.80 0.86 1.01 1.01 0.93 0.77 0.50 0.35 0.35 0.42 0.45 0.55 0.92 0.97 0.83 0.69 0.86 0.97 1.10 1.23 1.38 1.44 1.36 1.33 1.18 1.03 0.89 0.74 0.61 0.50 0.44 0.37
0.43 0.23 0.29 0.37 0.33 0.15 0.11 0.20 0.29 0.38 0.54 0.49 0.47 0.47 0.46 0.48 0.53 0.52 0.39 0.28 0.22 0.22 0.24 0.28 0.33 0.53 0.71 0.78 0.64 0.69 0.78 0.83 0.93 0.93 1.00 1.14 1.16 1.08 1.00 0.91 0.88 0.79 0.71 0.67
0.29 0.35 0.32 0.42 0.31 0.29 0.34 0.55 0.62 0.45 0.46 0.38 0.40 0.37 0.33 0.29 0.31 0.32 0.32 0.29 0.26 0.25 0.24 0.21 0.19 0.19 0.25 0.33 0.47 0.53 0.53 0.49 0.47 0.51 0.58 0.59 0.60 0.65 0.66 0.62 0.58 0.51 0.57 0.48
0.17 0.51 0.38 0.46 0.46 0.41 0.54 0.57 0.47 0.35 0.32 0.25 0.18 0.15 0.14 0.14 0.15 0.13 0.11 0.09 0.07 0.07 0.06 0.06 0.07 0.07 0.09 0.10 0.13 0.13 0.17 0.22 0.27 0.31 0.34 0.41 0.44 0.44 0.46 0.49 0.53 0.49 0.44 0.33

GFSCGP_prec_precacc24_105.txt.gz
Total_Precipitation_Accumulation
0.00 0.00 0.00 0.00 0.00 0.00 0.00 0.00 0.00 0.00 0.00 0.00 0.00 0.00 0.00 0.00 0.00 0.00 0.00 0.00 0.00 0.00 0.00 0.00 0.00 0.00 0.00 0.00 0.00 0.00 0.00 0.00 0.02 0.03 0.04 0.05 0.05 0.07 0.11 0.22 0.25 0.26 0.50 0.41
0.00 0.00 0.00 0.00 0.00 0.00 0.00 0.00 0.00 0.00 0.00 0.00 0.00 0.00 0.00 0.00 0.00 0.00 0.00 0.00 0.00 0.00 0.00 0.00 0.00 0.00 0.00 0.00 0.00 0.00 0.00 0.00 0.00 0.01 0.02 0.03 0.06 0.09 0.21 0.53 0.46 0.41 0.51 0.49
0.00 0.00 0.00 0.00 0.00 0.00 0.00 0.00 0.00 0.00 0.00 0.00 0.00 0.00 0.00 0.00 0.00 0.00 0.00 0.00 0.00 0.00 0.00 0.00 0.00 0.00 0.00 0.00 0.00 0.00 0.00 0.00 0.01 0.01 0.03 0.03 0.07 0.13 0.32 0.73 0.73 0.55 0.56 0.48
0.00 0.00 0.00 0.00 0.00 0.00 0.00 0.00 0.00 0.00 0.00 0.00 0.00 0.00 0.00 0.00 0.00 0.00 0.00 0.00 0.00 0.00 0.00 0.00 0.00 0.00 0.00 0.00 0.00 0.00 0.00 0.00 0.01 0.00 0.00 0.01 0.02 0.03 0.22 0.65 0.68 0.59 0.79 0.64
0.00 0.00 0.00 0.00 0.00 0.00 0.00 0.00 0.00 0.00 0.00 0.00 0.00 0.00 0.00 0.00 0.00 0.00 0.00 0.00 0.00 0.00 0.00 0.00 0.00 0.00 0.00 0.00 0.00 0.00 0.00 0.00 0.00 0.00 0.00 0.01 0.01 0.01 0.04 0.61 0.86 0.65 0.72 0.75
0.00 0.00 0.00 0.00 0.00 0.00 0.00 0.00 0.01 0.02 0.03 0.04 0.00 0.00 0.00 0.00 0.00 0.00 0.04 0.04 0.01 0.01 0.01 0.01 0.00 0.00 0.00 0.00 0.00 0.00 0.00 0.00 0.00 0.00 0.01 0.01 0.00 0.01 0.03 0.29 0.67 0.87 0.68 0.64
0.01 0.00 0.00 0.00 0.01 0.01 0.01 0.05 0.12 0.13 0.06 0.03 0.00 0.00 0.00 0.02 0.06 0.08 0.17 0.22 0.12 0.09 0.09 0.06 0.05 0.04 0.03 0.00 0.00 0.00 0.00 0.00 0.01 0.01 0.00 0.01 0.02 0.03 0.02 0.06 0.34 0.66 0.73 0.56
0.05 0.03 0.01 0.05 0.03 0.03 0.02 0.10 0.15 0.11 0.08 0.04 0.01 0.01 0.02 0.07 0.09 0.28 0.53 0.42 0.36 0.22 0.10 0.13 0.10 0.07 0.04 0.01 0.01 0.00 0.01 0.02 0.03 0.03 0.04 0.05 0.06 0.07 0.05 0.04 0.19 0.55 0.64 0.57
0.09 0.04 0.01 0.02 0.03 0.06 0.11 0.08 0.06 0.17 0.14 0.18 0.08 0.04 0.10 0.15 0.26 0.20 0.36 0.36 0.31 0.26 0.15 0.11 0.10 0.11 0.07 0.05 0.02 0.01 0.01 0.09 0.12 0.09 0.08 0.11 0.11 0.09 0.08 0.06 0.05 0.32 0.53 0.58
0.17 0.21 0.05 0.03 0.06 0.05 0.16 0.10 0.22 0.24 0.30 0.19 0.19 0.27 0.90 0.90 0.59 0.85 0.73 0.36 0.22 0.15 0.15 0.11 0.07 0.07 0.10 0.13 0.12 0.08 0.05 0.04 0.10 0.16 0.16 0.14 0.16 0.12 0.11 0.09 0.07 0.12 0.33 0.45
0.10 0.21 0.14 0.15 0.12 0.08 0.12 0.22 0.17 0.23 0.12 0.19 0.44 1.20 1.26 1.59 0.97 0.72 0.38 0.21 0.16 0.07 0.06 0.02 0.01 0.06 0.10 0.10 0.13 0.13 0.07 0.10 0.18 0.25 0.18 0.15 0.15 0.13 0.16 0.14 0.12 0.07 0.12 0.36
0.09 0.39 0.23 0.15 0.07 0.02 0.08 0.14 0.20 0.25 0.19 0.16 0.34 1.16 1.24 1.07 0.95 0.49 0.08 0.01 0.03 0.06 0.01 0.00 0.01 0.05 0.09 0.09 0.07 0.10 0.09 0.12 0.16 0.26 0.20 0.16 0.17 0.14 0.14 0.16 0.12 0.06 0.03 0.14
0.33 0.37 0.43 0.34 0.21 0.13 0.24 0.36 0.20 0.28 0.40 0.44 0.69 1.21 1.12 0.65 0.24 0.04 0.01 0.00 0.00 0.02 0.01 0.01 0.03 0.05 0.06 0.08 0.07 0.05 0.10 0.17 0.20 0.27 0.24 0.26 0.30 0.19 0.21 0.19 0.11 0.06 0.03 0.04
0.63 0.38 0.53 0.30 0.14 0.08 0.16 0.23 0.30 0.24 0.32 0.32 0.57 0.74 0.39 0.10 0.02 0.01 0.01 0.00 0.01 0.02 0.02 0.05 0.06 0.08 0.09 0.14 0.15 0.10 0.11 0.21 0.27 0.29 0.24 0.23 0.28 0.23 0.16 0.15 0.06 0.04 0.02 0.01
0.59 0.31 0.62 0.47 0.13 0.11 0.16 0.30 0.29 0.32 0.32 0.32 0.50 0.26 0.10 0.02 0.03 0.03 0.03 0.01 0.04 0.03 0.04 0.08 0.11 0.12 0.15 0.17 0.15 0.13 0.11 0.24 0.33 0.32 0.24 0.26 0.17 0.16 0.09 0.06 0.04 0.02 0.02 0.01
0.58 0.46 0.65 0.94 0.31 0.27 0.38 0.50 0.26 0.31 0.30 0.27 0.15 0.06 0.03 0.04 0.03 0.10 0.13 0.02 0.07 0.08 0.07 0.08 0.13 0.16 0.24 0.28 0.31 0.30 0.23 0.23 0.31 0.36 0.28 0.18 0.13 0.11 0.10 0.07 0.04 0.03 0.04 0.03
0.53 0.77 0.66 0.63 0.21 0.23 0.52 0.54 0.27 0.11 0.06 0.02 0.02 0.04 0.01 0.07 0.16 0.19 0.28 0.12 0.12 0.13 0.13 0.12 0.16 0.19 0.23 0.26 0.21 0.22 0.21 0.19 0.22 0.26 0.20 0.15 0.14 0.10 0.08 0.05 0.05 0.06 0.11 0.07
0.53 0.48 0.32 0.31 0.13 0.23 0.53 0.24 0.13 0.07 0.04 0.02 0.03 0.03 0.02 0.05 0.12 0.20 0.41 0.45 0.26 0.24 0.23 0.16 0.14 0.18 0.21 0.21 0.20 0.18 0.16 0.17 0.17 0.18 0.18 0.19 0.19 0.16 0.16 0.15 0.12 0.12 0.13 0.15
0.18 0.17 0.19 0.17 0.08 0.23 0.13 0.01 0.02 0.10 0.10 0.06 0.04 0.03 0.04 0.08 0.04 0.19 0.36 0.45 0.72 0.57 0.41 0.42 0.32 0.27 0.31 0.29 0.35 0.30 0.23 0.21 0.19 0.17 0.18 0.20 0.24 0.22 0.17 0.18 0.18 0.18 0.16 0.14
0.05 0.08 0.15 0.08 0.03 0.09 0.09 0.00 0.01 0.05 0.26 0.22 0.13 0.03 0.03 0.08 0.16 0.43 0.47 0.37 0.53 0.91 0.74 0.53 0.51 0.34 0.45 0.51 0.47 0.69 0.49 0.35 0.34 0.34 0.29 0.23 0.29 0.34 0.37 0.30 0.21 0.19 0.19 0.16
0.03 0.02 0.02 0.01 0.04 0.03 0.01 0.01 0.02 0.25 0.43 0.47 0.73 0.53 0.43 0.35 0.41 0.64 0.66 0.57 0.57 0.80 1.16 0.84 0.73 0.59 0.62 0.81 0.62 0.72 1.17 1.00 0.81 0.72 0.61 0.51 0.44 0.43 0.47 0.53 0.47 0.32 0.24 0.20
0.06 0.17 0.08 0.04 0.09 0.07 0.01 0.03 0.13 0.43 0.55 0.71 0.87 1.03 1.18 1.10 1.09 0.98 0.80 0.62 0.51 0.49 0.72 1.15 0.96 0.91 0.79 0.90 0.98 0.81 1.02 1.62 1.48 1.14 1.04 0.97 0.86 0.78 0.71 0.66 0.66 0.58 0.44 0.30
0.11 0.12 0.11 0.13 0.14 0.18 0.06 0.10 0.21 0.33 0.46 0.67 0.69 0.70 0.86 0.94 0.91 0.78 0.51 0.36 0.35 0.42 0.46 0.55 0.92 0.97 0.83 0.69 0.86 0.98 1.12 1.24 1.38 1.44 1.37 1.38 1.27 1.16 1.05 0.95 0.88 0.77 0.67 0.57
0.06 0.15 0.27 0.34 0.24 0.13 0.11 0.11 0.23 0.32 0.50 0.50 0.48 0.47 0.46 0.49 0.54 0.53 0.39 0.28 0.22 0.22 0.24 0.28 0.33 0.53 0.71 0.78 0.64 0.70 0.78 0.83 0.93 0.93 1.00 1.15 1.19 1.15 1.12 1.03 1.02 0.96 0.91 0.87
0.10 0.20 0.26 0.32 0.23 0.16 0.19 0.35 0.46 0.43 0.45 0.39 0.41 0.38 0.33 0.30 0.32 0.32 0.32 0.29 0.26 0.25 0.24 0.21 0.19 0.19 0.25 0.33 0.47 0.53 0.53 0.49 0.47 0.51 0.58 0.59 0.61 0.67 0.70 0.69 0.68 0.63 0.72 0.62
0.07 0.30 0.26 0.25 0.27 0.25 0.35 0.39 0.34 0.32 0.32 0.26 0.19 0.16 0.15 0.15 0.15 0.13 0.11 0.09 0.07 0.07 0.06 0.06 0.07 0.07 0.09 0.10 0.13 0.13 0.17 0.22 0.27 0.31 0.34 0.41 0.44 0.44 0.46 0.50 0.55 0.54 0.52 0.42

GFSCGP_prec_precacc24_108.txt.gz
Total_Precipitation_Accumulation
0.00 0.00 0.00 0.00 0.00 0.00 0.00 0.00 0.00 0.00 0.00 0.00 0.00 0.00 0.00 0.00 0.00 0.00 0.00 0.00 0.00 0.00 0.00 0.00 0.00 0.00 0.00 0.00 0.00 0.00 0.00 0.00 0.02 0.03 0.04 0.04 0.03 0.04 0.04 0.03 0.09 0.07 0.14 0.23
0.00 0.00 0.00 0.00 0.00 0.00 0.00 0.00 0.00 0.00 0.00 0.00 0.00 0.00 0.00 0.00 0.00 0.00 0.00 0.00 0.00 0.00 0.00 0.00 0.00 0.00 0.00 0.00 0.00 0.00 0.00 0.00 0.00 0.01 0.02 0.03 0.05 0.06 0.09 0.13 0.16 0.18 0.19 0.37
0.00 0.00 0.00 0.00 0.00 0.00 0.00 0.00 0.00 0.00 0.00 0.00 0.00 0.00 0.00 0.00 0.00 0.00 0.00 0.00 0.00 0.00 0.00 0.00 0.00 0.00 0.00 0.00 0.00 0.00 0.00 0.00 0.01 0.01 0.03 0.04 0.08 0.10 0.14 0.19 0.33 0.33 0.31 0.41
0.00 0.00 0.00 0.00 0.00 0.00 0.00 0.00 0.00 0.00 0.00 0.00 0.00 0.00 0.00 0.00 0.00 0.00 0.00 0.00 0.00 0.00 0.00 0.00 0.00 0.00 0.00 0.00 0.00 0.00 0.00 0.00 0.01 0.00 0.00 0.01 0.01 0.02 0.06 0.23 0.33 0.45 0.64 0.57
0.00 0.00 0.00 0.00 0.00 0.00 0.00 0.00 0.00 0.00 0.00 0.00 0.00 0.00 0.00 0.00 0.00 0.00 0.00 0.00 0.00 0.00 0.00 0.00 0.00 0.00 0.00 0.00 0.00 0.00 0.00 0.00 0.00 0.00 0.00 0.01 0.01 0.01 0.02 0.28 0.51 0.44 0.60 0.69
0.00 0.00 0.00 0.00 0.00 0.00 0.00 0.00 0.01 0.02 0.03 0.04 0.00 0.00 0.00 0.00 0.00 0.01 0.05 0.04 0.01 0.01 0.01 0.01 0.01 0.01 0.00 0.00 0.00 0.00 0.00 0.00 0.00 0.00 0.00 0.01 0.00 0.01 0.01 0.16 0.36 0.59 0.51 0.57
0.01 0.00 0.00 0.00 0.01 0.01 0.01 0.05 0.12 0.13 0.05 0.02 0.00 0.00 0.01 0.04 0.11 0.15 0.21 0.24 0.13 0.10 0.09 0.07 0.06 0.05 0.04 0.01 0.00 0.00 0.00 0.00 0.01 0.01 0.00 0.01 0.02 0.03 0.02 0.04 0.15 0.32 0.44 0.38
0.05 0.03 0.01 0.05 0.03 0.03 0.02 0.09 0.15 0.11 0.07 0.04 0.01 0.02 0.04 0.12 0.20 0.37 0.60 0.45 0.36 0.22 0.11 0.15 0.15 0.12 0.07 0.05 0.04 0.02 0.02 0.03 0.04 0.04 0.04 0.06 0.06 0.07 0.05 0.04 0.17 0.43 0.38 0.43
0.09 0.04 0.01 0.02 0.03 0.06 0.11 0.07 0.06 0.14 0.13 0.17 0.08 0.04 0.11 0.23 0.33 0.29 0.42 0.40 0.33 0.27 0.17 0.17 0.19 0.18 0.14 0.11 0.08 0.06 0.05 0.11 0.15 0.11 0.11 0.14 0.12 0.10 0.09 0.10 0.10 0.37 0.52 0.56
0.17 0.21 0.05 0.03 0.06 0.05 0.15 0.08 0.18 0.22 0.30 0.18 0.19 0.29 0.95 0.97 0.65 0.94 0.82 0.47 0.32 0.24 0.21 0.19 0.22 0.26 0.21 0.22 0.19 0.16 0.09 0.05 0.13 0.20 0.20 0.16 0.19 0.19 0.15 0.12 0.10 0.14 0.34 0.45
0.10 0.21 0.14 0.15 0.12 0.08 0.12 0.22 0.21 0.20 0.09 0.19 0.43 1.22 1.34 1.71 1.10 0.82 0.45 0.33 0.34 0.20 0.21 0.31 0.27 0.25 0.28 0.18 0.21 0.25 0.16 0.13 0.24 0.28 0.22 0.18 0.17 0.14 0.16 0.15 0.15 0.11 0.16 0.36
0.09 0.39 0.23 0.15 0.07 0.02 0.08 0.14 0.25 0.39 0.20 0.15 0.35 1.21 1.28 1.18 1.09 0.55 0.09 0.01 0.05 0.13 0.11 0.20 0.23 0.11 0.14 0.12 0.10 0.16 0.22 0.23 0.21 0.31 0.26 0.24 0.19 0.15 0.15 0.16 0.16 0.11 0.08 0.17
0.33 0.37 0.43 0.34 0.26 0.12 0.22 0.38 0.23 0.37 0.41 0.38 0.68 1.30 1.22 0.81 0.28 0.04 0.02 0.01 0.01 0.07 0.05 0.04 0.05 0.06 0.07 0.08 0.07 0.07 0.16 0.25 0.30 0.35 0.34 0.34 0.40 0.27 0.27 0.26 0.20 0.16 0.10 0.10
0.63 0.38 0.53 0.30 0.14 0.09 0.18 0.27 0.35 0.30 0.34 0.34 0.61 0.83 0.51 0.19 0.02 0.01 0.01 0.02 0.03 0.02 0.04 0.06 0.06 0.08 0.08 0.09 0.13 0.12 0.11 0.23 0.31 0.36 0.35 0.33 0.39 0.34 0.27 0.29 0.21 0.15 0.09 0.05
0.59 0.32 0.62 0.47 0.14 0.16 0.29 0.40 0.36 0.49 0.38 0.37 0.56 0.33 0.19 0.07 0.02 0.03 0.03 0.01 0.05 0.03 0.04 0.08 0.11 0.12 0.12 0.13 0.13 0.11 0.11 0.24 0.33 0.37 0.30 0.37 0.29 0.37 0.31 0.27 0.15 0.10 0.05 0.03
0.61 0.48 0.69 0.97 0.34 0.37 0.45 0.57 0.29 0.41 0.39 0.34 0.21 0.10 0.05 0.02 0.02 0.02 0.01 0.01 0.05 0.06 0.06 0.07 0.12 0.12 0.15 0.20 0.25 0.23 0.16 0.20 0.31 0.44 0.45 0.30 0.36 0.22 0.20 0.18 0.09 0.10 0.05 0.03
0.60 0.91 0.78 0.75 0.22 0.24 0.53 0.59 0.33 0.15 0.09 0.04 0.04 0.05 0.02 0.02 0.05 0.09 0.05 0.06 0.12 0.13 0.12 0.10 0.13 0.16 0.20 0.25 0.20 0.21 0.19 0.17 0.21 0.52 0.67 0.48 0.56 0.35 0.14 0.08 0.07 0.07 0.12 0.09
0.70 0.65 0.45 0.42 0.16 0.25 0.55 0.27 0.15 0.07 0.03 0.02 0.02 0.04 0.02 0.05 0.09 0.10 0.16 0.18 0.23 0.23 0.23 0.17 0.15 0.18 0.22 0.21 0.20 0.18 0.16 0.17 0.17 0.19 0.28 0.48 0.53 0.39 0.24 0.16 0.11 0.11 0.13 0.15
0.36 0.33 0.34 0.30 0.13 0.24 0.15 0.02 0.02 0.06 0.08 0.05 0.02 0.03 0.04 0.08 0.05 0.09 0.18 0.29 0.51 0.56 0.43 0.47 0.35 0.29 0.31 0.30 0.36 0.30 0.23 0.21 0.20 0.18 0.19 0.23 0.32 0.37 0.27 0.23 0.21 0.22 0.18 0.16
0.09 0.19 0.25 0.11 0.03 0.09 0.10 0.00 0.00 0.05 0.24 0.07 0.03 0.02 0.03 0.09 0.15 0.27 0.30 0.29 0.41 0.76 0.71 0.55 0.53 0.34 0.45 0.52 0.48 0.70 0.49 0.36 0.35 0.35 0.30 0.24 0.30 0.36 0.40 0.35 0.29 0.26 0.25 0.22
0.10 0.16 0.06 0.02 0.03 0.03 0.01 0.01 0.01 0.15 0.30 0.17 0.18 0.30 0.34 0.32 0.35 0.46 0.45 0.42 0.49 0.67 1.04 0.79 0.73 0.60 0.62 0.82 0.62 0.72 1.18 1.02 0.83 0.72 0.61 0.52 0.45 0.45 0.49 0.55 0.56 0.53 0.47 0.41
0.08 0.24 0.11 0.04 0.07 0.06 0.01 0.02 0.09 0.28 0.32 0.33 0.38 0.57 0.77 0.74 0.78 0.71 0.67 0.57 0.51 0.49 0.69 1.09 0.93 0.89 0.79 0.90 0.99 0.81 1.04 1.64 1.48 1.15 1.04 0.97 0.86 0.78 0.71 0.68 0.71 0.64 0.61 0.58
0.11 0.11 0.09 0.13 0.13 0.16 0.07 0.10 0.18 0.16 0.29 0.42 0.38 0.43 0.59 0.66 0.66 0.62 0.48 0.36 0.34 0.41 0.45 0.55 0.91 0.96 0.82 0.69 0.86 0.98 1.12 1.24 1.38 1.44 1.37 1.38 1.27 1.16 1.05 0.95 0.90 0.80 0.73 0.65
0.03 0.04 0.14 0.29 0.21 0.12 0.10 0.09 0.15 0.21 0.37 0.41 0.39 0.38 0.38 0.40 0.47 0.48 0.37 0.27 0.22 0.22 0.24 0.27 0.33 0.53 0.71 0.78 0.65 0.70 0.78 0.83 0.94 0.93 1.00 1.15 1.19 1.15 1.12 1.03 1.02 0.97 0.93 0.92
0.01 0.02 0.11 0.24 0.20 0.14 0.08 0.16 0.23 0.30 0.32 0.32 0.34 0.32 0.29 0.28 0.31 0.31 0.31 0.29 0.26 0.25 0.24 0.21 0.19 0.19 0.25 0.33 0.47 0.53 0.53 0.49 0.47 0.51 0.58 0.59 0.61 0.67 0.70 0.69 0.68 0.64 0.74 0.66
0.03 0.10 0.15 0.17 0.17 0.15 0.19 0.22 0.19 0.22 0.26 0.22 0.16 0.16 0.16 0.15 0.15 0.13 0.10 0.09 0.07 0.07 0.06 0.06 0.06 0.07 0.08 0.10 0.13 0.13 0.17 0.22 0.27 0.31 0.34 0.41 0.44 0.44 0.46 0.50 0.54 0.53 0.51 0.43

GFSCGP_prec_precacc24_114.txt.gz
Total_Precipitation_Accumulation
0.00 0.00 0.00 0.00 0.00 0.00 0.00 0.00 0.00 0.00 0.00 0.00 0.00 0.00 0.00 0.00 0.00 0.00 0.00 0.00 0.00 0.00 0.00 0.00 0.00 0.00 0.00 0.00 0.00 0.00 0.00 0.00 0.02 0.02 0.03 0.02 0.02 0.03 0.03 0.02 0.04 0.01 0.01 0.02
0.00 0.00 0.00 0.00 0.00 0.00 0.00 0.00 0.00 0.00 0.00 0.00 0.00 0.00 0.00 0.00 0.00 0.00 0.00 0.00 0.00 0.00 0.00 0.00 0.00 0.00 0.00 0.00 0.00 0.00 0.00 0.00 0.00 0.01 0.01 0.02 0.04 0.06 0.08 0.09 0.08 0.05 0.02 0.02
0.00 0.00 0.00 0.00 0.00 0.00 0.00 0.00 0.00 0.00 0.00 0.00 0.00 0.00 0.00 0.00 0.00 0.00 0.00 0.00 0.00 0.00 0.00 0.00 0.00 0.00 0.00 0.00 0.00 0.00 0.00 0.00 0.01 0.01 0.02 0.04 0.07 0.09 0.12 0.06 0.06 0.04 0.04 0.07
0.00 0.00 0.00 0.00 0.00 0.00 0.00 0.00 0.00 0.00 0.00 0.00 0.00 0.00 0.00 0.00 0.00 0.00 0.00 0.00 0.00 0.00 0.00 0.00 0.00 0.00 0.00 0.00 0.00 0.00 0.00 0.00 0.01 0.00 0.00 0.01 0.01 0.01 0.01 0.02 0.02 0.05 0.11 0.10
0.00 0.00 0.00 0.00 0.00 0.00 0.00 0.00 0.00 0.00 0.00 0.00 0.00 0.00 0.00 0.00 0.00 0.00 0.00 0.00 0.00 0.00 0.00 0.00 0.00 0.00 0.00 0.00 0.00 0.00 0.00 0.00 0.00 0.00 0.00 0.01 0.00 0.00 0.00 0.03 0.05 0.05 0.09 0.23
0.00 0.00 0.00 0.00 0.00 0.00 0.00 0.00 0.01 0.02 0.03 0.04 0.00 0.00 0.00 0.00 0.00 0.01 0.05 0.04 0.02 0.02 0.01 0.01 0.01 0.01 0.01 0.00 0.00 0.00 0.00 0.00 0.00 0.00 0.00 0.00 0.00 0.00 0.00 0.01 0.04 0.04 0.08 0.23
0.00 0.00 0.00 0.00 0.01 0.01 0.01 0.05 0.12 0.13 0.05 0.02 0.00 0.00 0.01 0.06 0.12 0.16 0.22 0.26 0.14 0.11 0.10 0.08 0.06 0.06 0.05 0.03 0.01 0.01 0.00 0.00 0.01 0.01 0.00 0.01 0.02 0.03 0.01 0.01 0.02 0.02 0.05 0.10
0.05 0.03 0.01 0.05 0.03 0.03 0.02 0.09 0.15 0.11 0.07 0.04 0.01 0.02 0.04 0.13 0.20 0.37 0.61 0.47 0.38 0.23 0.11 0.16 0.16 0.16 0.13 0.13 0.09 0.07 0.06 0.06 0.05 0.04 0.04 0.06 0.07 0.06 0.04 0.04 0.03 0.03 0.06 0.11
0.09 0.04 0.01 0.02 0.03 0.06 0.11 0.07 0.06 0.14 0.12 0.16 0.08 0.04 0.11 0.23 0.33 0.29 0.43 0.43 0.38 0.32 0.20 0.18 0.20 0.23 0.21 0.19 0.16 0.15 0.16 0.23 0.23 0.16 0.13 0.15 0.14 0.11 0.10 0.10 0.09 0.09 0.13 0.18
0.16 0.20 0.04 0.03 0.06 0.05 0.15 0.07 0.17 0.22 0.30 0.19 0.19 0.29 0.95 0.96 0.65 0.94 0.83 0.49 0.36 0.31 0.30 0.27 0.27 0.29 0.28 0.29 0.25 0.29 0.22 0.20 0.26 0.34 0.33 0.21 0.22 0.26 0.20 0.15 0.11 0.09 0.12 0.16
0.07 0.17 0.10 0.09 0.09 0.07 0.11 0.21 0.21 0.21 0.08 0.19 0.44 1.23 1.31 1.71 1.12 0.85 0.47 0.37 0.40 0.30 0.37 0.52 0.60 0.48 0.54 0.50 0.41 0.34 0.25 0.25 0.41 0.49 0.43 0.33 0.25 0.25 0.25 0.22 0.18 0.13 0.17 0.23
0.07 0.35 0.18 0.12 0.05 0.02 0.07 0.13 0.28 0.43 0.22 0.18 0.37 1.25 1.28 1.19 1.12 0.57 0.10 0.03 0.08 0.24 0.27 0.39 0.89 1.01 0.86 0.79 0.76 0.41 0.38 0.35 0.32 0.49 0.46 0.43 0.35 0.29 0.29 0.30 0.26 0.20 0.20 0.24
0.29 0.33 0.41 0.33 0.29 0.13 0.22 0.35 0.24 0.42 0.48 0.42 0.72 1.34 1.24 0.84 0.31 0.07 0.03 0.02 0.01 0.08 0.10 0.15 0.32 0.50 0.89 0.37 0.50 0.28 0.25 0.40 0.40 0.54 0.62 0.67 0.69 0.49 0.44 0.39 0.33 0.33 0.36 0.31
0.61 0.36 0.53 0.30 0.14 0.09 0.18 0.28 0.38 0.36 0.40 0.36 0.67 0.87 0.55 0.25 0.05 0.03 0.03 0.03 0.04 0.04 0.08 0.10 0.10 0.13 0.15 0.19 0.58 1.09 0.22 0.35 0.39 0.47 0.54 0.63 0.72 0.69 0.58 0.53 0.43 0.38 0.35 0.34
0.59 0.32 0.62 0.47 0.14 0.17 0.34 0.44 0.41 0.58 0.41 0.43 0.62 0.38 0.27 0.17 0.10 0.05 0.06 0.04 0.03 0.04 0.03 0.06 0.09 0.10 0.12 0.12 0.11 0.21 0.17 0.44 0.88 0.46 0.41 0.49 0.51 0.57 0.56 0.50 0.34 0.27 0.21 0.17
0.62 0.49 0.70 0.97 0.34 0.40 0.50 0.64 0.40 0.56 0.49 0.43 0.30 0.16 0.10 0.04 0.04 0.04 0.04 0.04 0.03 0.06 0.07 0.07 0.09 0.09 0.10 0.13 0.18 0.17 0.16 0.26 0.56 0.82 0.70 0.38 0.64 0.61 0.40 0.46 0.41 0.31 0.28 0.18
0.63 0.96 0.82 0.80 0.24 0.27 0.58 0.65 0.45 0.32 0.16 0.11 0.08 0.08 0.04 0.02 0.05 0.11 0.08 0.07 0.09 0.10 0.09 0.08 0.10 0.12 0.15 0.17 0.18 0.21 0.21 0.27 0.26 0.62 1.20 0.95 0.87 1.23 0.86 0.47 0.54 0.37 0.39 0.31
0.81 0.76 0.51 0.51 0.30 0.33 0.60 0.32 0.17 0.10 0.06 0.04 0.03 0.04 0.03 0.05 0.11 0.12 0.12 0.13 0.11 0.10 0.09 0.10 0.12 0.16 0.17 0.15 0.17 0.16 0.14 0.19 0.26 0.22 0.52 1.04 1.04 1.22 1.39 1.12 0.74 0.70 0.52 0.48
0.56 0.50 0.40 0.42 0.20 0.28 0.19 0.03 0.04 0.07 0.09 0.05 0.03 0.04 0.05 0.06 0.06 0.07 0.11 0.16 0.20 0.20 0.22 0.35 0.27 0.26 0.25 0.22 0.28 0.24 0.18 0.16 0.17 0.17 0.25 0.36 0.75 0.93 0.97 1.12 1.09 0.74 0.64 0.48
0.19 0.35 0.32 0.16 0.05 0.10 0.10 0.00 0.00 0.03 0.22 0.07 0.02 0.01 0.02 0.05 0.11 0.16 0.19 0.20 0.20 0.21 0.21 0.30 0.36 0.21 0.35 0.43 0.37 0.55 0.39 0.30 0.33 0.34 0.30 0.24 0.30 0.42 0.59 0.83 0.94 0.95 0.70 0.57
0.17 0.31 0.15 0.06 0.04 0.03 0.01 0.01 0.01 0.10 0.21 0.08 0.03 0.02 0.03 0.09 0.17 0.23 0.22 0.21 0.25 0.25 0.28 0.31 0.37 0.37 0.45 0.71 0.51 0.56 0.97 0.82 0.70 0.62 0.55 0.50 0.44 0.45 0.51 0.57 0.60 0.60 0.62 0.59
0.17 0.36 0.20 0.07 0.07 0.05 0.01 0.02 0.07 0.16 0.13 0.08 0.06 0.04 0.03 0.09 0.15 0.18 0.21 0.23 0.24 0.24 0.24 0.37 0.48 0.53 0.51 0.70 0.90 0.72 0.89 1.44 1.26 1.03 1.00 0.97 0.86 0.78 0.72 0.68 0.71 0.65 0.62 0.59
0.11 0.15 0.09 0.07 0.10 0.13 0.06 0.08 0.12 0.05 0.07 0.12 0.08 0.07 0.05 0.08 0.12 0.16 0.18 0.16 0.16 0.20 0.25 0.28 0.45 0.55 0.54 0.49 0.75 0.91 1.06 1.17 1.30 1.38 1.35 1.36 1.27 1.16 1.05 0.95 0.90 0.80 0.73 0.65
0.04 0.06 0.08 0.10 0.10 0.07 0.07 0.05 0.05 0.04 0.09 0.11 0.09 0.09 0.08 0.11 0.13 0.16 0.16 0.16 0.16 0.17 0.20 0.22 0.23 0.35 0.45 0.52 0.46 0.58 0.70 0.78 0.88 0.90 1.00 1.15 1.19 1.16 1.12 1.04 1.03 0.97 0.94 0.92
0.01 0.01 0.04 0.09 0.11 0.07 0.05 0.07 0.08 0.09 0.09 0.09 0.11 0.12 0.12 0.13 0.15 0.14 0.15 0.15 0.16 0.17 0.18 0.17 0.17 0.18 0.24 0.30 0.38 0.43 0.45 0.43 0.43 0.48 0.56 0.58 0.60 0.66 0.70 0.68 0.68 0.65 0.75 0.67
0.02 0.03 0.07 0.10 0.06 0.05 0.08 0.09 0.06 0.06 0.10 0.10 0.09 0.11 0.11 0.11 0.10 0.07 0.06 0.05 0.04 0.04 0.04 0.04 0.04 0.05 0.07 0.09 0.12 0.13 0.16 0.21 0.26 0.30 0.33 0.40 0.43 0.44 0.46 0.49 0.53 0.51 0.50 0.43

GFSCGP_prec_precacc24_117.txt.gz
Total_Precipitation_Accumulation
0.00 0.00 0.00 0.00 0.00 0.00 0.00 0.00 0.00 0.00 0.00 0.00 0.00 0.00 0.00 0.00 0.00 0.00 0.00 0.00 0.00 0.00 0.00 0.00 0.00 0.00 0.00 0.00 0.00 0.00 0.00 0.00 0.02 0.02 0.02 0.02 0.02 0.02 0.02 0.01 0.04 0.01 0.00 0.00
0.00 0.00 0.00 0.00 0.00 0.00 0.00 0.00 0.00 0.00 0.00 0.00 0.00 0.00 0.00 0.00 0.00 0.00 0.00 0.00 0.00 0.00 0.00 0.00 0.00 0.00 0.00 0.00 0.00 0.00 0.00 0.00 0.00 0.00 0.01 0.02 0.03 0.06 0.08 0.08 0.07 0.04 0.02 0.01
0.00 0.00 0.00 0.00 0.00 0.00 0.00 0.00 0.00 0.00 0.00 0.00 0.00 0.00 0.00 0.00 0.00 0.00 0.00 0.00 0.00 0.00 0.00 0.00 0.00 0.00 0.00 0.00 0.00 0.00 0.00 0.00 0.01 0.01 0.02 0.04 0.07 0.09 0.11 0.05 0.05 0.03 0.03 0.06
0.00 0.00 0.00 0.00 0.00 0.00 0.00 0.00 0.00 0.00 0.00 0.00 0.00 0.00 0.00 0.00 0.00 0.00 0.00 0.00 0.00 0.00 0.00 0.00 0.00 0.00 0.00 0.00 0.00 0.00 0.00 0.00 0.00 0.00 0.00 0.01 0.00 0.00 0.00 0.01 0.01 0.05 0.11 0.07
0.00 0.00 0.00 0.00 0.00 0.00 0.00 0.00 0.00 0.00 0.00 0.00 0.00 0.00 0.00 0.00 0.00 0.00 0.00 0.00 0.00 0.00 0.00 0.00 0.00 0.00 0.00 0.00 0.00 0.00 0.00 0.00 0.00 0.00 0.00 0.01 0.00 0.00 0.00 0.01 0.03 0.03 0.06 0.09
0.00 0.00 0.00 0.00 0.00 0.00 0.00 0.00 0.01 0.02 0.03 0.04 0.00 0.00 0.00 0.00 0.00 0.01 0.05 0.04 0.02 0.02 0.01 0.01 0.01 0.01 0.01 0.00 0.00 0.00 0.00 0.00 0.00 0.00 0.00 0.00 0.00 0.00 0.00 0.00 0.03 0.04 0.04 0.13
0.00 0.00 0.00 0.00 0.01 0.01 0.01 0.04 0.11 0.13 0.05 0.02 0.00 0.00 0.01 0.06 0.12 0.16 0.22 0.26 0.14 0.11 0.10 0.08 0.06 0.06 0.05 0.03 0.01 0.01 0.00 0.00 0.01 0.01 0.00 0.01 0.02 0.03 0.00 0.00 0.02 0.04 0.06 0.04
0.04 0.03 0.00 0.04 0.03 0.03 0.02 0.09 0.14 0.10 0.07 0.04 0.01 0.02 0.04 0.13 0.20 0.37 0.61 0.47 0.38 0.23 0.11 0.16 0.16 0.16 0.13 0.13 0.09 0.07 0.06 0.06 0.05 0.04 0.04 0.06 0.07 0.06 0.04 0.03 0.03 0.03 0.05 0.07
0.08 0.03 0.00 0.02 0.03 0.06 0.10 0.07 0.06 0.13 0.11 0.16 0.08 0.04 0.11 0.23 0.33 0.29 0.43 0.43 0.38 0.32 0.20 0.18 0.20 0.23 0.22 0.19 0.16 0.15 0.16 0.23 0.23 0.16 0.13 0.15 0.14 0.11 0.09 0.10 0.10 0.09 0.11 0.13
0.12 0.18 0.02 0.03 0.06 0.05 0.14 0.07 0.15 0.21 0.30 0.18 0.19 0.29 0.92 0.95 0.65 0.94 0.83 0.49 0.36 0.31 0.30 0.27 0.27 0.30 0.29 0.29 0.26 0.29 0.23 0.21 0.26 0.35 0.33 0.21 0.22 0.26 0.20 0.16 0.15 0.13 0.12 0.13
0.02 0.10 0.05 0.07 0.09 0.07 0.10 0.17 0.18 0.19 0.08 0.19 0.44 1.21 1.27 1.71 1.12 0.85 0.47 0.37 0.40 0.31 0.37 0.52 0.60 0.49 0.55 0.51 0.43 0.34 0.30 0.30 0.43 0.50 0.45 0.35 0.27 0.26 0.29 0.28 0.25 0.21 0.31 0.27
0.04 0.23 0.11 0.08 0.03 0.01 0.06 0.12 0.27 0.42 0.22 0.22 0.38 1.23 1.27 1.19 1.12 0.57 0.10 0.03 0.08 0.24 0.27 0.39 0.91 1.05 0.94 0.87 0.84 0.47 0.45 0.51 0.53 0.56 0.50 0.50 0.44 0.33 0.36 0.49 0.48 0.43 0.40 0.37
0.10 0.12 0.26 0.18 0.24 0.09 0.18 0.32 0.22 0.42 0.49 0.43 0.74 1.34 1.24 0.84 0.32 0.07 0.03 0.02 0.01 0.08 0.10 0.16 0.33 0.57 1.04 0.52 0.72 0.50 0.48 0.66 0.65 0.61 0.68 0.77 0.79 0.58 0.50 0.60 0.61 0.50 0.56 0.57
0.42 0.23 0.47 0.26 0.16 0.11 0.16 0.26 0.37 0.37 0.41 0.37 0.69 0.94 0.56 0.26 0.06 0.04 0.04 0.04 0.05 0.05 0.09 0.11 0.13 0.18 0.20 0.26 0.78 1.55 0.47 0.58 0.72 0.59 0.57 0.68 0.80 0.78 0.73 0.66 0.57 0.53 0.51 0.54
0.46 0.28 0.62 0.47 0.13 0.17 0.34 0.44 0.41 0.58 0.41 0.46 0.63 0.40 0.30 0.19 0.12 0.08 0.09 0.06 0.05 0.06 0.06 0.08 0.11 0.14 0.15 0.17 0.20 0.33 0.32 0.73 1.17 0.90 0.60 0.57 0.59 0.64 0.73 0.68 0.49 0.43 0.39 0.38
0.52 0.48 0.71 0.97 0.34 0.40 0.51 0.65 0.41 0.58 0.50 0.46 0.33 0.18 0.12 0.05 0.05 0.05 0.06 0.08 0.06 0.09 0.10 0.09 0.09 0.09 0.11 0.14 0.19 0.15 0.18 0.38 0.68 1.05 1.13 0.56 0.81 0.72 0.45 0.54 0.51 0.40 0.40 0.30
0.62 0.98 0.84 0.82 0.25 0.28 0.61 0.66 0.47 0.36 0.18 0.14 0.14 0.10 0.06 0.03 0.06 0.12 0.10 0.09 0.12 0.13 0.12 0.09 0.11 0.12 0.15 0.15 0.13 0.17 0.21 0.35 0.38 0.72 1.53 1.40 1.25 1.78 1.13 0.59 0.74 0.50 0.48 0.39
0.80 0.79 0.54 0.54 0.31 0.36 0.61 0.33 0.19 0.13 0.07 0.05 0.04 0.05 0.03 0.05 0.11 0.13 0.13 0.13 0.12 0.12 0.09 0.08 0.09 0.10 0.12 0.09 0.09 0.10 0.11 0.18 0.28 0.24 0.59 1.22 1.20 1.62 2.13 1.42 1.20 1.19 0.91 0.68
0.55 0.52 0.45 0.45 0.23 0.30 0.18 0.04 0.05 0.10 0.10 0.05 0.03 0.04 0.05 0.06 0.06 0.06 0.09 0.14 0.19 0.18 0.17 0.18 0.17 0.14 0.11 0.14 0.13 0.13 0.16 0.15 0.16 0.17 0.25 0.37 0.77 1.04 1.21 1.53 1.57 1.37 1.29 1.14
0.21 0.37 0.38 0.19 0.10 0.13 0.09 0.00 0.00 0.02 0.13 0.06 0.02 0.01 0.02 0.04 0.11 0.14 0.15 0.16 0.15 0.14 0.13 0.12 0.11 0.09 0.17 0.33 0.24 0.29 0.29 0.26 0.30 0.30 0.27 0.23 0.28 0.39 0.57 0.88 1.11 1.18 1.03 0.97
0.21 0.35 0.18 0.07 0.08 0.04 0.01 0.01 0.01 0.09 0.19 0.07 0.03 0.02 0.01 0.05 0.11 0.16 0.15 0.14 0.15 0.13 0.14 0.10 0.07 0.16 0.23 0.48 0.37 0.38 0.77 0.67 0.60 0.55 0.44 0.39 0.39 0.39 0.43 0.49 0.54 0.55 0.59 0.59
0.16 0.34 0.20 0.09 0.10 0.06 0.01 0.02 0.07 0.14 0.10 0.05 0.03 0.02 0.02 0.05 0.08 0.09 0.11 0.12 0.11 0.10 0.10 0.11 0.15 0.25 0.26 0.39 0.56 0.39 0.62 1.24 1.09 0.85 0.84 0.77 0.70 0.68 0.68 0.62 0.60 0.57 0.55 0.53
0.10 0.15 0.10 0.07 0.09 0.11 0.05 0.08 0.10 0.04 0.05 0.06 0.04 0.03 0.01 0.03 0.06 0.09 0.10 0.09 0.08 0.10 0.12 0.13 0.15 0.23 0.28 0.23 0.38 0.54 0.65 0.78 0.98 1.11 1.10 1.15 1.07 0.98 0.96 0.93 0.86 0.76 0.72 0.65
0.04 0.07 0.07 0.08 0.09 0.06 0.06 0.05 0.04 0.03 0.05 0.06 0.05 0.03 0.02 0.05 0.07 0.08 0.08 0.07 0.08 0.08 0.10 0.12 0.11 0.11 0.19 0.25 0.22 0.34 0.45 0.52 0.63 0.66 0.79 0.96 1.05 1.06 1.07 1.02 1.02 0.96 0.94 0.92
0.01 0.02 0.05 0.08 0.10 0.07 0.05 0.06 0.07 0.06 0.06 0.06 0.06 0.06 0.06 0.06 0.08 0.06 0.07 0.06 0.06 0.06 0.06 0.06 0.08 0.09 0.12 0.17 0.20 0.22 0.25 0.26 0.31 0.38 0.44 0.48 0.55 0.63 0.68 0.67 0.67 0.64 0.74 0.67
0.01 0.02 0.05 0.08 0.05 0.04 0.06 0.07 0.04 0.04 0.06 0.06 0.05 0.07 0.08 0.07 0.06 0.04 0.02 0.01 0.01 0.01 0.00 0.01 0.01 0.01 0.02 0.03 0.06 0.06 0.08 0.11 0.15 0.20 0.27 0.33 0.35 0.37 0.41 0.46 0.50 0.49 0.49 0.42

GFSCGP_prec_precacc24_120.txt.gz
Total_Precipitation_Accumulation
0.00 0.00 0.00 0.00 0.00 0.00 0.00 0.00 0.00 0.00 0.00 0.00 0.00 0.00 0.00 0.00 0.00 0.00 0.00 0.00 0.00 0.00 0.00 0.00 0.00 0.00 0.00 0.00 0.00 0.00 0.00 0.00 0.02 0.01 0.02 0.01 0.02 0.02 0.02 0.02 0.04 0.02 0.01 0.00
0.00 0.00 0.00 0.00 0.00 0.00 0.00 0.00 0.00 0.00 0.00 0.00 0.00 0.00 0.00 0.00 0.00 0.00 0.00 0.00 0.00 0.00 0.00 0.00 0.00 0.00 0.00 0.00 0.00 0.00 0.00 0.00 0.00 0.00 0.01 0.02 0.03 0.05 0.08 0.08 0.08 0.04 0.01 0.01
0.00 0.00 0.00 0.00 0.00 0.00 0.00 0.00 0.00 0.00 0.00 0.00 0.00 0.00 0.00 0.00 0.00 0.00 0.00 0.00 0.00 0.00 0.00 0.00 0.00 0.00 0.00 0.00 0.00 0.00 0.00 0.00 0.00 0.01 0.02 0.03 0.06 0.09 0.11 0.05 0.05 0.03 0.03 0.09
0.00 0.00 0.00 0.00 0.00 0.00 0.00 0.00 0.00 0.00 0.00 0.00 0.00 0.00 0.00 0.00 0.00 0.00 0.00 0.00 0.00 0.00 0.00 0.00 0.00 0.00 0.00 0.00 0.00 0.00 0.00 0.00 0.00 0.00 0.00 0.00 0.00 0.00 0.00 0.01 0.01 0.05 0.11 0.09
0.00 0.00 0.00 0.00 0.00 0.00 0.00 0.00 0.00 0.00 0.00 0.00 0.00 0.00 0.00 0.00 0.00 0.00 0.00 0.00 0.00 0.00 0.00 0.00 0.00 0.00 0.00 0.00 0.00 0.00 0.00 0.00 0.00 0.00 0.00 0.01 0.00 0.00 0.00 0.01 0.02 0.04 0.07 0.15
0.00 0.00 0.00 0.00 0.00 0.00 0.00 0.00 0.01 0.02 0.03 0.04 0.00 0.00 0.00 0.00 0.00 0.01 0.05 0.04 0.02 0.02 0.01 0.01 0.01 0.01 0.01 0.00 0.00 0.00 0.00 0.00 0.00 0.00 0.00 0.00 0.00 0.00 0.00 0.00 0.02 0.05 0.09 0.17
0.00 0.00 0.00 0.00 0.00 0.00 0.00 0.02 0.07 0.08 0.04 0.02 0.00 0.00 0.00 0.05 0.12 0.16 0.22 0.26 0.14 0.11 0.10 0.08 0.06 0.06 0.05 0.03 0.01 0.01 0.00 0.00 0.01 0.01 0.00 0.01 0.01 0.02 0.00 0.00 0.01 0.04 0.10 0.10
0.01 0.00 0.00 0.00 0.01 0.01 0.01 0.07 0.09 0.07 0.05 0.03 0.01 0.01 0.04 0.13 0.20 0.37 0.61 0.47 0.38 0.23 0.11 0.16 0.16 0.16 0.13 0.13 0.09 0.07 0.06 0.06 0.05 0.04 0.03 0.05 0.05 0.06 0.04 0.03 0.02 0.03 0.08 0.11
0.02 0.01 0.00 0.01 0.00 0.03 0.08 0.06 0.05 0.11 0.10 0.10 0.04 0.02 0.10 0.23 0.33 0.29 0.43 0.43 0.38 0.32 0.20 0.19 0.20 0.23 0.22 0.19 0.16 0.15 0.16 0.23 0.24 0.16 0.12 0.15 0.14 0.11 0.09 0.10 0.10 0.09 0.11 0.18
0.02 0.02 0.00 0.02 0.05 0.04 0.13 0.06 0.15 0.20 0.27 0.16 0.16 0.27 0.83 0.88 0.65 0.94 0.83 0.49 0.36 0.31 0.30 0.27 0.27 0.30 0.28 0.29 0.26 0.29 0.24 0.21 0.26 0.33 0.32 0.20 0.22 0.26 0.20 0.16 0.15 0.13 0.12 0.16
0.00 0.01 0.00 0.02 0.04 0.06 0.10 0.16 0.17 0.17 0.08 0.18 0.43 1.14 1.17 1.61 1.10 0.85 0.47 0.37 0.40 0.31 0.37 0.52 0.61 0.50 0.54 0.52 0.43 0.35 0.31 0.29 0.41 0.49 0.44 0.35 0.27 0.27 0.30 0.28 0.24 0.21 0.32 0.31
0.01 0.06 0.02 0.01 0.02 0.01 0.06 0.12 0.24 0.40 0.20 0.22 0.38 1.06 1.00 1.17 1.12 0.57 0.10 0.03 0.08 0.24 0.27 0.40 0.93 1.07 0.98 0.91 0.87 0.50 0.49 0.53 0.53 0.58 0.51 0.51 0.47 0.36 0.39 0.53 0.52 0.50 0.50 0.50
0.04 0.05 0.04 0.05 0.15 0.08 0.18 0.32 0.22 0.40 0.47 0.41 0.79 1.28 0.95 0.83 0.32 0.07 0.03 0.02 0.01 0.08 0.11 0.17 0.36 0.62 1.10 0.55 0.77 0.59 0.62 0.78 0.82 0.79 0.71 0.81 0.86 0.66 0.57 0.67 0.70 0.70 0.85 0.93
0.20 0.10 0.02 0.04 0.11 0.11 0.17 0.25 0.32 0.32 0.41 0.36 0.72 0.96 0.53 0.26 0.07 0.04 0.05 0.04 0.06 0.07 0.12 0.13 0.15 0.18 0.21 0.29 0.86 1.63 0.58 0.72 0.94 0.99 0.74 0.76 0.87 0.86 0.81 0.72 0.63 0.67 0.70 0.76
0.32 0.16 0.16 0.19 0.04 0.15 0.30 0.40 0.35 0.54 0.41 0.48 0.64 0.41 0.30 0.20 0.14 0.10 0.11 0.08 0.07 0.10 0.09 0.12 0.14 0.15 0.15 0.16 0.22 0.38 0.38 0.82 1.29 1.22 1.06 0.82 0.69 0.68 0.75 0.73 0.58 0.49 0.63 0.67
0.30 0.31 0.63 0.92 0.28 0.39 0.50 0.61 0.39 0.58 0.50 0.47 0.33 0.20 0.13 0.07 0.07 0.07 0.09 0.11 0.10 0.12 0.14 0.12 0.11 0.09 0.10 0.12 0.19 0.15 0.19 0.44 0.80 1.20 1.43 0.90 1.16 0.81 0.46 0.57 0.60 0.55 0.54 0.47
0.44 0.81 0.83 0.83 0.26 0.28 0.61 0.66 0.47 0.36 0.18 0.15 0.16 0.12 0.07 0.06 0.07 0.15 0.13 0.12 0.16 0.14 0.12 0.09 0.11 0.11 0.12 0.11 0.10 0.13 0.17 0.32 0.40 0.77 1.64 1.63 1.62 2.26 1.35 0.65 0.81 0.56 0.57 0.49
0.71 0.75 0.57 0.56 0.32 0.34 0.60 0.33 0.19 0.13 0.08 0.06 0.04 0.06 0.05 0.06 0.12 0.15 0.14 0.14 0.12 0.11 0.09 0.08 0.09 0.09 0.10 0.04 0.03 0.04 0.03 0.11 0.24 0.24 0.59 1.24 1.26 1.82 2.50 1.72 1.42 1.35 1.00 0.80
0.53 0.53 0.48 0.47 0.26 0.30 0.17 0.04 0.05 0.10 0.09 0.05 0.03 0.04 0.05 0.05 0.07 0.06 0.09 0.13 0.16 0.16 0.16 0.17 0.15 0.11 0.04 0.04 0.04 0.04 0.05 0.07 0.13 0.16 0.23 0.36 0.76 1.05 1.33 1.80 1.96 1.83 1.72 1.49
0.22 0.39 0.43 0.20 0.15 0.19 0.05 0.00 0.00 0.01 0.09 0.06 0.02 0.01 0.01 0.03 0.11 0.12 0.11 0.13 0.12 0.11 0.11 0.11 0.08 0.02 0.03 0.06 0.04 0.10 0.13 0.13 0.24 0.28 0.24 0.20 0.25 0.38 0.56 0.88 1.13 1.25 1.22 1.28
0.23 0.39 0.22 0.08 0.09 0.08 0.01 0.01 0.00 0.07 0.16 0.06 0.02 0.01 0.01 0.04 0.09 0.11 0.11 0.10 0.11 0.10 0.11 0.06 0.02 0.03 0.07 0.07 0.05 0.11 0.27 0.39 0.45 0.48 0.39 0.34 0.34 0.35 0.41 0.47 0.53 0.54 0.57 0.56
0.16 0.29 0.21 0.09 0.09 0.07 0.01 0.01 0.07 0.12 0.08 0.04 0.03 0.02 0.01 0.04 0.05 0.06 0.08 0.09 0.07 0.06 0.05 0.04 0.02 0.04 0.07 0.08 0.11 0.13 0.28 0.60 0.60 0.65 0.69 0.64 0.54 0.56 0.57 0.54 0.53 0.51 0.50 0.47
0.11 0.16 0.16 0.10 0.09 0.09 0.05 0.07 0.09 0.03 0.03 0.04 0.02 0.02 0.01 0.02 0.04 0.05 0.06 0.05 0.04 0.05 0.05 0.04 0.04 0.04 0.05 0.07 0.10 0.19 0.29 0.34 0.48 0.54 0.69 0.81 0.82 0.72 0.66 0.66 0.69 0.62 0.52 0.47
0.04 0.07 0.05 0.06 0.08 0.06 0.06 0.04 0.03 0.03 0.04 0.04 0.03 0.02 0.01 0.03 0.03 0.04 0.03 0.03 0.03 0.03 0.03 0.04 0.02 0.02 0.03 0.06 0.07 0.13 0.21 0.25 0.23 0.29 0.40 0.53 0.62 0.68 0.68 0.64 0.70 0.75 0.74 0.70
0.01 0.02 0.04 0.07 0.08 0.05 0.05 0.05 0.05 0.05 0.03 0.03 0.03 0.03 0.04 0.03 0.04 0.02 0.02 0.02 0.02 0.02 0.02 0.01 0.01 0.01 0.02 0.02 0.04 0.06 0.06 0.09 0.14 0.17 0.21 0.25 0.31 0.40 0.47 0.48 0.51 0.51 0.63 0.59
0.01 0.01 0.03 0.04 0.02 0.02 0.05 0.06 0.03 0.03 0.04 0.03 0.03 0.04 0.05 0.04 0.04 0.02 0.00 0.00 0.00 0.00 0.00 0.00 0.00 0.00 0.00 0.00 0.00 0.01 0.01 0.01 0.02 0.04 0.08 0.13 0.18 0.21 0.25 0.29 0.34 0.36 0.40 0.38

GFSCGP_prec_precacc24_123.txt.gz
Total_Precipitation_Accumulation
0.00 0.00 0.00 0.00 0.00 0.00 0.00 0.00 0.00 0.00 0.00 0.00 0.00 0.00 0.00 0.00 0.00 0.00 0.00 0.00 0.00 0.00 0.00 0.00 0.00 0.00 0.00 0.00 0.00 0.00 0.00 0.00 0.01 0.01 0.02 0.01 0.01 0.01 0.06 0.08 0.09 0.21 0.20 0.23
0.00 0.00 0.00 0.00 0.00 0.00 0.00 0.00 0.00 0.00 0.00 0.00 0.00 0.00 0.00 0.00 0.00 0.00 0.00 0.00 0.00 0.00 0.00 0.00 0.00 0.00 0.00 0.00 0.00 0.00 0.00 0.00 0.00 0.00 0.01 0.02 0.03 0.04 0.07 0.10 0.15 0.13 0.10 0.11
0.00 0.00 0.00 0.00 0.00 0.00 0.00 0.00 0.00 0.00 0.00 0.00 0.00 0.00 0.00 0.00 0.00 0.00 0.00 0.00 0.00 0.00 0.00 0.00 0.00 0.00 0.00 0.00 0.00 0.00 0.00 0.00 0.00 0.01 0.02 0.03 0.06 0.08 0.09 0.04 0.04 0.05 0.11 0.18
0.00 0.00 0.00 0.00 0.00 0.00 0.00 0.00 0.00 0.00 0.00 0.00 0.00 0.00 0.00 0.00 0.00 0.00 0.00 0.00 0.00 0.00 0.00 0.00 0.00 0.00 0.00 0.00 0.00 0.00 0.00 0.00 0.00 0.00 0.00 0.00 0.00 0.00 0.00 0.01 0.01 0.04 0.20 0.23
0.00 0.00 0.00 0.00 0.00 0.00 0.00 0.00 0.00 0.00 0.00 0.00 0.00 0.00 0.00 0.00 0.00 0.00 0.00 0.00 0.00 0.00 0.00 0.00 0.00 0.00 0.00 0.00 0.00 0.00 0.00 0.00 0.00 0.00 0.00 0.01 0.00 0.00 0.00 0.01 0.02 0.03 0.08 0.21
0.00 0.00 0.00 0.00 0.00 0.00 0.00 0.00 0.00 0.01 0.03 0.04 0.00 0.00 0.00 0.00 0.00 0.01 0.05 0.04 0.02 0.02 0.01 0.01 0.01 0.01 0.01 0.00 0.00 0.00 0.00 0.00 0.00 0.00 0.00 0.00 0.00 0.00 0.00 0.00 0.02 0.05 0.09 0.17
0.00 0.00 0.00 0.00 0.00 0.00 0.00 0.00 0.02 0.04 0.03 0.02 0.00 0.00 0.01 0.05 0.09 0.10 0.18 0.25 0.14 0.11 0.10 0.08 0.06 0.06 0.05 0.03 0.01 0.01 0.00 0.00 0.01 0.01 0.00 0.01 0.01 0.01 0.00 0.00 0.01 0.04 0.10 0.10
0.00 0.00 0.00 0.00 0.00 0.00 0.00 0.02 0.03 0.04 0.01 0.01 0.01 0.01 0.04 0.13 0.20 0.19 0.47 0.43 0.37 0.22 0.11 0.16 0.16 0.16 0.13 0.13 0.09 0.07 0.06 0.06 0.05 0.04 0.03 0.05 0.04 0.04 0.03 0.03 0.02 0.03 0.08 0.11
0.01 0.00 0.00 0.00 0.00 0.01 0.02 0.02 0.01 0.04 0.03 0.08 0.02 0.02 0.08 0.21 0.25 0.22 0.39 0.41 0.37 0.31 0.20 0.19 0.20 0.23 0.21 0.19 0.16 0.15 0.16 0.22 0.21 0.13 0.11 0.13 0.12 0.09 0.06 0.09 0.10 0.09 0.11 0.18
0.02 0.01 0.00 0.00 0.00 0.01 0.05 0.03 0.07 0.10 0.15 0.13 0.06 0.24 0.56 0.62 0.40 0.56 0.78 0.49 0.36 0.31 0.30 0.27 0.27 0.30 0.26 0.26 0.21 0.24 0.21 0.20 0.24 0.31 0.31 0.19 0.18 0.23 0.18 0.15 0.14 0.13 0.12 0.16
0.00 0.00 0.00 0.00 0.00 0.04 0.06 0.06 0.13 0.15 0.07 0.14 0.32 0.88 0.80 0.95 0.96 0.70 0.45 0.37 0.40 0.31 0.37 0.52 0.60 0.46 0.51 0.49 0.41 0.35 0.30 0.28 0.39 0.47 0.44 0.33 0.24 0.25 0.27 0.27 0.25 0.22 0.32 0.31
0.00 0.01 0.01 0.00 0.00 0.00 0.03 0.08 0.22 0.37 0.19 0.22 0.32 0.62 0.79 0.93 0.93 0.47 0.10 0.03 0.08 0.24 0.27 0.40 0.94 1.07 0.98 0.92 0.93 0.57 0.52 0.55 0.53 0.52 0.47 0.47 0.41 0.34 0.39 0.53 0.54 0.52 0.52 0.52
0.01 0.01 0.02 0.03 0.14 0.07 0.18 0.32 0.21 0.38 0.45 0.40 0.71 0.92 0.72 0.66 0.29 0.07 0.03 0.02 0.01 0.08 0.11 0.19 0.40 0.65 1.15 0.62 0.89 0.68 0.67 0.81 0.85 0.81 0.75 0.81 0.82 0.67 0.59 0.70 0.74 0.75 0.91 0.96
0.04 0.03 0.02 0.02 0.08 0.09 0.16 0.25 0.32 0.31 0.38 0.34 0.58 0.55 0.40 0.23 0.07 0.04 0.05 0.04 0.06 0.08 0.15 0.17 0.18 0.23 0.28 0.37 0.93 1.69 0.61 0.71 0.94 1.02 0.81 0.83 0.90 0.89 0.87 0.78 0.68 0.71 0.74 0.80
0.17 0.11 0.06 0.02 0.00 0.07 0.26 0.34 0.28 0.41 0.24 0.37 0.46 0.34 0.29 0.20 0.14 0.10 0.11 0.08 0.08 0.12 0.12 0.17 0.19 0.20 0.19 0.18 0.22 0.38 0.38 0.78 1.29 1.22 1.12 1.10 0.93 0.81 0.85 0.79 0.60 0.49 0.63 0.70
0.16 0.23 0.36 0.31 0.05 0.23 0.34 0.46 0.24 0.38 0.42 0.41 0.31 0.20 0.13 0.07 0.08 0.08 0.09 0.12 0.12 0.15 0.16 0.14 0.14 0.10 0.09 0.11 0.17 0.14 0.19 0.44 0.79 1.23 1.51 1.05 1.39 1.23 0.67 0.64 0.63 0.65 0.62 0.65
0.33 0.56 0.73 0.63 0.17 0.23 0.49 0.61 0.45 0.35 0.18 0.15 0.16 0.12 0.08 0.07 0.08 0.15 0.13 0.14 0.17 0.15 0.13 0.09 0.11 0.11 0.12 0.11 0.08 0.10 0.14 0.28 0.33 0.73 1.64 1.69 1.72 2.43 1.59 0.78 0.86 0.74 0.83 0.74
0.62 0.57 0.53 0.55 0.32 0.28 0.47 0.32 0.18 0.13 0.07 0.06 0.04 0.06 0.04 0.06 0.12 0.16 0.15 0.14 0.12 0.11 0.08 0.07 0.08 0.09 0.09 0.03 0.02 0.01 0.01 0.06 0.16 0.15 0.55 1.22 1.25 1.84 2.59 1.88 1.55 1.52 1.10 0.93
0.53 0.53 0.48 0.47 0.25 0.26 0.17 0.04 0.05 0.10 0.09 0.05 0.03 0.04 0.05 0.04 0.06 0.07 0.08 0.11 0.14 0.13 0.14 0.16 0.14 0.10 0.04 0.04 0.02 0.00 0.00 0.00 0.03 0.07 0.17 0.32 0.72 1.02 1.32 1.80 1.99 1.91 1.85 1.59
0.22 0.39 0.44 0.21 0.18 0.21 0.08 0.00 0.00 0.01 0.08 0.05 0.02 0.00 0.01 0.02 0.11 0.10 0.09 0.10 0.09 0.08 0.09 0.10 0.07 0.02 0.02 0.05 0.01 0.01 0.02 0.03 0.09 0.14 0.16 0.16 0.20 0.33 0.53 0.84 1.09 1.22 1.19 1.26
0.24 0.41 0.23 0.08 0.10 0.08 0.01 0.01 0.00 0.06 0.11 0.04 0.02 0.01 0.01 0.03 0.06 0.08 0.08 0.06 0.07 0.06 0.07 0.04 0.01 0.03 0.05 0.04 0.01 0.01 0.03 0.17 0.22 0.21 0.20 0.21 0.27 0.29 0.36 0.42 0.47 0.48 0.52 0.52
0.17 0.28 0.21 0.09 0.11 0.08 0.01 0.01 0.05 0.07 0.05 0.03 0.02 0.01 0.01 0.03 0.04 0.05 0.05 0.05 0.04 0.03 0.02 0.01 0.01 0.02 0.03 0.02 0.01 0.01 0.08 0.14 0.21 0.23 0.28 0.33 0.34 0.44 0.50 0.47 0.48 0.46 0.46 0.44
0.11 0.15 0.18 0.12 0.09 0.06 0.04 0.06 0.07 0.02 0.02 0.03 0.01 0.01 0.00 0.01 0.03 0.04 0.03 0.02 0.01 0.01 0.02 0.01 0.01 0.01 0.01 0.01 0.02 0.03 0.08 0.06 0.09 0.14 0.19 0.31 0.44 0.44 0.45 0.50 0.55 0.49 0.42 0.39
0.04 0.06 0.04 0.04 0.07 0.06 0.05 0.04 0.03 0.02 0.02 0.02 0.01 0.01 0.01 0.02 0.02 0.02 0.01 0.01 0.01 0.01 0.01 0.01 0.00 0.00 0.01 0.01 0.01 0.03 0.03 0.04 0.04 0.05 0.08 0.15 0.24 0.36 0.42 0.40 0.40 0.39 0.41 0.40
0.01 0.02 0.03 0.05 0.06 0.04 0.05 0.04 0.04 0.03 0.01 0.01 0.02 0.02 0.02 0.02 0.02 0.01 0.00 0.00 0.00 0.00 0.00 0.00 0.00 0.00 0.00 0.00 0.00 0.00 0.00 0.01 0.01 0.02 0.05 0.06 0.09 0.15 0.24 0.31 0.36 0.35 0.42 0.37
0.01 0.01 0.01 0.02 0.01 0.01 0.04 0.05 0.02 0.02 0.02 0.01 0.02 0.03 0.03 0.03 0.02 0.01 0.00 0.00 0.00 0.00 0.00 0.00 0.00 0.00 0.00 0.00 0.00 0.00 0.00 0.00 0.00 0.00 0.01 0.02 0.04 0.06 0.08 0.13 0.18 0.22 0.26 0.25

GFSCGP_prec_precacc24_126.txt.gz
Total_Precipitation_Accumulation
0.00 0.00 0.00 0.00 0.00 0.00 0.00 0.00 0.00 0.00 0.00 0.00 0.00 0.00 0.00 0.00 0.00 0.00 0.00 0.00 0.00 0.00 0.00 0.00 0.00 0.00 0.00 0.00 0.00 0.00 0.00 0.00 0.00 0.00 0.01 0.00 0.01 0.01 0.06 0.08 0.10 0.25 0.30 0.43
0.00 0.00 0.00 0.00 0.00 0.00 0.00 0.00 0.00 0.00 0.00 0.00 0.00 0.00 0.00 0.00 0.00 0.00 0.00 0.00 0.00 0.00 0.00 0.00 0.00 0.00 0.00 0.00 0.00 0.00 0.00 0.00 0.00 0.00 0.00 0.00 0.00 0.01 0.04 0.10 0.15 0.13 0.12 0.17
0.00 0.00 0.00 0.00 0.00 0.00 0.00 0.00 0.00 0.00 0.00 0.00 0.00 0.00 0.00 0.00 0.00 0.00 0.00 0.00 0.00 0.00 0.00 0.00 0.00 0.00 0.00 0.00 0.00 0.00 0.00 0.00 0.00 0.00 0.00 0.01 0.03 0.05 0.09 0.04 0.04 0.04 0.10 0.17
0.00 0.00 0.00 0.00 0.00 0.00 0.00 0.00 0.00 0.00 0.00 0.00 0.00 0.00 0.00 0.00 0.00 0.00 0.00 0.00 0.00 0.00 0.00 0.00 0.00 0.00 0.00 0.00 0.00 0.00 0.00 0.00 0.00 0.00 0.00 0.00 0.00 0.00 0.00 0.01 0.00 0.03 0.18 0.23
0.00 0.00 0.00 0.00 0.00 0.00 0.00 0.00 0.00 0.00 0.00 0.00 0.00 0.00 0.00 0.00 0.00 0.00 0.00 0.00 0.00 0.00 0.00 0.00 0.00 0.00 0.00 0.00 0.00 0.00 0.00 0.00 0.00 0.00 0.00 0.00 0.00 0.00 0.00 0.01 0.02 0.02 0.07 0.17
0.00 0.00 0.00 0.00 0.00 0.00 0.00 0.00 0.00 0.00 0.00 0.00 0.00 0.00 0.00 0.00 0.00 0.01 0.01 0.01 0.01 0.01 0.01 0.01 0.01 0.01 0.01 0.00 0.00 0.00 0.00 0.00 0.00 0.00 0.00 0.00 0.00 0.00 0.00 0.00 0.02 0.05 0.08 0.16
0.00 0.00 0.00 0.00 0.00 0.00 0.00 0.00 0.00 0.00 0.00 0.00 0.00 0.00 0.01 0.05 0.09 0.09 0.06 0.04 0.05 0.04 0.06 0.07 0.06 0.06 0.05 0.03 0.01 0.01 0.00 0.00 0.00 0.00 0.00 0.00 0.01 0.01 0.00 0.00 0.01 0.04 0.10 0.10
0.00 0.00 0.00 0.00 0.00 0.00 0.00 0.00 0.00 0.01 0.01 0.00 0.01 0.01 0.04 0.12 0.19 0.12 0.08 0.10 0.29 0.16 0.06 0.13 0.15 0.15 0.13 0.13 0.09 0.07 0.06 0.05 0.02 0.02 0.02 0.04 0.04 0.04 0.03 0.03 0.02 0.02 0.06 0.09
0.00 0.00 0.00 0.00 0.00 0.00 0.00 0.00 0.00 0.01 0.00 0.00 0.00 0.01 0.07 0.19 0.19 0.11 0.08 0.15 0.25 0.30 0.18 0.18 0.20 0.22 0.20 0.17 0.15 0.16 0.16 0.16 0.15 0.10 0.06 0.08 0.09 0.08 0.06 0.08 0.10 0.08 0.09 0.16
0.01 0.00 0.00 0.00 0.00 0.00 0.00 0.01 0.04 0.06 0.04 0.03 0.03 0.17 0.38 0.41 0.26 0.28 0.34 0.30 0.28 0.30 0.30 0.27 0.26 0.29 0.24 0.23 0.19 0.24 0.20 0.19 0.21 0.24 0.24 0.17 0.16 0.22 0.18 0.15 0.11 0.11 0.11 0.15
0.00 0.00 0.00 0.00 0.00 0.00 0.02 0.05 0.11 0.09 0.04 0.06 0.13 0.51 0.43 0.46 0.47 0.39 0.31 0.30 0.38 0.31 0.37 0.52 0.60 0.45 0.47 0.47 0.40 0.40 0.38 0.35 0.37 0.35 0.37 0.31 0.25 0.26 0.26 0.25 0.22 0.21 0.33 0.31
0.00 0.00 0.00 0.00 0.00 0.00 0.00 0.04 0.20 0.33 0.16 0.18 0.19 0.34 0.29 0.44 0.49 0.26 0.05 0.03 0.08 0.24 0.27 0.40 0.94 1.06 0.96 0.93 1.01 0.69 0.56 0.57 0.50 0.45 0.41 0.44 0.41 0.33 0.36 0.47 0.51 0.52 0.52 0.52
0.00 0.01 0.00 0.02 0.13 0.06 0.11 0.19 0.19 0.32 0.36 0.31 0.52 0.52 0.34 0.41 0.15 0.04 0.03 0.02 0.01 0.08 0.12 0.19 0.40 0.66 1.18 0.67 0.95 0.71 0.69 0.82 0.83 0.78 0.73 0.80 0.82 0.65 0.53 0.62 0.73 0.76 0.92 0.97
0.01 0.00 0.00 0.02 0.08 0.08 0.15 0.19 0.27 0.27 0.36 0.23 0.31 0.41 0.35 0.23 0.06 0.04 0.05 0.04 0.06 0.08 0.16 0.18 0.19 0.25 0.31 0.41 0.96 1.74 0.67 0.73 0.91 0.99 0.80 0.85 0.99 0.96 0.88 0.78 0.71 0.74 0.77 0.83
0.06 0.06 0.03 0.01 0.00 0.07 0.26 0.31 0.21 0.34 0.14 0.20 0.23 0.30 0.29 0.20 0.14 0.10 0.11 0.09 0.09 0.14 0.13 0.17 0.20 0.21 0.20 0.19 0.23 0.41 0.41 0.78 1.25 1.20 1.13 1.18 1.05 0.95 0.95 0.85 0.68 0.57 0.71 0.76
0.12 0.14 0.16 0.11 0.04 0.21 0.28 0.25 0.20 0.33 0.23 0.25 0.24 0.18 0.12 0.06 0.08 0.08 0.10 0.13 0.14 0.15 0.16 0.15 0.14 0.10 0.10 0.11 0.16 0.13 0.18 0.41 0.74 1.19 1.51 1.06 1.43 1.37 0.87 0.85 0.77 0.78 0.75 0.77
0.28 0.40 0.48 0.34 0.08 0.09 0.12 0.30 0.41 0.32 0.14 0.14 0.15 0.11 0.07 0.06 0.07 0.14 0.13 0.15 0.17 0.15 0.12 0.09 0.11 0.11 0.12 0.10 0.08 0.09 0.14 0.26 0.28 0.66 1.60 1.64 1.69 2.44 1.66 0.89 0.94 0.83 1.04 0.97
0.47 0.47 0.48 0.39 0.22 0.18 0.18 0.20 0.17 0.12 0.07 0.05 0.04 0.05 0.04 0.04 0.10 0.15 0.14 0.14 0.11 0.10 0.08 0.06 0.08 0.08 0.08 0.03 0.02 0.01 0.00 0.06 0.15 0.11 0.49 1.15 1.19 1.80 2.54 1.87 1.55 1.53 1.09 0.92
0.48 0.49 0.47 0.43 0.21 0.16 0.13 0.04 0.04 0.08 0.07 0.03 0.02 0.03 0.03 0.03 0.07 0.08 0.07 0.09 0.12 0.11 0.12 0.14 0.12 0.08 0.03 0.03 0.02 0.00 0.00 0.00 0.01 0.03 0.10 0.22 0.62 0.95 1.26 1.74 1.97 1.89 1.85 1.58
0.19 0.38 0.41 0.19 0.19 0.21 0.08 0.00 0.00 0.01 0.06 0.03 0.01 0.00 0.01 0.02 0.11 0.09 0.07 0.09 0.08 0.07 0.07 0.08 0.05 0.01 0.02 0.03 0.01 0.00 0.00 0.01 0.04 0.07 0.05 0.05 0.07 0.24 0.47 0.80 1.06 1.19 1.17 1.25
0.25 0.42 0.23 0.08 0.11 0.08 0.00 0.01 0.00 0.06 0.08 0.02 0.01 0.01 0.01 0.02 0.05 0.05 0.07 0.06 0.06 0.05 0.06 0.03 0.01 0.02 0.03 0.02 0.00 0.01 0.01 0.06 0.05 0.05 0.07 0.06 0.08 0.12 0.27 0.38 0.44 0.45 0.50 0.51
0.17 0.29 0.22 0.10 0.12 0.07 0.01 0.01 0.03 0.03 0.02 0.01 0.01 0.01 0.00 0.02 0.03 0.04 0.04 0.04 0.03 0.02 0.01 0.00 0.01 0.01 0.01 0.01 0.01 0.01 0.05 0.04 0.00 0.01 0.03 0.09 0.10 0.14 0.19 0.26 0.35 0.37 0.40 0.40
0.11 0.14 0.17 0.11 0.07 0.03 0.03 0.04 0.04 0.00 0.01 0.02 0.01 0.00 0.00 0.01 0.02 0.03 0.03 0.02 0.01 0.00 0.00 0.00 0.00 0.00 0.00 0.01 0.01 0.02 0.03 0.01 0.00 0.00 0.01 0.05 0.10 0.13 0.16 0.22 0.30 0.31 0.29 0.29
0.05 0.06 0.04 0.03 0.05 0.04 0.03 0.02 0.01 0.01 0.01 0.01 0.01 0.00 0.01 0.01 0.02 0.01 0.01 0.00 0.00 0.00 0.00 0.00 0.00 0.00 0.00 0.00 0.00 0.01 0.00 0.00 0.00 0.00 0.00 0.01 0.04 0.08 0.12 0.13 0.15 0.19 0.24 0.26
0.01 0.01 0.02 0.04 0.04 0.03 0.04 0.03 0.02 0.02 0.01 0.01 0.01 0.01 0.01 0.01 0.01 0.00 0.00 0.00 0.00 0.00 0.00 0.00 0.00 0.00 0.00 0.00 0.00 0.00 0.00 0.00 0.00 0.00 0.00 0.00 0.00 0.01 0.04 0.10 0.15 0.16 0.23 0.20
0.01 0.01 0.01 0.02 0.00 0.01 0.02 0.03 0.02 0.01 0.01 0.01 0.01 0.02 0.01 0.01 0.00 0.00 0.00 0.00 0.00 0.00 0.00 0.00 0.00 0.00 0.00 0.00 0.00 0.00 0.00 0.00 0.00 0.00 0.00 0.00 0.00 0.00 0.00 0.01 0.03 0.07 0.11 0.12

GFSCGP_prec_precacc24_129.txt.gz
Total_Precipitation_Accumulation
0.00 0.00 0.00 0.00 0.00 0.00 0.00 0.00 0.00 0.00 0.00 0.00 0.00 0.00 0.00 0.00 0.00 0.00 0.00 0.00 0.00 0.00 0.00 0.00 0.00 0.00 0.00 0.00 0.00 0.00 0.00 0.00 0.00 0.00 0.01 0.00 0.00 0.00 0.05 0.07 0.06 0.24 0.30 0.44
0.00 0.00 0.00 0.00 0.00 0.00 0.00 0.00 0.00 0.00 0.00 0.00 0.00 0.00 0.00 0.00 0.00 0.00 0.00 0.00 0.00 0.00 0.00 0.00 0.00 0.00 0.00 0.00 0.00 0.00 0.00 0.00 0.00 0.00 0.00 0.00 0.00 0.00 0.01 0.04 0.10 0.10 0.12 0.17
0.00 0.00 0.00 0.00 0.00 0.00 0.00 0.00 0.00 0.00 0.00 0.00 0.00 0.00 0.00 0.00 0.00 0.00 0.00 0.00 0.00 0.00 0.00 0.00 0.00 0.00 0.00 0.00 0.00 0.00 0.00 0.00 0.00 0.00 0.00 0.01 0.02 0.02 0.04 0.02 0.02 0.04 0.09 0.16
0.00 0.00 0.00 0.00 0.00 0.00 0.00 0.00 0.00 0.00 0.00 0.00 0.00 0.00 0.00 0.00 0.00 0.00 0.00 0.00 0.00 0.00 0.00 0.00 0.00 0.00 0.00 0.00 0.00 0.00 0.00 0.00 0.00 0.00 0.00 0.00 0.00 0.00 0.00 0.00 0.00 0.02 0.13 0.20
0.00 0.00 0.00 0.00 0.00 0.00 0.00 0.00 0.00 0.00 0.00 0.00 0.00 0.00 0.00 0.00 0.00 0.00 0.00 0.00 0.00 0.00 0.00 0.00 0.00 0.00 0.00 0.00 0.00 0.00 0.00 0.00 0.00 0.00 0.00 0.00 0.00 0.00 0.00 0.00 0.00 0.02 0.04 0.17
0.00 0.00 0.00 0.00 0.00 0.00 0.00 0.00 0.00 0.00 0.00 0.00 0.00 0.00 0.00 0.00 0.00 0.01 0.01 0.01 0.01 0.01 0.00 0.00 0.00 0.00 0.00 0.00 0.00 0.00 0.00 0.00 0.00 0.00 0.00 0.00 0.00 0.00 0.00 0.00 0.01 0.04 0.08 0.15
0.00 0.00 0.00 0.00 0.00 0.00 0.00 0.00 0.00 0.00 0.00 0.00 0.00 0.00 0.00 0.03 0.06 0.07 0.05 0.03 0.02 0.02 0.01 0.01 0.02 0.02 0.03 0.02 0.01 0.01 0.00 0.00 0.00 0.00 0.00 0.00 0.00 0.00 0.00 0.00 0.01 0.04 0.10 0.10
0.00 0.00 0.00 0.00 0.00 0.00 0.00 0.00 0.00 0.00 0.00 0.00 0.00 0.00 0.02 0.06 0.12 0.10 0.08 0.05 0.02 0.01 0.01 0.03 0.07 0.09 0.09 0.12 0.09 0.07 0.06 0.05 0.02 0.01 0.01 0.01 0.01 0.01 0.01 0.01 0.02 0.02 0.06 0.09
0.00 0.00 0.00 0.00 0.00 0.00 0.00 0.00 0.00 0.01 0.00 0.00 0.00 0.00 0.02 0.09 0.07 0.09 0.07 0.06 0.07 0.06 0.05 0.08 0.10 0.12 0.14 0.14 0.14 0.16 0.16 0.16 0.13 0.08 0.05 0.05 0.04 0.04 0.03 0.05 0.09 0.08 0.09 0.16
0.00 0.00 0.00 0.00 0.00 0.00 0.00 0.00 0.02 0.04 0.02 0.01 0.00 0.02 0.07 0.08 0.07 0.10 0.09 0.13 0.13 0.16 0.15 0.16 0.20 0.23 0.19 0.17 0.15 0.23 0.20 0.21 0.22 0.22 0.19 0.10 0.10 0.16 0.13 0.11 0.10 0.12 0.12 0.16
0.00 0.00 0.00 0.00 0.00 0.00 0.00 0.01 0.06 0.08 0.03 0.05 0.03 0.10 0.14 0.14 0.15 0.13 0.09 0.16 0.25 0.24 0.32 0.51 0.59 0.44 0.47 0.45 0.36 0.39 0.43 0.39 0.34 0.29 0.30 0.25 0.18 0.19 0.19 0.19 0.18 0.22 0.35 0.32
0.00 0.00 0.00 0.00 0.00 0.00 0.00 0.00 0.10 0.26 0.15 0.15 0.12 0.16 0.08 0.13 0.17 0.08 0.02 0.02 0.05 0.17 0.26 0.40 0.94 1.06 0.95 0.94 1.02 0.72 0.53 0.52 0.45 0.38 0.35 0.41 0.38 0.30 0.32 0.45 0.49 0.52 0.55 0.54
0.00 0.00 0.00 0.02 0.12 0.04 0.05 0.06 0.11 0.26 0.27 0.16 0.22 0.24 0.14 0.19 0.07 0.03 0.02 0.02 0.01 0.07 0.12 0.19 0.40 0.66 1.19 0.67 0.95 0.71 0.66 0.77 0.75 0.65 0.65 0.70 0.74 0.63 0.52 0.60 0.73 0.76 0.94 0.99
0.01 0.00 0.00 0.01 0.08 0.06 0.09 0.09 0.11 0.17 0.17 0.10 0.19 0.26 0.19 0.16 0.05 0.04 0.04 0.04 0.06 0.08 0.16 0.18 0.20 0.25 0.31 0.41 0.95 1.74 0.67 0.73 0.87 0.92 0.77 0.79 0.94 0.98 0.93 0.79 0.74 0.74 0.77 0.83
0.01 0.01 0.00 0.00 0.00 0.06 0.19 0.14 0.13 0.28 0.12 0.19 0.16 0.17 0.21 0.18 0.13 0.09 0.10 0.09 0.09 0.14 0.14 0.17 0.20 0.21 0.21 0.19 0.23 0.41 0.41 0.77 1.18 1.07 1.04 1.13 1.06 0.97 1.02 0.94 0.70 0.58 0.74 0.79
0.05 0.04 0.06 0.03 0.03 0.13 0.13 0.15 0.14 0.27 0.20 0.20 0.18 0.14 0.10 0.06 0.07 0.08 0.10 0.13 0.14 0.15 0.16 0.14 0.14 0.10 0.10 0.11 0.16 0.13 0.18 0.41 0.61 0.97 1.37 1.00 1.39 1.34 0.85 0.87 0.80 0.79 0.76 0.79
0.14 0.22 0.19 0.20 0.06 0.06 0.09 0.12 0.19 0.26 0.12 0.13 0.14 0.09 0.06 0.06 0.06 0.13 0.12 0.14 0.16 0.14 0.12 0.08 0.10 0.10 0.11 0.10 0.08 0.09 0.13 0.26 0.26 0.58 1.51 1.57 1.64 2.41 1.64 0.88 0.94 0.83 1.05 0.98
0.32 0.31 0.26 0.25 0.20 0.17 0.09 0.09 0.06 0.08 0.06 0.05 0.03 0.04 0.04 0.05 0.10 0.14 0.11 0.12 0.10 0.09 0.07 0.06 0.06 0.06 0.06 0.03 0.02 0.01 0.00 0.06 0.15 0.09 0.45 1.09 1.13 1.76 2.50 1.82 1.53 1.51 1.09 0.92
0.38 0.38 0.30 0.31 0.19 0.12 0.08 0.04 0.03 0.07 0.05 0.02 0.02 0.02 0.02 0.04 0.07 0.09 0.06 0.07 0.09 0.09 0.09 0.11 0.10 0.06 0.03 0.03 0.02 0.00 0.00 0.00 0.01 0.02 0.08 0.18 0.55 0.87 1.21 1.68 1.90 1.83 1.82 1.57
0.17 0.32 0.31 0.14 0.18 0.19 0.07 0.00 0.00 0.01 0.05 0.01 0.00 0.00 0.01 0.02 0.10 0.08 0.05 0.06 0.06 0.06 0.05 0.05 0.03 0.01 0.01 0.03 0.01 0.00 0.00 0.01 0.03 0.04 0.03 0.02 0.02 0.08 0.25 0.63 0.97 1.11 1.10 1.22
0.24 0.41 0.22 0.09 0.11 0.08 0.00 0.01 0.00 0.05 0.07 0.00 0.00 0.00 0.01 0.02 0.04 0.04 0.04 0.04 0.04 0.03 0.03 0.02 0.00 0.01 0.02 0.02 0.00 0.01 0.01 0.04 0.03 0.01 0.01 0.01 0.01 0.02 0.04 0.05 0.14 0.29 0.40 0.44
0.16 0.29 0.22 0.12 0.14 0.07 0.01 0.01 0.02 0.02 0.01 0.00 0.00 0.00 0.00 0.01 0.02 0.02 0.03 0.03 0.02 0.01 0.00 0.00 0.00 0.01 0.01 0.01 0.01 0.01 0.03 0.02 0.00 0.00 0.00 0.00 0.01 0.01 0.01 0.02 0.05 0.08 0.18 0.29
0.11 0.14 0.17 0.10 0.07 0.03 0.03 0.03 0.02 0.00 0.00 0.00 0.00 0.00 0.00 0.00 0.01 0.02 0.01 0.01 0.00 0.00 0.00 0.00 0.00 0.00 0.00 0.00 0.01 0.01 0.01 0.00 0.00 0.00 0.00 0.00 0.00 0.00 0.00 0.00 0.02 0.04 0.06 0.09
0.05 0.05 0.04 0.03 0.04 0.03 0.02 0.02 0.01 0.00 0.00 0.00 0.00 0.00 0.00 0.01 0.01 0.01 0.00 0.00 0.00 0.00 0.00 0.00 0.00 0.00 0.00 0.00 0.00 0.00 0.00 0.00 0.00 0.00 0.00 0.00 0.00 0.00 0.00 0.01 0.01 0.01 0.04 0.06
0.02 0.02 0.03 0.04 0.03 0.02 0.03 0.02 0.01 0.01 0.00 0.00 0.00 0.00 0.00 0.00 0.00 0.00 0.00 0.00 0.00 0.00 0.00 0.00 0.00 0.00 0.00 0.00 0.00 0.00 0.00 0.00 0.00 0.00 0.00 0.00 0.00 0.00 0.00 0.04 0.05 0.03 0.07 0.06
0.02 0.01 0.01 0.02 0.00 0.01 0.01 0.02 0.01 0.01 0.00 0.00 0.00 0.01 0.00 0.00 0.00 0.00 0.00 0.00 0.00 0.00 0.00 0.00 0.00 0.00 0.00 0.00 0.00 0.00 0.00 0.00 0.00 0.00 0.00 0.00 0.00 0.00 0.00 0.00 0.01 0.01 0.02 0.02